[[{"header":{"parameterUnit":"m.s-1","parameterCategory":1,"la1":30.6,"la2":29.2853,"lo1":-89.7004,"lo2":-87.6739,"dy":0.0162,"dx":0.0183,"nx":112,"ny":82,"refTime":"2024-07-24T12:00:00:Z","depth":0,"parameterNumber":2,"parameterNumberName":"U-component_of_WINDS"},"data":[0.0,0.0,0.0,0.0,0.0,0.0,0.0,0.0,0.0,0.0,0.0,0.0,0.0,0.0,0.0,0.0,0.0,0.0,0.0,0.0,0.0,0.0,0.0,0.0,0.0,0.0,0.0,0.0,0.0,0.0,0.0,0.0,0.0,0.0,0.0,0.0,0.0,0.0,0.0,0.0,0.0,0.0,0.0,0.0,0.0,0.0,0.0,0.0,0.0,0.0,0.0,0.0,0.0,0.0,0.0,0.0,0.0,0.0,0.0,0.0,0.0,0.0,0.0,0.0,0.0,0.0,0.0,0.0,0.0,0.0,0.0,0.0,0.0,0.0,0.0,0.0,0.0,0.0,0.0,0.0,0.0,0.0,0.0,0.0,0.0,0.0,0.0,0.0,0.0,0.0,0.0,-2.8496,-2.9121,-2.9453,-2.959,-2.8672,-2.7031,-2.4567,0.0,0.0,0.0,0.0,0.0,0.0,0.0,0.0,0.0,0.0,0.0,0.0,0.0,0.0,0.0,0.0,0.0,0.0,0.0,0.0,0.0,0.0,0.0,0.0,0.0,0.0,0.0,0.0,0.0,0.0,0.0,0.0,0.0,0.0,0.0,0.0,0.0,0.0,0.0,0.0,0.0,0.0,0.0,0.0,0.0,0.0,0.0,0.0,0.0,0.0,0.0,0.0,0.0,0.0,0.0,0.0,0.0,0.0,0.0,0.0,0.0,0.0,0.0,0.0,0.0,0.0,0.0,0.0,0.0,0.0,0.0,0.0,0.0,0.0,0.0,0.0,0.0,0.0,0.0,0.0,0.0,0.0,0.0,0.0,0.0,0.0,0.0,0.0,0.0,0.0,0.0,0.0,0.0,0.0,0.0,0.0,0.0,0.0,0.0,0.0,0.0,0.0,0.0,0.0,-2.6934,-3.0156,-2.9297,-2.8809,-2.9531,-2.8125,-2.6406,-2.4528,0.0,0.0,0.0,0.0,0.0,0.0,0.0,0.0,0.0,0.0,0.0,0.0,0.0,0.0,0.0,0.0,0.0,0.0,0.0,0.0,0.0,0.0,0.0,0.0,0.0,0.0,0.0,0.0,0.0,0.0,0.0,0.0,0.0,0.0,0.0,0.0,0.0,0.0,0.0,0.0,0.0,0.0,0.0,0.0,0.0,0.0,0.0,0.0,0.0,0.0,0.0,0.0,0.0,0.0,0.0,0.0,0.0,0.0,0.0,0.0,0.0,0.0,0.0,0.0,0.0,0.0,0.0,0.0,0.0,0.0,0.0,0.0,0.0,0.0,0.0,0.0,0.0,0.0,0.0,0.0,0.0,0.0,0.0,0.0,0.0,0.0,0.0,0.0,0.0,0.0,0.0,0.0,0.0,0.0,0.0,0.0,0.0,0.0,0.0,0.0,0.0,0.0,0.0,-2.5566,-2.6855,-2.9863,-2.8633,-2.7754,-2.8164,-2.7461,-2.6054,-2.3844,-2.3706,0.0,0.0,0.0,0.0,0.0,0.0,0.0,0.0,0.0,0.0,0.0,0.0,0.0,0.0,0.0,0.0,0.0,0.0,0.0,0.0,0.0,0.0,0.0,0.0,0.0,0.0,0.0,0.0,0.0,0.0,0.0,0.0,0.0,0.0,0.0,0.0,0.0,0.0,0.0,0.0,0.0,0.0,0.0,0.0,0.0,0.0,0.0,0.0,0.0,0.0,0.0,0.0,0.0,0.0,0.0,0.0,0.0,0.0,0.0,0.0,0.0,0.0,0.0,0.0,0.0,0.0,0.0,0.0,0.0,0.0,0.0,0.0,0.0,0.0,0.0,0.0,0.0,0.0,0.0,0.0,0.0,0.0,0.0,0.0,0.0,0.0,0.0,0.0,0.0,0.0,0.0,0.0,0.0,0.0,0.0,0.0,0.0,0.0,0.0,0.0,0.0,0.0,-2.6758,-2.707,-2.9082,-2.793,-2.6992,-2.6992,-2.6621,-2.5448,-2.3239,-2.2534,0.0,0.0,0.0,0.0,0.0,0.0,0.0,0.0,0.0,0.0,0.0,0.0,0.0,0.0,0.0,0.0,0.0,0.0,0.0,0.0,0.0,0.0,0.0,0.0,0.0,0.0,0.0,0.0,0.0,0.0,0.0,0.0,0.0,0.0,0.0,0.0,0.0,0.0,0.0,0.0,0.0,0.0,0.0,0.0,0.0,0.0,0.0,0.0,0.0,0.0,0.0,0.0,0.0,0.0,0.0,0.0,0.0,0.0,0.0,0.0,0.0,0.0,0.0,0.0,0.0,0.0,0.0,0.0,0.0,0.0,0.0,0.0,0.0,0.0,0.0,0.0,0.0,0.0,0.0,0.0,0.0,0.0,0.0,0.0,0.0,0.0,0.0,0.0,0.0,0.0,0.0,0.0,0.0,0.0,0.0,0.0,0.0,0.0,0.0,0.0,0.0,0.0,-2.6699,-2.8184,-2.8379,-2.7559,-2.6992,-2.6992,-2.5508,-2.416,-2.3161,-2.0876,0.0,0.0,0.0,0.0,0.0,0.0,0.0,0.0,0.0,0.0,0.0,0.0,0.0,0.0,0.0,0.0,0.0,0.0,0.0,0.0,0.0,0.0,0.0,0.0,0.0,0.0,0.0,0.0,0.0,0.0,0.0,0.0,0.0,0.0,0.0,0.0,0.0,0.0,0.0,0.0,0.0,0.0,0.0,0.0,0.0,0.0,0.0,0.0,0.0,0.0,0.0,0.0,0.0,0.0,0.0,0.0,0.0,0.0,0.0,0.0,0.0,0.0,0.0,0.0,0.0,0.0,0.0,0.0,0.0,0.0,0.0,0.0,0.0,0.0,0.0,0.0,0.0,0.0,0.0,0.0,0.0,0.0,0.0,0.0,0.0,0.0,0.0,0.0,0.0,0.0,0.0,0.0,0.0,0.0,0.0,0.0,0.0,0.0,0.0,0.0,0.0,0.0,-2.5254,-2.6289,0.0,-2.6719,-2.6191,-2.6191,-2.6093,-2.4979,-2.2517,0.0,0.0,0.0,0.0,0.0,0.0,0.0,0.0,0.0,0.0,0.0,0.0,0.0,0.0,0.0,0.0,0.0,0.0,0.0,0.0,0.0,0.0,0.0,0.0,0.0,0.0,0.0,0.0,0.0,0.0,0.0,0.0,0.0,0.0,0.0,0.0,0.0,0.0,0.0,0.0,0.0,0.0,0.0,0.0,0.0,0.0,0.0,0.0,0.0,0.0,0.0,0.0,0.0,0.0,0.0,0.0,0.0,0.0,0.0,0.0,0.0,0.0,0.0,0.0,0.0,0.0,0.0,0.0,0.0,0.0,0.0,0.0,0.0,0.0,0.0,0.0,0.0,0.0,0.0,0.0,0.0,0.0,0.0,0.0,0.0,0.0,0.0,0.0,0.0,0.0,0.0,0.0,0.0,0.0,0.0,0.0,0.0,0.0,0.0,0.0,0.0,0.0,-2.3262,-2.4316,-2.5273,0.0,-2.6055,-2.5703,-2.5703,-2.5742,-2.4667,-2.2068,0.0,0.0,0.0,0.0,0.0,0.0,0.0,0.0,0.0,0.0,0.0,0.0,0.0,0.0,0.0,0.0,0.0,0.0,0.0,0.0,0.0,0.0,0.0,0.0,0.0,0.0,0.0,0.0,0.0,0.0,0.0,0.0,0.0,0.0,0.0,0.0,0.0,0.0,0.0,0.0,0.0,0.0,0.0,0.0,0.0,0.0,0.0,0.0,0.0,0.0,0.0,0.0,0.0,0.0,0.0,0.0,0.0,0.0,0.0,0.0,0.0,0.0,0.0,0.0,0.0,0.0,0.0,0.0,0.0,0.0,0.0,0.0,0.0,0.0,0.0,0.0,0.0,0.0,0.0,0.0,0.0,0.0,0.0,0.0,0.0,0.0,0.0,0.0,0.0,0.0,0.0,0.0,0.0,0.0,0.0,0.0,0.0,0.0,0.0,0.0,0.0,0.0,-2.1797,-2.4121,-2.5703,-2.5703,-2.5703,-2.5703,-2.5703,-2.4102,-2.2754,0.0,0.0,0.0,0.0,0.0,0.0,0.0,0.0,0.0,0.0,0.0,0.0,0.0,0.0,0.0,0.0,0.0,0.0,0.0,0.0,0.0,0.0,0.0,0.0,0.0,0.0,0.0,0.0,0.0,0.0,0.0,0.0,0.0,0.0,0.0,0.0,0.0,0.0,0.0,0.0,0.0,0.0,0.0,0.0,0.0,0.0,0.0,0.0,0.0,0.0,0.0,0.0,0.0,0.0,0.0,0.0,0.0,0.0,0.0,0.0,0.0,0.0,0.0,0.0,0.0,0.0,0.0,0.0,0.0,0.0,0.0,0.0,0.0,0.0,0.0,0.0,0.0,0.0,0.0,0.0,0.0,0.0,0.0,0.0,0.0,0.0,0.0,0.0,0.0,0.0,0.0,0.0,0.0,0.0,0.0,0.0,0.0,0.0,0.0,0.0,0.0,0.0,0.0,-2.1797,-2.4121,-2.5703,-2.5703,-2.5703,-2.5703,-2.5703,-2.4668,-2.3144,-2.1113,0.0,0.0,0.0,0.0,0.0,0.0,0.0,0.0,0.0,0.0,0.0,0.0,0.0,0.0,0.0,0.0,0.0,0.0,0.0,0.0,0.0,0.0,0.0,0.0,0.0,0.0,0.0,0.0,0.0,0.0,0.0,0.0,0.0,0.0,0.0,0.0,0.0,0.0,0.0,0.0,0.0,0.0,0.0,0.0,0.0,0.0,0.0,0.0,0.0,0.0,0.0,0.0,0.0,0.0,0.0,0.0,0.0,0.0,0.0,0.0,0.0,0.0,0.0,0.0,0.0,0.0,0.0,0.0,0.0,0.0,0.0,0.0,0.0,0.0,0.0,0.0,0.0,0.0,0.0,0.0,0.0,0.0,0.0,0.0,0.0,0.0,0.0,0.0,0.0,0.0,0.0,0.0,0.0,0.0,0.0,0.0,0.0,0.0,0.0,0.0,0.0,0.0,-2.1738,-2.3828,-2.5175,-2.5176,-2.5488,-2.543,-2.4727,-2.418,-2.2949,-2.0742,0.0,0.0,0.0,0.0,0.0,0.0,0.0,0.0,0.0,0.0,0.0,0.0,0.0,0.0,0.0,0.0,0.0,0.0,0.0,0.0,0.0,0.0,0.0,0.0,0.0,0.0,0.0,0.0,0.0,0.0,0.0,0.0,0.0,0.0,0.0,0.0,0.0,0.0,0.0,0.0,0.0,0.0,0.0,0.0,0.0,0.0,0.0,0.0,0.0,0.0,0.0,0.0,0.0,0.0,0.0,0.0,0.0,0.0,0.0,0.0,0.0,0.0,0.0,0.0,0.0,0.0,0.0,0.0,0.0,0.0,0.0,0.0,0.0,0.0,0.0,0.0,0.0,0.0,0.0,0.0,0.0,0.0,0.0,0.0,0.0,0.0,0.0,0.0,0.0,0.0,0.0,0.0,0.0,0.0,0.0,0.0,0.0,0.0,0.0,0.0,0.0,0.0,-2.1659,-2.3355,-2.4428,-2.4511,-2.5156,-2.4941,-2.3359,-2.3086,-2.2305,-2.0703,0.0,0.0,0.0,0.0,0.0,0.0,0.0,0.0,0.0,0.0,0.0,0.0,0.0,0.0,0.0,0.0,0.0,0.0,0.0,0.0,0.0,0.0,0.0,0.0,0.0,0.0,0.0,0.0,0.0,0.0,0.0,0.0,0.0,0.0,0.0,0.0,0.0,0.0,0.0,0.0,0.0,0.0,0.0,0.0,0.0,0.0,0.0,0.0,0.0,0.0,0.0,0.0,0.0,0.0,0.0,0.0,0.0,0.0,0.0,0.0,-2.328,0.0,0.0,0.0,0.0,0.0,0.0,0.0,0.0,0.0,0.0,0.0,0.0,0.0,0.0,0.0,0.0,0.0,0.0,0.0,0.0,0.0,0.0,0.0,0.0,0.0,0.0,0.0,0.0,0.0,0.0,0.0,0.0,0.0,0.0,0.0,0.0,0.0,0.0,0.0,0.0,0.0,-2.1604,-2.3321,-2.4658,-2.5341,-2.4979,-2.4531,-2.4141,-2.291,-2.1719,-2.0664,-1.9609,0.0,0.0,0.0,0.0,0.0,0.0,0.0,0.0,0.0,0.0,0.0,0.0,0.0,0.0,0.0,0.0,0.0,0.0,0.0,0.0,0.0,0.0,0.0,0.0,0.0,0.0,0.0,0.0,0.0,0.0,0.0,0.0,0.0,0.0,0.0,0.0,0.0,0.0,0.0,0.0,0.0,0.0,0.0,0.0,0.0,0.0,0.0,0.0,0.0,0.0,0.0,0.0,0.0,0.0,0.0,0.0,0.0,0.0,0.0,0.0,-2.42,0.0,0.0,0.0,0.0,0.0,0.0,0.0,0.0,0.0,0.0,0.0,0.0,0.0,0.0,0.0,0.0,0.0,0.0,0.0,0.0,0.0,0.0,0.0,0.0,0.0,0.0,0.0,0.0,0.0,0.0,0.0,0.0,0.0,0.0,0.0,0.0,0.0,0.0,0.0,0.0,-2.2107,-2.3173,-2.3904,-2.4343,-2.4403,-2.3883,-2.2634,-2.2148,-2.1523,-2.0664,-1.9785,0.0,0.0,0.0,0.0,0.0,0.0,0.0,0.0,0.0,0.0,0.0,0.0,0.0,0.0,0.0,0.0,0.0,0.0,0.0,0.0,0.0,0.0,0.0,0.0,0.0,0.0,0.0,0.0,0.0,0.0,0.0,0.0,0.0,0.0,0.0,0.0,0.0,0.0,0.0,0.0,0.0,0.0,0.0,0.0,0.0,0.0,0.0,0.0,0.0,0.0,0.0,0.0,0.0,-2.8495,-2.8481,-2.8523,-2.8521,-2.8128,-2.7472,-2.6916,-2.6131,-2.5207,-2.419,0.0,0.0,0.0,0.0,0.0,0.0,0.0,0.0,0.0,0.0,0.0,0.0,0.0,0.0,0.0,0.0,0.0,0.0,0.0,0.0,0.0,0.0,0.0,0.0,-2.3887,-2.3844,0.0,0.0,0.0,0.0,0.0,0.0,0.0,0.0,0.0,0.0,0.0,0.0,-2.2669,-2.3123,-2.3237,-2.3231,-2.3795,-2.3247,-2.0925,-2.1307,-2.1367,-2.0644,-1.9922,-1.9531,0.0,0.0,0.0,0.0,0.0,0.0,0.0,0.0,0.0,0.0,0.0,0.0,0.0,0.0,0.0,0.0,0.0,0.0,0.0,0.0,0.0,0.0,0.0,0.0,0.0,0.0,0.0,0.0,0.0,0.0,0.0,0.0,-2.1673,-2.2581,0.0,0.0,0.0,0.0,0.0,0.0,0.0,0.0,0.0,0.0,0.0,0.0,0.0,-3.0263,-3.0953,-3.1063,-3.1154,-3.1205,-3.0494,-3.0205,-3.0251,-2.9576,-2.9196,-2.9084,-2.9011,0.0,-2.5844,-2.4334,0.0,0.0,0.0,0.0,0.0,0.0,0.0,0.0,0.0,0.0,0.0,0.0,0.0,0.0,0.0,0.0,0.0,0.0,0.0,0.0,0.0,0.0,-2.5073,-2.5072,-2.5157,-2.5178,0.0,-2.3093,-2.1495,-2.1378,-2.0137,0.0,0.0,0.0,0.0,0.0,0.0,0.0,-2.2675,-2.3617,-2.4133,-2.4122,-2.3605,-2.2836,-2.1727,-2.1092,-2.0723,-2.0605,-2.0488,-2.043,-2.043,-1.9707,0.0,0.0,0.0,0.0,0.0,0.0,0.0,0.0,0.0,0.0,0.0,0.0,0.0,0.0,0.0,0.0,0.0,0.0,0.0,0.0,0.0,0.0,0.0,0.0,0.0,0.0,0.0,0.0,0.0,-2.1584,-2.3281,-2.363,-2.4476,-2.4679,0.0,0.0,0.0,0.0,0.0,0.0,0.0,0.0,0.0,-3.1126,-3.1501,-3.1839,-3.2163,-3.2163,-3.2201,-3.2256,-3.148,-3.115,-3.118,-3.0426,-2.9824,-2.9359,-2.8876,-2.8109,-2.7143,-2.6062,-2.5447,-2.512,0.0,0.0,0.0,0.0,-2.3818,-2.3519,-2.3972,-2.4216,0.0,-2.3294,0.0,0.0,0.0,0.0,0.0,0.0,0.0,0.0,0.0,0.0,-2.5448,-2.5419,-2.5436,-2.546,-2.5488,-2.4621,-2.3697,0.0,-2.2494,-2.1507,-2.0073,0.0,0.0,0.0,0.0,-2.1569,-2.2749,-2.3686,-2.4248,-2.4248,-2.3927,-2.317,-2.1854,-2.1452,-2.1076,-2.0571,-2.0532,-2.0532,-2.0532,-2.0188,-1.9739,0.0,0.0,0.0,0.0,0.0,0.0,0.0,0.0,0.0,0.0,0.0,0.0,0.0,0.0,0.0,0.0,0.0,0.0,0.0,0.0,0.0,0.0,0.0,0.0,0.0,0.0,0.0,0.0,-2.3263,-2.4887,-2.5089,-2.6552,-2.6967,0.0,0.0,0.0,0.0,0.0,0.0,-3.0905,-3.1163,-3.1894,-3.3241,-3.3277,-3.3374,-3.3537,-3.3335,-3.3264,-3.3342,-3.2348,-3.1923,-3.1945,-3.0995,-3.0248,-2.9636,-2.8792,-2.843,-2.8366,-2.7438,-2.6677,-2.6052,-2.5402,-2.4693,-2.41,-2.4734,-2.4624,-2.4241,-2.483,-2.5154,-2.5177,-2.4558,0.0,-2.3087,-2.2447,0.0,0.0,0.0,0.0,-2.4672,-2.5254,-2.5444,-2.548,-2.5427,-2.5444,-2.5507,-2.5507,-2.5507,-2.5318,0.0,-2.435,-2.3596,-2.1697,0.0,0.0,0.0,0.0,-2.2555,-2.3155,-2.3983,-2.4447,-2.4215,-2.4193,-2.3606,-2.2158,-2.1891,-2.1526,-2.0867,-2.0615,-2.0498,-2.0498,-2.0499,-2.0188,-1.9541,0.0,0.0,0.0,0.0,0.0,0.0,0.0,0.0,0.0,0.0,0.0,0.0,0.0,0.0,0.0,0.0,0.0,0.0,0.0,0.0,0.0,0.0,0.0,0.0,0.0,0.0,0.0,0.0,0.0,-2.7541,-2.9035,0.0,0.0,0.0,0.0,-2.9953,-3.1458,-3.2394,-3.2485,-3.3201,-3.4009,-3.4857,-3.4876,-3.5279,-3.6101,-3.5279,-3.4954,-3.5041,-3.3416,-3.268,-3.2687,-3.1187,-3.0469,-3.0406,-2.9654,-2.9322,-2.9221,-2.7585,-2.6523,-2.5909,-2.5866,-2.5434,-2.4834,-2.4898,-2.4879,-2.486,-2.491,-2.4922,-2.4929,-2.5022,-2.4596,-2.404,-2.3983,-2.4011,0.0,0.0,-2.4795,-2.5426,-2.5406,-2.5452,-2.5484,-2.5425,-2.5456,-2.5507,-2.5507,-2.5507,-2.5488,0.0,-2.4776,-2.4157,-2.4022,0.0,-2.2807,-2.2729,-2.348,-2.4099,-2.4138,-2.4892,-2.5124,-2.4292,-2.4193,-2.3858,-2.301,-2.2239,-2.1778,-2.1739,-2.0964,-2.0498,-2.0498,-2.0501,-2.048,-2.044,-1.962,0.0,0.0,0.0,0.0,0.0,0.0,0.0,0.0,0.0,0.0,0.0,0.0,0.0,0.0,0.0,0.0,0.0,0.0,0.0,0.0,0.0,0.0,0.0,0.0,0.0,0.0,0.0,0.0,-2.9255,-3.1219,0.0,-3.0668,-3.1733,-3.2302,-3.1775,-3.2761,-3.3605,-3.4124,-3.4417,-3.4949,-3.5807,-3.5298,-3.5151,-3.5463,-3.4637,-3.4261,-3.4288,-3.3739,-3.3208,-3.2717,-3.2207,-3.1453,-3.0487,-3.0213,-2.9848,-2.9341,-2.8746,-2.8042,-2.7261,-2.6757,-2.6073,-2.5354,-2.4829,-2.476,-2.4903,-2.4908,-2.4968,-2.5018,-2.4981,-2.4861,-2.4749,-2.4783,-2.4888,-2.4968,-2.4968,-2.5208,-2.5425,-2.541,-2.5427,-2.5425,-2.5404,-2.5417,-2.5452,-2.5488,-2.5507,-2.5507,-2.5507,-2.526,-2.4853,-2.4292,-2.3944,-2.3557,-2.2981,-2.3635,-2.4196,-2.4196,-2.4969,-2.5372,-2.5066,-2.5046,-2.4693,-2.3844,-2.2994,-2.2292,-2.177,-2.0917,-2.0448,-2.0448,-2.0446,-2.0448,-2.0432,-2.0133,-1.9282,0.0,0.0,0.0,0.0,0.0,0.0,0.0,0.0,0.0,0.0,0.0,0.0,0.0,0.0,0.0,0.0,0.0,0.0,0.0,0.0,0.0,0.0,0.0,0.0,0.0,0.0,-3.0381,-3.0907,-3.2894,-3.3568,-3.1953,-3.3256,-3.3977,-3.3445,-3.4174,-3.489,-3.5408,-3.5169,-3.5261,-3.5844,-3.5041,-3.4601,-3.4601,-3.4082,-3.3807,-3.3807,-3.386,-3.3579,-3.3064,-3.2865,-3.2077,-3.0861,-3.0606,-3.0086,-2.9396,-2.9396,-2.9062,-2.8467,-2.7631,-2.6646,-2.5633,-2.5094,-2.4847,-2.476,-2.4811,-2.4961,-2.5078,-2.4993,-2.5065,-2.5214,-2.5253,-2.5332,-2.541,-2.541,-2.54,-2.5404,-2.5397,-2.541,-2.5408,-2.5395,-2.54,-2.5412,-2.5468,-2.5472,-2.5472,-2.5472,-2.548,-2.5318,-2.4737,-2.4641,-2.4447,-2.3867,-2.4273,-2.4641,-2.4641,-2.5143,-2.5507,-2.5507,-2.5507,-2.5279,-2.4699,-2.3577,-2.2671,-2.2133,-2.1024,-2.0402,-2.0402,-2.0408,-2.041,-2.0402,-2.0117,-1.94,-1.8305,0.0,0.0,0.0,0.0,0.0,0.0,0.0,0.0,0.0,0.0,0.0,0.0,0.0,0.0,0.0,0.0,0.0,0.0,0.0,0.0,0.0,0.0,0.0,-2.8907,-3.1,-3.2551,-3.2569,-3.3996,-3.4399,-3.2858,-3.416,-3.5078,-3.5078,-3.5862,-3.6321,-3.6303,-3.5463,-3.5004,-3.5004,-3.4229,-3.3807,-3.3807,-3.3807,-3.3807,-3.3807,-3.3807,-3.3807,-3.377,-3.3064,-3.2318,-3.156,-3.0842,-3.0094,-2.9396,-2.9396,-2.9396,-2.9304,-2.843,-2.7148,-2.5782,-2.5745,-2.5243,-2.4608,-2.4709,-2.4912,-2.5122,-2.5097,-2.5222,-2.5394,-2.5394,-2.5388,-2.5406,-2.5406,-2.5406,-2.541,-2.5406,-2.5406,-2.541,-2.541,-2.541,-2.541,-2.541,-2.541,-2.541,-2.541,-2.544,-2.5507,-2.5507,-2.5507,-2.5507,-2.5507,-2.5507,0.0,-2.5507,-2.5507,-2.5507,-2.5507,-2.5507,-2.5507,-2.5507,-2.3906,-2.2903,-2.2903,-2.133,-2.0402,-2.0402,-2.044,-2.044,-2.044,-1.9573,-1.9154,-1.918,0.0,0.0,0.0,0.0,0.0,0.0,0.0,0.0,0.0,0.0,0.0,0.0,0.0,0.0,0.0,0.0,0.0,0.0,0.0,0.0,0.0,0.0,-3.1302,-3.1409,-3.2493,-3.3519,-3.4164,-3.4645,-3.5017,-3.5257,-3.6211,-3.6798,-3.6798,-3.7033,-3.6923,-3.6321,-3.5463,-3.5004,-3.5004,-3.4229,-3.3807,-3.3807,-3.3807,-3.3807,-3.3807,-3.3807,-3.3807,-3.3788,-3.3582,-3.2776,-3.1525,-3.1364,-3.0546,-2.9334,-2.9386,-2.9396,-2.9304,-2.843,-2.7836,-2.7371,-2.6795,-2.6487,-2.6313,-2.5764,-2.5676,-2.5706,-2.5021,-2.4981,-2.5171,-2.5171,-2.5248,-2.5332,-2.5332,-2.537,-2.5379,-2.5337,-2.537,-2.5407,-2.5407,-2.5407,-2.5393,-2.5406,-2.541,-2.541,-2.541,-2.5419,-2.5432,-2.5425,-2.5429,-2.5433,-2.5488,-2.5507,0.0,-2.5507,-2.5507,-2.5507,-2.5507,-2.5507,-2.5507,-2.5507,-2.3906,-2.2903,-2.2903,-2.133,-2.0402,-2.0402,-2.1004,-2.1337,-2.1337,-2.0499,-2.0346,0.0,0.0,0.0,0.0,0.0,0.0,0.0,0.0,0.0,0.0,0.0,0.0,0.0,0.0,0.0,0.0,0.0,0.0,0.0,0.0,0.0,0.0,-3.088,-3.3241,-3.3313,-3.4044,-3.4634,-3.4809,-3.4877,-3.5099,-3.5655,-3.616,-3.6597,-3.6978,-3.6997,-3.6795,-3.6321,-3.5826,-3.5371,-3.5023,-3.4546,-3.4137,-3.3807,-3.3807,-3.3807,-3.3807,-3.3807,-3.3807,-3.3807,-3.3807,-3.3136,0.0,-3.1727,-3.093,-2.9776,-2.9506,-2.9396,0.0,0.0,0.0,0.0,0.0,-2.6981,-2.7039,-2.656,-2.6279,-2.6003,-2.5469,-2.5194,-2.509,-2.509,-2.5187,-2.5308,-2.5308,-2.5322,-2.5351,-2.5313,-2.5322,-2.5356,-2.5356,-2.5356,-2.5361,-2.5355,-2.5355,-2.5355,-2.5355,-2.5355,0.0,-2.5391,-2.5408,-2.5406,-2.5456,-2.5484,-2.5507,-2.5507,-2.5507,-2.5507,-2.5507,-2.5507,-2.5507,-2.5507,-2.4234,0.0,0.0,0.0,-2.1449,-2.1449,-2.1936,0.0,0.0,0.0,0.0,0.0,0.0,0.0,0.0,-2.3093,-2.3446,0.0,0.0,0.0,0.0,0.0,0.0,0.0,0.0,0.0,0.0,0.0,0.0,0.0,0.0,0.0,0.0,-3.2202,-3.4606,-3.4606,-3.5266,-3.549,-3.4767,-3.4732,-3.4832,-3.5015,-3.509,-3.5522,-3.6472,-3.656,-3.656,-3.656,0.0,0.0,0.0,0.0,-3.4802,-3.4082,-3.3972,-3.3935,-3.3935,-3.3844,-3.3807,-3.3807,-3.3807,-3.3393,-3.2648,-3.2004,-3.1251,-3.045,-2.9792,-2.946,-2.9386,-2.9396,-2.8932,-2.8152,-2.7445,-2.7261,-2.735,-2.7256,0.0,0.0,-2.614,-2.5683,-2.52,-2.5105,-2.5165,-2.5269,-2.5269,-2.5298,-2.5308,-2.5308,-2.5308,-2.5308,-2.5308,-2.5308,-2.5308,-2.5308,-2.5308,-2.5308,-2.5308,-2.5308,-2.5317,-2.5384,-2.5387,-2.5393,-2.5397,-2.5452,-2.5488,-2.5488,-2.5507,-2.5507,-2.5507,0.0,0.0,-2.5507,-2.4699,-2.4196,-2.4196,-2.3383,-2.2942,-2.3039,-2.3058,-2.3058,-2.3058,-2.3058,-2.3097,-2.3194,-2.466,-2.5047,-2.4451,-2.3051,-2.3545,0.0,0.0,0.0,0.0,0.0,0.0,0.0,0.0,0.0,0.0,0.0,0.0,0.0,0.0,0.0,-3.2343,-3.3683,-3.4606,-3.4606,-3.4748,-3.4815,-3.4712,-3.4157,-3.4291,-3.5659,-3.5846,-3.6494,-3.7958,-3.8166,-3.8248,-3.8248,-3.7606,-3.7199,-3.7033,-3.6395,-3.5973,-3.5826,-3.5114,-3.4766,-3.4766,0.0,0.0,-3.3807,-3.3807,-3.3366,-3.2608,-3.257,-3.1745,-3.0408,-3.0309,-2.9898,-2.9323,-2.9386,-2.9304,-2.9118,-2.8969,-2.8934,-2.8852,-2.8145,-2.7886,-2.7664,-2.6365,-2.5918,-2.5782,-2.5132,-2.5024,0.0,-2.5143,-2.5222,-2.5308,-2.5308,-2.5308,-2.5308,-2.5308,-2.5308,-2.5308,-2.5308,-2.5308,-2.5308,-2.5308,-2.5308,-2.5308,-2.5317,-2.5365,-2.5397,-2.5395,-2.5412,-2.5425,-2.5425,-2.548,-2.5507,-2.5507,-2.5507,-2.5507,-2.5507,-2.4699,-2.4196,-2.4196,-2.3383,-2.3213,-2.3925,-2.3944,-2.3944,-2.3944,-2.3944,-2.4292,-2.5008,-2.4621,-2.5062,-2.6223,-2.6618,-2.6323,0.0,0.0,0.0,0.0,0.0,0.0,0.0,0.0,0.0,0.0,0.0,-2.8352,-2.8383,0.0,-3.2325,-3.2723,-3.381,-3.4461,-3.4063,-3.4009,-3.4006,-3.4035,-3.3717,-3.4142,-3.5788,-3.6009,-3.6726,-3.8382,-3.8559,-3.8624,-3.8692,-3.8322,-3.7933,-3.7511,-3.7107,-3.6707,-3.6303,-3.5445,-3.5004,-3.5004,-3.4192,-3.3807,-3.3807,-3.3807,-3.3587,-3.3183,-3.2882,-3.2293,-3.1494,-3.0741,-2.9991,-2.9302,-2.9344,-2.9376,-2.9396,-2.9396,-2.9396,-2.9341,-2.8895,-2.8508,-2.7998,-2.6794,-2.6495,-2.6389,-2.5178,-2.5226,-2.5613,-2.5205,-2.5206,-2.5308,-2.5308,-2.5308,-2.5308,-2.5308,-2.5308,-2.5308,-2.5308,-2.5308,-2.5308,-2.5308,-2.5308,-2.5308,-2.5308,-2.5322,-2.5361,-2.5388,-2.54,-2.5401,-2.5401,-2.5456,-2.5507,-2.5507,-2.5507,-2.5507,-2.5507,-2.5105,-2.4853,-2.4853,-2.4447,-2.4409,-2.4834,-2.4853,-2.4853,-2.4853,-2.4853,-2.5066,-2.5507,-2.5066,-2.5275,-2.6107,-2.6555,-2.6304,0.0,0.0,0.0,0.0,0.0,0.0,0.0,0.0,-2.6223,-2.6499,-2.832,-2.993,-3.0137,-3.1419,-3.2542,-3.285,-3.3864,-3.4443,-3.3936,-3.3737,-3.3628,-3.3628,-3.3542,-3.4113,-3.5729,-3.5933,-3.6684,-3.8353,-3.8494,-3.8559,-3.8658,-3.8692,-3.8395,-3.7749,-3.7731,-3.7419,-3.6762,-3.5756,-3.5261,-3.5243,-3.4284,-3.3807,-3.3807,-3.3807,-3.3807,-3.3752,-3.2844,-3.2477,-3.2348,-3.0805,-2.981,-2.9272,-2.9302,-2.9344,-2.9396,-2.9396,-2.9396,-2.9396,-2.9396,-2.8932,-2.8189,-2.7222,-2.6963,-2.6752,-2.5158,-2.5272,-2.5857,-2.5233,-2.5154,-2.5264,-2.5284,-2.5308,-2.5308,-2.5308,-2.5308,-2.5308,-2.5308,-2.5308,-2.5308,-2.5308,-2.5308,-2.5308,-2.5308,-2.5308,-2.5317,-2.5365,-2.5382,-2.5408,-2.5408,-2.5448,-2.5484,-2.5484,-2.5488,-2.5507,-2.5507,-2.5507,-2.5507,-2.5507,-2.5507,-2.5507,-2.5507,-2.5507,-2.5507,-2.5507,-2.5507,-2.5507,-2.5507,-2.5507,-2.5507,-2.5507,-2.5507,-2.5507,-2.1073,-2.0543,-2.0757,-2.2787,-2.4114,-2.553,0.0,0.0,-2.9972,-3.024,-3.1141,-3.2101,-3.2824,-3.3125,-3.3737,-3.5152,-3.4953,-3.4824,-3.5442,-3.4932,-3.448,-3.448,-3.3828,-3.4042,-3.5657,-3.5877,-3.6576,-3.8212,-3.8433,-3.851,-3.8525,-3.8643,-3.867,-3.8579,-3.8579,-3.8524,-3.8432,-3.6927,-3.6156,-3.6138,-3.4541,-3.3807,-3.3807,-3.3807,-3.3807,-3.3715,-3.2255,-3.163,-3.1507,-2.9979,-2.9292,-2.9229,-2.9291,-2.9344,-2.9396,-2.9396,-2.9396,-2.9396,-2.9396,-2.9351,-2.8988,-2.7408,-2.6907,-2.6619,-2.5009,-2.4695,-2.4885,-2.4907,-2.5031,-2.5154,-2.5264,-2.5308,-2.5308,-2.5308,-2.5308,-2.5308,-2.5308,-2.5308,-2.5308,-2.5308,-2.5308,-2.5308,-2.5308,-2.5308,-2.5308,-2.5313,-2.5361,-2.5403,-2.5403,-2.54,-2.5406,-2.5406,-2.546,-2.5507,-2.5507,-2.5507,-2.5507,-2.5507,-2.5507,-2.5507,-2.5507,-2.5507,-2.5507,-2.5507,-2.5507,-2.5507,-2.5507,-2.5507,-2.5507,-2.5507,-2.5507,-2.5507,-2.1796,-2.2358,0.0,0.0,-2.5279,-2.6949,-2.8209,-2.9543,-3.071,-3.1463,-3.2285,-3.2995,-3.3339,-3.3393,-3.3773,0.0,-3.4824,-3.4881,-3.5677,-3.5098,-3.4606,-3.4606,-3.39,-3.4027,-3.5641,-3.5833,-3.6533,-3.818,-3.8354,-3.8417,-3.851,-3.8559,-3.8624,-3.8707,-3.8707,-3.8707,-3.8707,-3.7569,-3.6758,-3.6285,-3.5078,-3.4252,-3.3807,-3.3807,-3.3807,-3.3752,-3.3117,-3.2579,-3.2046,-3.0943,-3.0224,-2.9809,-2.9403,-2.9272,-2.9355,-2.9386,-2.9396,-2.9396,-2.9396,-2.9396,-2.9192,-2.7984,-2.7594,-2.7297,-2.5689,-2.5281,-2.5308,-2.4896,-2.4881,-2.5006,-2.5149,-2.5176,-2.5192,-2.5274,-2.5308,-2.5308,-2.5308,-2.5308,-2.5308,-2.5308,-2.5308,-2.5308,-2.5308,-2.5308,-2.5308,-2.5308,-2.5356,-2.5398,-2.5398,-2.5406,-2.5408,-2.5401,-2.5456,-2.5507,-2.5507,-2.5507,-2.5507,-2.5507,-2.5507,-2.5507,-2.5507,-2.5507,-2.5507,-2.5507,-2.5507,-2.5507,-2.5507,-2.5507,-2.5507,-2.5507,-2.5507,-2.5507,-2.2745,0.0,0.0,-2.4793,-2.6458,-2.8206,-2.8639,-3.0032,-3.1437,-3.2197,-3.2892,-3.3382,-3.3382,-3.3396,-3.3737,-3.4754,-3.4917,-3.5206,-3.6019,-3.5439,-3.486,-3.4643,-3.4099,-3.428,-3.5659,-3.5804,-3.6488,-3.8148,-3.829,-3.8354,-3.8478,-3.8494,-3.8559,-3.8692,-3.8707,-3.8707,-3.8707,-3.7915,-3.7217,-3.6615,-3.5518,-3.4692,-3.4119,-3.3899,-3.3807,-3.3788,-3.3568,-3.3018,-3.221,-3.1403,-3.0625,-2.9929,-2.9385,-2.9229,-2.9312,-2.9355,-2.9386,-2.9396,-2.9396,-2.9396,-2.9248,-2.8374,-2.8096,-2.7798,-2.6182,-2.5769,-2.5685,-2.4917,-2.4772,-2.4874,-2.5,-2.5037,-2.5086,-2.5203,-2.5243,-2.5253,-2.5279,-2.5308,-2.5308,-2.5308,-2.5308,-2.5308,-2.5308,-2.5308,-2.5308,-2.5308,-2.5346,-2.5365,-2.5365,-2.5384,-2.5391,-2.5397,-2.5433,-2.5484,-2.5507,-2.5507,-2.5507,-2.5507,-2.5507,-2.5507,-2.5507,-2.5507,-2.5507,-2.5507,-2.5507,-2.5507,-2.5507,-2.5507,-2.5507,-2.5507,-2.5507,-2.5507,0.0,0.0,-2.4685,-2.6223,-2.8079,-2.9735,-3.0453,-3.1858,-3.3016,-3.2975,-3.3152,-3.3292,-3.3292,-3.3352,-3.3918,-3.5514,-3.575,-3.6055,-3.685,-3.6272,-3.546,-3.4682,-3.4588,-3.4881,0.0,-3.5804,-3.6472,-3.8082,-3.8257,-3.8322,-3.8399,-3.8462,-3.8559,-3.8692,-3.8707,-3.8707,-3.8707,-3.7915,-3.7492,-3.7437,-3.5775,-3.4986,-3.4949,-3.4174,-3.3807,-3.3752,-3.2968,-3.2173,-3.1378,-3.0577,-2.9804,-2.9126,-2.9108,-2.9186,-2.9302,-2.9302,-2.9344,-2.9396,-2.9396,-2.9396,-2.9248,-2.8374,-2.8096,-2.7798,-2.6182,-2.5708,-2.5558,-2.4885,-2.4707,-2.4727,-2.4874,-2.4908,-2.4948,-2.5066,-2.5115,-2.5143,-2.5269,-2.5308,-2.5308,-2.5308,-2.5308,-2.5308,-2.5308,-2.5308,-2.5308,-2.5308,-2.5308,-2.5308,-2.5308,-2.5356,-2.5397,-2.5397,-2.5401,-2.5429,-2.5488,-2.5507,-2.5507,-2.5507,-2.5507,-2.5507,-2.5507,-2.5507,-2.5507,-2.5507,-2.5507,-2.5507,-2.5507,-2.5507,-2.5507,-2.5507,-2.5507,-2.5507,0.0,0.0,-2.6911,-2.8177,-2.9747,-3.1067,-3.1306,-3.1813,-3.2235,-3.2204,-3.19,-3.1647,-3.1647,-3.2137,-3.3066,-3.469,-3.5426,-3.6272,-3.7611,-3.7104,-3.6506,-3.6234,-3.5729,0.0,0.0,0.0,0.0,-3.8082,-3.7718,-3.7695,-3.8285,-3.8401,-3.8462,-3.8559,-3.8658,-3.8707,-3.8707,-3.8432,-3.8028,-3.7474,-3.5793,-3.4729,-3.4192,-3.3917,-3.3807,-3.377,-3.3513,-3.3238,-3.2926,-3.2118,-3.1323,-3.0576,-3.009,-2.9602,-2.9186,-2.928,-2.9312,-2.9344,-2.9386,-2.9396,-2.9341,-2.9062,-2.856,-2.7891,-2.6814,-2.6498,-2.6237,-2.494,-2.4957,-2.5271,-2.4877,-2.4764,-2.4818,-2.5062,-2.509,-2.5143,-2.5264,-2.5308,-2.5308,-2.5308,-2.5308,-2.5308,-2.5308,-2.5308,-2.5308,-2.5308,-2.5308,-2.5308,-2.5308,-2.5356,-2.5403,-2.5397,-2.5391,-2.5408,-2.5429,-2.5429,-2.5456,-2.5507,-2.5507,-2.5507,-2.5507,-2.5507,-2.5507,-2.5507,-2.5507,-2.5507,-2.5507,-2.5507,-2.5507,-2.5507,-2.5507,-2.5507,-2.5522,-2.6862,-2.8103,-2.8809,-2.994,-3.0886,-3.0886,-3.1127,-3.1261,-3.1011,-3.0621,-3.0352,-3.0352,-3.0836,-3.1939,-3.4073,-3.4945,-3.5931,-3.7472,-3.7288,-3.6886,-3.6598,-3.6363,-3.6435,0.0,0.0,0.0,-3.81,-3.772,-3.768,-3.8254,-3.8352,-3.843,-3.851,-3.8624,-3.8707,-3.8707,-3.8707,-3.8157,-3.707,-3.5991,-3.4876,-3.3807,-3.3807,-3.3807,-3.3807,-3.3807,-3.3642,-3.333,-3.2803,-3.1971,-3.0919,-3.0441,-2.9796,-2.91,-2.9197,-2.9269,-2.9312,-2.9376,-2.9396,-2.9396,-2.9396,-2.9025,-2.8356,-2.7241,-2.6907,-2.6553,-2.4946,-2.4871,-2.5177,-2.4738,-2.4639,-2.4707,-2.4955,-2.5018,-2.5086,-2.5259,-2.5308,-2.5308,-2.5308,-2.5308,-2.5308,-2.5308,-2.5308,-2.5308,-2.5308,-2.5308,-2.5308,-2.5308,-2.5346,-2.5365,-2.5394,-2.5407,-2.5406,-2.5408,-2.5397,-2.5425,-2.546,-2.5484,-2.5507,-2.5507,-2.5507,-2.5507,-2.5507,-2.5507,-2.5507,-2.5507,-2.5507,-2.5507,-2.5507,-2.5507,-2.5507,-2.6454,-2.7447,-2.8267,-2.832,-2.8891,-2.9458,-2.9458,-2.9976,-3.0229,-2.9494,-2.9354,-2.9357,-2.9321,0.0,-3.0738,-3.3692,-3.4499,-3.5227,-3.6666,-3.702,-3.685,0.0,0.0,0.0,0.0,0.0,0.0,-3.8263,0.0,-3.8188,-3.829,-3.8352,-3.843,-3.8476,-3.8624,-3.8692,-3.8707,-3.8707,-3.7918,-3.6358,-3.6321,-3.544,-3.3862,-3.3825,-3.3807,-3.3807,-3.3807,-3.3366,-3.2656,-3.2619,-3.1678,-3.0265,-3.0228,-2.9749,-2.9108,-2.9089,-2.9186,-2.9312,-2.9376,-2.9396,-2.9396,-2.9396,-2.9396,-2.9081,-2.7464,-2.6962,-2.6628,-2.502,-2.4555,-2.4555,-2.4518,-2.45,-2.4566,-2.4825,-2.4902,-2.4974,-2.5233,-2.5303,-2.5308,-2.5308,-2.5308,-2.5308,-2.5308,-2.5308,-2.5308,-2.5308,-2.5308,-2.5308,-2.5308,-2.5308,-2.5317,-2.5389,-2.5394,-2.5403,-2.5406,-2.5408,-2.5397,-2.5401,-2.5456,-2.5507,-2.5507,-2.5507,-2.5507,-2.5507,-2.5507,-2.5507,-2.5507,-2.5507,-2.5507,-2.5507,-2.5507,-2.5507,-2.7524,-2.8439,-2.9244,-2.9765,-3.0068,-3.0225,-3.0225,-2.9925,-2.9458,-2.8677,-2.8044,-2.7464,-2.6843,0.0,0.0,-3.2358,-3.4731,0.0,-3.7706,-3.8391,0.0,-3.85,0.0,-3.9623,-3.9623,-3.9623,0.0,0.0,-3.8282,-3.7591,-3.8189,-3.829,-3.837,-3.8415,-3.8512,-3.8609,-3.8707,-3.8707,-3.8193,-3.7199,-3.6578,-3.5734,-3.4674,-3.4082,-3.3807,-3.3807,-3.3807,-3.3678,-3.3458,-3.2839,-3.2008,-3.1017,-3.043,-2.9714,-2.904,-2.9085,-2.9145,-2.924,-2.9294,-2.9365,-2.9396,-2.9396,-2.9396,-2.9192,-2.8114,-2.7798,-2.7464,-2.5856,-2.5392,-2.5262,-2.4667,-2.45,-2.4532,-2.4704,-2.4818,-2.4955,-2.5101,-2.5233,-2.5308,-2.5308,-2.5308,-2.5308,-2.5308,-2.5308,-2.5308,-2.5308,-2.5308,-2.5308,-2.5308,-2.5308,-2.5308,-2.5317,-2.5337,-2.5351,-2.5403,-2.5393,-2.5406,-2.5397,-2.5425,-2.5456,-2.5507,-2.5507,-2.5507,-2.5507,-2.5507,-2.5507,-2.5507,-2.5507,-2.5507,-2.5507,-2.5507,-2.5507,-2.8029,-2.8784,-2.9423,-2.948,-2.948,-2.939,-2.9048,-2.8637,-2.8031,-2.6894,-2.63,0.0,-2.5408,-2.7179,0.0,0.0,0.0,0.0,-3.7382,-3.8628,-3.9387,0.0,-4.0057,0.0,-4.0492,-4.0492,-4.0492,0.0,-3.8971,-3.8263,-3.8716,-3.8457,-3.8322,-3.8399,-3.8478,-3.8559,-3.8707,-3.8707,-3.8303,-3.7492,-3.667,-3.5844,-3.4968,-3.4174,-3.3807,-3.3807,0.0,-3.3605,-3.3238,-3.2784,-3.1916,-3.0834,-3.0375,-2.9702,-2.9005,-2.9051,-2.9089,-2.9156,-2.9197,-2.9291,-2.9365,-2.9396,-2.9396,-2.9229,-2.8356,-2.8096,-2.7836,-2.6572,-2.5968,-2.5596,-2.515,-2.476,-2.4524,-2.4668,-2.4757,-2.4867,-2.5049,-2.516,-2.5233,-2.5298,-2.5308,-2.5308,-2.5308,-2.5308,-2.5308,-2.5308,-2.5308,-2.5308,-2.5308,-2.5308,-2.5308,-2.5308,-2.5308,-2.5313,-2.5356,-2.5389,-2.5407,-2.5391,-2.5404,-2.5412,-2.5444,-2.5464,-2.5464,-2.5464,-2.5452,-2.5456,-2.5456,-2.5484,-2.5507,-2.5507,-2.5507,-2.5507,-2.8196,-2.8713,-2.9084,-2.8374,-2.8196,-2.7981,-2.7174,-2.7067,-2.6693,-2.5033,0.0,-2.4783,-2.4587,-2.5476,-2.7202,-3.008,0.0,-3.4181,-3.6502,-3.8304,-3.9441,-3.9532,-4.0311,-4.0818,-4.0818,-4.0818,-4.0818,-4.0818,-4.0039,-3.9496,-3.9405,-3.8676,-3.8322,-3.8399,-3.8478,-3.8559,-3.8707,-3.8673,-3.8325,-3.7658,-3.6725,-3.5899,-3.5151,-3.4229,-3.3807,-3.3807,-3.3807,0.0,-3.2583,-3.2472,-3.1568,-3.0191,-3.0081,-2.961,-2.9005,-2.9005,-2.9051,-2.9089,-2.9089,-2.9186,-2.9302,-2.9365,-2.9396,-2.9248,-2.8505,-2.8189,-2.7929,-2.713,-2.6312,-2.5689,-2.5578,-2.502,-2.4534,-2.4655,-2.4692,-2.4764,-2.5006,-2.5066,-2.5143,-2.5269,-2.5308,-2.5308,-2.5308,-2.5308,-2.5284,-2.5288,-2.5298,-2.5284,-2.5288,-2.5298,-2.5308,-2.5308,-2.5308,-2.5308,-2.5308,-2.5356,-2.5394,-2.5398,-2.5397,-2.5406,-2.541,-2.541,-2.541,-2.541,-2.5408,-2.5397,-2.5397,-2.5452,-2.5484,-2.5484,-2.5484,-2.5484,-2.8196,-2.8303,-2.8374,-2.8231,-2.8196,-2.7981,-2.7174,-2.7513,0.0,0.0,-2.5176,-2.5229,-2.3933,-2.5511,-2.7625,-2.9485,0.0,0.0,0.0,0.0,-3.9623,0.0,0.0,0.0,0.0,0.0,0.0,0.0,0.0,-4.0039,-3.9423,-3.8644,-3.8256,-3.8399,-3.8478,-3.8559,-3.8707,-3.859,-3.852,-3.8469,-3.7,-3.6211,-3.6028,-3.4504,-3.3807,-3.3807,-3.3807,0.0,-3.2546,-3.188,-3.1054,-3.0136,-2.9464,-2.9115,-2.9005,-2.9005,-2.9051,-2.9089,-2.9089,-2.9145,-2.9229,-2.9302,-2.9355,-2.9359,-2.9211,-2.8672,-2.7929,-2.713,-2.6312,-2.5559,-2.489,-2.4592,-2.4508,-2.4534,-2.4631,-2.4715,-2.4757,-2.4929,-2.5143,-2.5269,-2.5308,-2.5308,-2.5308,-2.5308,-2.5259,-2.5154,-2.5233,-2.5259,-2.5149,-2.5238,-2.5308,-2.5308,-2.5308,-2.5308,-2.5308,-2.5313,-2.5346,-2.5394,-2.5403,-2.5393,-2.541,-2.541,-2.541,-2.541,-2.5395,-2.5395,-2.5395,-2.5419,-2.5419,-2.5419,-2.5419,-2.5427,-2.8196,-2.8196,-2.8196,-2.8196,-2.8196,-2.7874,-2.6657,0.0,0.0,0.0,-2.5057,-2.5534,-2.4337,0.0,0.0,0.0,0.0,0.0,0.0,0.0,0.0,0.0,0.0,0.0,0.0,0.0,0.0,0.0,0.0,-4.0347,-4.0003,-3.8895,-3.829,-3.8354,-3.8399,-3.8512,-3.859,-3.8525,-3.8575,-3.8689,-3.7074,-3.6303,-3.6229,-3.4559,-3.3807,-3.3807,-3.3807,0.0,-3.2564,-3.2192,-3.1311,-3.0173,-2.9776,-2.9372,-2.9005,-2.9005,-2.9028,-2.9051,-2.9051,-2.9078,-2.9145,-2.9186,-2.9262,-2.9355,-2.9386,-2.9099,-2.869,-2.83,-2.7594,-2.6758,-2.5968,-2.5448,-2.502,-2.4592,-2.4607,-2.47,-2.47,-2.4854,-2.5043,-2.5165,-2.5206,-2.5228,-2.5298,-2.5308,-2.5253,-2.5126,-2.5203,-2.5228,-2.5012,-2.5165,-2.5308,-2.5308,-2.5308,-2.5308,-2.5308,-2.5308,-2.5313,-2.5351,-2.5351,-2.5356,-2.5346,-2.5346,-2.5346,-2.5346,-2.5384,-2.5393,-2.5393,-2.5406,-2.541,-2.541,-2.541,-2.5395,-2.816,-2.8209,-2.8209,-2.8196,-2.8084,-2.7585,-2.6139,-2.6451,0.0,0.0,-2.4968,-2.5948,-2.4909,0.0,-2.6585,0.0,0.0,0.0,0.0,0.0,0.0,0.0,0.0,0.0,0.0,0.0,0.0,0.0,0.0,0.0,-4.0021,-3.8929,-3.8307,-3.8307,-3.8354,-3.8399,-3.8478,-3.8478,-3.8544,-3.864,-3.7074,-3.6303,-3.6229,-3.4559,-3.3807,-3.3807,-3.3807,0.0,0.0,-3.2601,-3.1647,-3.021,-3.021,-2.9702,-2.9005,-2.9005,-2.9005,-2.9005,-2.9005,-2.904,-2.9085,-2.9108,-2.9186,-2.9283,-2.9365,-2.9376,-2.9349,-2.9174,-2.8635,-2.7873,-2.6907,-2.6163,-2.5503,-2.4685,-2.4582,-2.466,-2.4692,-2.4787,-2.4902,-2.5024,-2.5068,-2.5109,-2.5238,-2.5253,-2.5228,-2.5126,-2.5203,-2.5212,-2.4942,-2.5132,-2.5298,-2.5259,-2.5274,-2.5308,-2.5308,-2.5308,-2.5308,-2.5308,-2.5308,-2.5308,-2.5308,-2.5308,-2.5308,-2.5308,-2.5351,-2.5384,-2.5384,-2.5384,-2.5373,-2.5373,-2.5373,-2.5397,-2.8027,-2.825,-2.8273,-2.8209,-2.7696,-2.6967,-2.6009,0.0,0.0,-2.401,-2.541,-2.6614,-2.5064,-2.5464,0.0,0.0,0.0,-2.9945,0.0,0.0,0.0,0.0,0.0,0.0,0.0,0.0,0.0,0.0,0.0,0.0,-3.8499,-3.833,-3.8307,-3.8307,-3.8307,-3.8338,-3.8415,-3.8415,-3.8446,-3.8507,-3.7008,-3.6303,-3.6229,-3.4559,-3.3807,-3.3807,-3.3807,0.0,0.0,-3.2601,-3.1647,-3.021,-3.021,-2.9702,-2.9005,-2.9005,-2.9005,-2.9005,-2.9005,-2.9005,-2.9028,-2.9085,-2.9163,-2.9229,-2.9302,-2.9312,-2.9156,-2.8429,-2.817,-2.7743,-2.62,-2.5764,-2.5503,-2.4685,-2.4508,-2.4549,-2.4676,-2.4715,-2.4757,-2.4895,-2.4922,-2.4949,-2.5103,-2.5126,-2.5101,-2.509,-2.5203,-2.5212,-2.4942,-2.5132,-2.5253,-2.5138,-2.5233,-2.5308,-2.5308,-2.5308,-2.5308,-2.5308,-2.5308,-2.5308,-2.5308,-2.5308,-2.5308,-2.5308,-2.5308,-2.5313,-2.5313,-2.5313,-2.5313,-2.5313,-2.5313,-2.5332,-2.7441,-2.7875,-2.825,-2.8264,-2.7682,-2.689,-2.6095,0.0,-2.6517,-2.4056,-2.5524,-2.6909,-2.5739,-2.5817,-2.6603,0.0,-2.8083,-2.8835,-3.1985,0.0,0.0,0.0,0.0,0.0,0.0,0.0,0.0,0.0,0.0,0.0,-3.8281,-3.8242,-3.8241,-3.8241,-3.8241,-3.8274,-3.8338,-3.8385,-3.843,-3.8473,-3.7008,-3.6303,-3.6229,-3.4559,-3.3807,-3.3807,-3.3807,0.0,0.0,-3.2803,-3.1953,-3.087,-3.0393,-2.9702,-2.9005,-2.9005,-2.9005,-2.9005,-2.9005,-2.9005,-2.9005,-2.904,-2.9062,-2.9108,-2.9207,-2.924,-2.9177,-2.8847,-2.8794,-2.8444,-2.6793,-2.5671,-2.4908,-2.4574,-2.45,-2.4517,-2.4566,-2.4582,-2.4613,-2.4749,-2.4779,-2.4811,-2.4968,-2.5056,-2.5066,-2.4981,-2.516,-2.5212,-2.4942,-2.5049,-2.516,-2.5115,-2.5228,-2.5308,-2.5308,-2.5308,-2.5308,-2.5308,-2.5308,-2.5308,-2.5308,-2.5308,-2.5308,-2.5308,-2.5308,-2.5308,-2.5308,-2.5308,-2.5308,-2.5308,-2.5308,-2.5313,-2.7059,-2.7682,-2.8277,-2.8313,-2.7551,-2.6666,0.0,-2.647,-2.6291,-2.4082,-2.5781,-2.735,-2.6219,-2.6453,-2.7115,-2.803,-2.7873,-2.8518,-3.1003,0.0,0.0,0.0,0.0,0.0,0.0,0.0,0.0,0.0,0.0,0.0,-3.8281,-3.8209,-3.8209,-3.8209,-3.8209,-3.8207,-3.8274,-3.8352,-3.8415,-3.846,-3.6993,-3.6303,-3.6229,-3.4559,-3.3807,-3.3807,-3.3807,0.0,0.0,-3.2931,-3.2137,-3.1323,-3.0503,-2.9702,-2.9005,-2.9005,-2.9005,-2.9005,-2.9005,-2.9005,-2.9005,-2.9005,-2.9005,-2.9017,-2.91,-2.9145,-2.9167,-2.9189,-2.9066,-2.8635,-2.7458,-2.6005,-2.4853,-2.4853,-2.4667,-2.45,-2.45,-2.45,-2.4534,-2.4613,-2.4637,-2.4684,-2.483,-2.4922,-2.4955,-2.4915,-2.5097,-2.5154,-2.4935,-2.5043,-2.5132,-2.5043,-2.516,-2.5253,-2.5303,-2.5308,-2.5308,-2.5308,-2.5308,-2.5308,-2.5308,-2.5308,-2.5308,-2.5308,-2.5308,-2.5308,-2.5308,-2.5308,-2.5308,-2.5308,-2.5308,-2.5308,-2.7004,-2.7787,-2.8411,-2.8411,-2.7239,-2.6087,0.0,-2.6117,-2.5735,-2.4046,-2.6303,-2.808,-2.6411,-2.7392,-2.8247,-2.7519,-2.8025,-2.9349,-3.1854,0.0,0.0,0.0,0.0,0.0,0.0,0.0,0.0,0.0,0.0,0.0,-3.8245,-3.8209,-3.8209,-3.8209,-3.8209,-3.8209,-3.8209,-3.832,-3.8399,-3.838,-3.6963,-3.6303,-3.6229,-3.4559,-3.3807,0.0,0.0,0.0,0.0,-3.2931,-3.2137,-3.1323,-3.0503,-2.9702,-2.9005,-2.9005,-2.9005,-2.9005,-2.9005,-2.9005,-2.9005,-2.9005,-2.9005,-2.9005,-2.9005,-2.9051,-2.91,-2.9178,-2.863,-2.8013,-2.7995,-2.684,-2.5689,-2.5689,-2.5076,-2.45,-2.45,-2.45,-2.45,-2.45,-2.45,-2.4541,-2.4676,-2.4707,-2.4742,-2.4881,-2.5025,-2.5043,-2.4922,-2.5132,-2.5206,-2.4935,-2.5012,-2.5154,-2.5298,-2.5308,-2.5308,-2.5308,-2.5308,-2.5308,-2.5308,-2.5308,-2.5308,-2.5308,-2.5308,-2.5308,-2.5308,-2.5308,-2.5308,-2.5308,-2.5308,-2.5308,-2.6381,-2.7011,-2.7723,-2.8314,-2.7271,-2.6237,-2.6772,-2.6531,-2.6036,-2.5461,-2.6633,-2.7622,-2.7091,-2.7399,-2.7969,-2.86,-2.9089,0.0,0.0,0.0,0.0,0.0,0.0,0.0,0.0,0.0,0.0,0.0,0.0,0.0,-3.8245,-3.8209,-3.8209,-3.8209,-3.8209,-3.8209,-3.8209,-3.829,-3.8081,-3.7562,-3.661,-3.5897,-3.5371,-3.4284,-3.3807,0.0,0.0,0.0,0.0,-3.2339,-3.1953,-3.2027,-3.0124,-2.9555,-2.9739,-2.9207,-2.9005,-2.9005,-2.9005,-2.9005,-2.9005,-2.9005,-2.9005,-2.9005,-2.9005,-2.9017,-2.9051,-2.91,-2.8562,-2.7798,-2.7249,-2.6374,-2.5486,-2.493,-2.465,-2.45,-2.45,-2.45,-2.45,-2.45,-2.45,-2.4517,-2.4549,-2.4629,-2.4704,-2.4757,-2.4961,-2.5078,-2.5037,-2.5115,-2.5132,-2.5056,-2.4987,-2.5025,-2.5154,-2.5165,-2.5192,-2.5284,-2.5308,-2.5308,-2.5308,-2.5308,-2.5308,-2.5308,-2.5308,-2.5308,-2.5308,-2.5308,-2.5308,-2.5308,-2.5308,-2.5308,0.0,-2.7132,-2.7828,-2.8397,-2.7555,-2.6724,-2.723,-2.6983,-2.6542,-2.6212,-2.7055,-2.7767,-2.7459,-2.764,-2.7974,-2.8366,-2.9206,0.0,0.0,0.0,0.0,0.0,0.0,0.0,0.0,0.0,0.0,0.0,0.0,0.0,-3.8227,-3.7919,-3.7756,-3.7756,-3.7756,-3.7901,-3.8209,-3.7967,-3.763,-3.7197,-3.6452,-3.5703,-3.4968,-3.4174,-3.3807,0.0,0.0,0.0,0.0,-3.2394,-3.1971,-3.1971,-3.0161,-2.9574,-2.9684,-2.9189,-2.9005,-2.9005,-2.9005,-2.9005,-2.9005,-2.9005,-2.9005,-2.9005,-2.9005,-2.9005,-2.9017,-2.9051,-2.8717,-2.8242,-2.7733,-2.6814,-2.5902,-2.5412,-2.4874,-2.4474,-2.4491,-2.45,-2.45,-2.45,-2.45,-2.45,-2.45,-2.4566,-2.4613,-2.4613,-2.4854,-2.5018,-2.5018,-2.5061,-2.5072,-2.5024,-2.4908,-2.4854,-2.4929,-2.5037,-2.5143,-2.5228,-2.5269,-2.5308,-2.5308,-2.5308,-2.5308,-2.5308,-2.5308,-2.5308,-2.5308,-2.5308,-2.5308,-2.5308,-2.5308,-2.5308,0.0,-2.7911,-2.8446,-2.8496,-2.7912,-2.7314,-2.7314,-2.726,0.0,-2.6421,-2.7477,-2.8328,-2.7695,-2.8129,-2.8312,-2.7477,0.0,0.0,0.0,0.0,0.0,0.0,0.0,0.0,0.0,0.0,0.0,0.0,0.0,0.0,-3.8118,-3.7412,-3.6977,-3.6922,-3.6868,-3.723,-3.8028,-3.735,-3.7012,-3.7033,-3.6328,-3.5615,-3.488,-3.4124,-3.3775,0.0,0.0,0.0,0.0,-3.2931,-3.2173,-3.1403,-3.054,-2.9739,-2.9078,-2.9023,-2.9005,-2.9005,-2.9005,-2.9005,-2.9005,-2.9005,-2.9005,-2.9005,-2.9005,-2.9005,-2.9005,-2.9005,-2.9051,-2.9078,-2.9016,-2.7851,-2.6703,-2.6716,-2.5523,-2.4421,-2.4482,-2.45,-2.45,-2.45,-2.45,-2.45,-2.45,-2.45,-2.45,-2.45,-2.4719,-2.4895,-2.4902,-2.5,-2.5031,-2.4915,-2.4787,-2.47,-2.4684,-2.4929,-2.5086,-2.5097,-2.5203,-2.5298,-2.5298,-2.5284,-2.5308,-2.5308,-2.5308,-2.5308,-2.5308,-2.5308,-2.5308,-2.5308,-2.5308,-2.5308,-2.7405,0.0,-2.7664,-2.7676,-2.7079,-2.6482,0.0,-2.6023,-2.586,-2.6898,0.0,-2.8015,-2.9029,-2.8902,-2.902,-3.0323,0.0,0.0,0.0,0.0,0.0,0.0,0.0,0.0,0.0,0.0,0.0,0.0,0.0,-3.7937,-3.7303,-3.7104,-3.6723,-3.6109,-3.5494,-3.5548,-3.6363,-3.6198,-3.5859,-3.5359,-3.5147,-3.4663,-3.4,-3.3817,-3.3726,0.0,0.0,0.0,-3.3733,-3.2931,-3.2491,-3.2192,-3.076,-3.0081,-2.9831,-2.9225,-2.9005,-2.9005,-2.9005,-2.9005,-2.9005,-2.9005,-2.9005,-2.9005,-2.9005,-2.9005,-2.9005,-2.9005,-2.9017,-2.8881,-2.8268,-2.7411,-2.654,-2.5944,-2.5097,-2.4403,-2.4421,-2.4465,-2.45,-2.45,-2.45,-2.45,-2.45,-2.45,-2.45,-2.45,-2.4637,-2.4787,-2.4888,-2.4935,-2.4923,-2.4908,-2.4787,-2.4653,-2.4549,-2.4707,-2.4832,-2.4948,-2.5061,-2.5149,-2.5149,-2.5248,-2.5308,-2.5308,-2.5308,-2.5308,-2.5308,-2.5308,-2.5308,-2.5308,-2.5308,-2.5308,-2.6753,-2.7387,-2.7948,-2.7948,-2.7351,-2.6753,-2.6753,0.0,0.0,0.0,0.0,-2.7658,-2.854,-2.8956,0.0,0.0,0.0,0.0,0.0,0.0,0.0,0.0,0.0,0.0,0.0,0.0,0.0,0.0,0.0,-3.7466,-3.7013,-3.6306,-3.5693,-3.5261,-3.4464,-3.4609,-3.5786,-3.5424,-3.5069,-3.4735,-3.4724,-3.4331,-3.3643,-3.3643,-3.3456,0.0,0.0,0.0,-3.2669,-3.2228,-3.1843,-3.1421,-3.054,-2.9971,-2.9592,-2.9152,-2.9005,-2.9005,-2.9005,-2.9005,-2.9005,-2.9005,-2.9005,-2.9005,-2.9005,-2.9005,-2.9005,-2.9005,-2.9005,-2.8803,-2.8007,-2.724,-2.6452,-2.5683,-2.4912,-2.4358,-2.4394,-2.4456,-2.45,-2.45,-2.45,-2.45,-2.45,-2.45,-2.45,-2.45,-2.4604,-2.4738,-2.4808,-2.4816,-2.4816,-2.4816,-2.4692,-2.4582,-2.4508,-2.4566,-2.4668,-2.4808,-2.4923,-2.505,-2.5109,-2.5165,-2.5238,-2.5303,-2.5308,-2.5308,-2.5308,-2.5308,-2.5308,-2.5308,-2.5308,-2.5308,-2.5769,-2.7097,-2.8256,-2.8382,-2.7803,-2.717,-2.7061,0.0,0.0,0.0,0.0,0.0,0.0,-2.8956,0.0,0.0,0.0,0.0,0.0,0.0,0.0,0.0,0.0,0.0,0.0,0.0,0.0,0.0,0.0,-3.6594,-3.6468,-3.5171,-3.4411,-3.4331,-3.3662,-3.3985,-3.5406,-3.4754,-3.4437,-3.4512,-3.4512,-3.4178,-3.3591,-3.3591,-3.3181,-3.2501,0.0,0.0,-3.1397,-3.1397,-3.0925,-3.021,-3.021,-2.9702,-2.9005,-2.9005,-2.9005,-2.9005,-2.9005,-2.9005,-2.9005,-2.9005,-2.9005,-2.9005,-2.9005,-2.9005,-2.9005,-2.9005,-2.9005,-2.884,-2.8154,-2.7383,-2.6586,-2.5847,-2.5068,-2.446,-2.4394,-2.4411,-2.4474,-2.4474,-2.4474,-2.4474,-2.4482,-2.4482,-2.4491,-2.45,-2.4599,-2.4676,-2.47,-2.4684,-2.4676,-2.47,-2.4582,-2.45,-2.45,-2.45,-2.4541,-2.466,-2.4804,-2.4981,-2.5113,-2.5138,-2.5182,-2.5303,-2.5308,-2.5308,-2.5308,-2.5308,-2.5308,-2.5308,-2.5308,-2.5308,-2.4791,-2.586,-2.6717,-2.7405,-2.6971,-2.6222,-2.5516,0.0,0.0,0.0,0.0,0.0,0.0,0.0,0.0,0.0,0.0,0.0,0.0,0.0,0.0,0.0,0.0,0.0,0.0,0.0,0.0,0.0,0.0,-3.4765,-3.4076,-3.3811,-3.3488,-3.3091,-3.2963,-3.3176,-3.3773,-3.3647,-3.3622,-3.3691,-3.3618,-3.3579,-3.3524,-3.3524,-3.3098,-3.242,0.0,-3.2078,-3.1397,-3.1397,-3.0925,-3.021,-3.021,-2.9702,-2.9005,-2.9005,-2.9005,-2.9005,-2.9005,-2.9005,-2.9005,-2.9005,-2.9005,-2.9005,-2.9005,-2.9005,-2.9005,-2.9005,-2.9005,-2.8968,-2.8858,-2.8227,-2.7431,-2.6623,-2.5856,-2.5113,-2.4395,-2.4284,-2.4339,-2.4339,-2.4339,-2.4348,-2.4412,-2.4421,-2.4438,-2.4491,-2.4525,-2.4574,-2.4684,-2.4607,-2.4574,-2.4692,-2.4582,-2.45,-2.45,-2.45,-2.4508,-2.4534,-2.4753,-2.5019,-2.5259,-2.5264,-2.5274,-2.5308,-2.5308,-2.5308,-2.5308,-2.5308,-2.5308,-2.5308,-2.5308,-2.5308,-2.386,-2.4657,-2.5287,-2.6935,-2.7091,-2.6753,-2.6373,0.0,0.0,0.0,0.0,0.0,0.0,0.0,0.0,0.0,0.0,0.0,0.0,0.0,0.0,0.0,0.0,0.0,0.0,0.0,0.0,0.0,0.0,0.0,-3.3512,-3.309,-3.284,-3.2797,-3.2795,-3.2988,-3.3411,-3.3393,-3.3408,-3.3452,-3.3408,-3.3408,-3.3452,-3.3452,-3.3059,-3.2388,0.0,-3.1411,-3.0723,-3.0283,-2.9886,-2.9537,-2.9537,-2.9335,-2.9005,-2.9005,-2.9005,-2.9005,-2.9005,-2.9005,-2.9005,-2.9005,-2.9005,-2.9005,-2.9005,-2.9005,-2.9005,-2.9005,-2.9005,-2.8895,-2.8455,-2.8081,-2.7603,-2.6796,-2.6379,-2.5923,-2.5076,-2.493,-2.481,-2.4386,-2.4294,-2.4321,-2.4339,-2.4348,-2.4367,-2.4438,-2.4447,-2.4491,-2.4582,-2.4551,-2.4525,-2.459,-2.4542,-2.45,-2.45,-2.45,-2.45,-2.45,-2.4673,-2.484,-2.4968,-2.5115,-2.5187,-2.5187,-2.5259,-2.5308,-2.5308,-2.5308,-2.5308,-2.5308,-2.5308,-2.5308,-2.2737,-2.3433,-2.4035,-2.6224,0.0,-2.6977,-2.7538,0.0,0.0,0.0,0.0,0.0,0.0,0.0,0.0,0.0,0.0,0.0,0.0,0.0,0.0,0.0,0.0,0.0,0.0,0.0,0.0,0.0,0.0,0.0,-3.2963,-3.2387,-3.2231,-3.2666,-3.2682,-3.291,-3.3411,-3.3393,-3.3393,-3.3393,-3.3393,-3.3393,-3.3393,-3.3194,-3.274,-3.2051,-3.1258,-3.0532,-2.9855,-2.9262,-2.9005,-2.9005,-2.9005,-2.9005,-2.9005,-2.9005,-2.9005,-2.9005,-2.9005,-2.9005,-2.9005,-2.9005,-2.9005,-2.9005,-2.9005,-2.9005,-2.9005,-2.9005,-2.9005,-2.8858,-2.8246,-2.8081,-2.7879,-2.7071,-2.692,-2.6694,-2.5692,-2.5619,-2.5455,-2.4459,-2.4432,-2.4506,-2.4312,-2.4275,-2.4294,-2.4376,-2.4385,-2.4403,-2.4474,-2.4474,-2.4482,-2.45,-2.45,-2.45,-2.45,-2.45,-2.45,-2.45,-2.4639,-2.4704,-2.4742,-2.4929,-2.5061,-2.509,-2.5192,-2.5264,-2.5308,-2.5308,-2.5308,-2.5308,-2.5308,-2.5308,-2.1224,-2.218,-2.3097,-2.475,-2.5177,0.0,-2.7927,-2.7223,0.0,-2.9065,0.0,0.0,0.0,0.0,0.0,0.0,0.0,0.0,0.0,0.0,0.0,0.0,0.0,0.0,0.0,0.0,0.0,0.0,0.0,0.0,-3.1356,-3.1305,-3.16,-3.2317,-3.2351,-3.2685,-3.3393,-3.3393,-3.3393,-3.3393,-3.3393,-3.3393,-3.3375,-3.2632,-3.1896,-3.1152,-3.0407,-2.9667,-2.899,-2.9,-2.9005,-2.9005,-2.9005,-2.9005,-2.9005,-2.9005,-2.9005,-2.9005,-2.9005,-2.9005,-2.9005,-2.9005,-2.9005,-2.9005,-2.9005,-2.9005,-2.9005,-2.9005,-2.9005,-2.8987,-2.8932,-2.8913,-2.8712,-2.7897,-2.7725,-2.7302,-2.5733,-2.598,-2.6072,-2.4511,-2.4815,-2.5082,-2.4348,-2.421,-2.422,-2.4294,-2.4312,-2.433,-2.4403,-2.4412,-2.443,-2.4491,-2.45,-2.45,-2.45,-2.45,-2.45,-2.45,-2.4639,-2.4757,-2.4881,-2.4908,-2.4962,-2.5109,-2.5121,-2.5171,-2.5308,-2.5308,-2.5308,-2.5308,-2.5308,-2.5308,-2.1061,-2.2044,-2.2968,-2.4485,-2.4882,0.0,0.0,-2.7965,-2.8085,0.0,0.0,0.0,0.0,0.0,0.0,0.0,0.0,0.0,0.0,0.0,0.0,0.0,0.0,0.0,0.0,0.0,0.0,0.0,0.0,0.0,-3.119,-3.119,-3.1542,-3.2283,-3.23,-3.2635,-3.3393,-3.3393,-3.3393,-3.3393,-3.3393,-3.3393,-3.3375,-3.256,-3.2077,-3.1783,-3.0534,-2.988,-2.9612,-2.9184,-2.9005,-2.9005,-2.9005,-2.9005,-2.9005,-2.9005,-2.9005,-2.9005,-2.9005,-2.9005,-2.9005,-2.9005,-2.9005,-2.9005,-2.9005,-2.9005,-2.9005,-2.9005,-2.9005,-2.9005,-2.9005,-2.9005,-2.8932,-2.862,-2.8546,-2.8246,-2.7137,-2.7126,-2.6869,-2.5264,-2.5191,-2.5146,-2.4347,-2.42,-2.4209,-2.422,-2.4247,-2.4266,-2.433,-2.4339,-2.4358,-2.443,-2.4474,-2.45,-2.45,-2.45,-2.45,-2.45,-2.4541,-2.4607,-2.4653,-2.4727,-2.4808,-2.4847,-2.4923,-2.5006,-2.5056,-2.5138,-2.5171,-2.5176,-2.5259,-2.5308,-2.1206,-2.2217,-2.3285,-2.4557,0.0,0.0,-2.7841,-2.838,-2.8919,0.0,0.0,0.0,0.0,0.0,0.0,0.0,0.0,0.0,0.0,0.0,0.0,0.0,0.0,0.0,0.0,0.0,0.0,0.0,0.0,0.0,0.0,-3.119,-3.1485,-3.2092,-3.2109,-3.2469,-3.3193,-3.3208,-3.3271,-3.3393,-3.3393,-3.3266,-3.2995,-3.1926,-3.1479,-3.1443,-3.0163,-2.9624,-2.9661,-2.9178,-2.8982,-2.9005,-2.9005,-2.9005,-2.9005,-2.9005,-2.9005,-2.9005,-2.9005,-2.9005,-2.9005,-2.9005,-2.9005,-2.9005,-2.9005,-2.9005,-2.9005,-2.9005,-2.9005,-2.9005,-2.9005,-2.9005,-2.9005,-2.9005,-2.9005,-2.8785,-2.797,-2.7989,-2.7622,-2.576,-2.5613,-2.5448,-2.4373,-2.419,-2.4199,-2.4191,-2.4201,-2.4219,-2.4266,-2.4266,-2.4284,-2.4358,-2.443,-2.4474,-2.4474,-2.4491,-2.45,-2.45,-2.45,-2.45,-2.45,-2.459,-2.4653,-2.47,-2.4794,-2.4854,-2.4902,-2.4981,-2.505,-2.5031,-2.5171,-2.5238,-2.1514,-2.2624,-2.3985,0.0,0.0,0.0,-2.7854,-2.834,0.0,0.0,0.0,0.0,0.0,0.0,0.0,0.0,0.0,0.0,0.0,0.0,0.0,0.0,0.0,0.0,0.0,0.0,0.0,0.0,0.0,0.0,0.0,-3.119,-3.1351,-3.1677,-3.1695,-3.2056,-3.2795,-3.2795,-3.3003,-3.3393,-3.3375,-3.2958,-3.2144,-3.0545,-2.9802,-2.9748,-2.9014,-2.8749,-2.8798,-2.8881,-2.894,-2.9005,-2.9005,-2.9005,-2.9005,-2.9005,-2.9005,-2.9005,-2.9005,-2.9005,-2.9005,-2.9005,-2.9005,-2.9005,-2.9005,-2.9005,-2.9005,-2.9005,-2.9005,-2.9005,-2.9005,-2.9005,-2.9005,-2.9005,-2.9005,-2.8785,-2.797,-2.8436,-2.829,-2.5888,-2.6043,-2.6098,-2.4483,-2.419,-2.419,-2.419,-2.419,-2.4209,-2.4192,-2.4201,-2.4238,-2.4284,-2.4358,-2.4403,-2.4403,-2.4465,-2.45,-2.45,-2.45,-2.45,-2.45,-2.45,-2.4557,-2.47,-2.47,-2.4764,-2.4902,-2.4902,-2.4902,-2.4902,-2.505,-2.5109,-2.1514,-2.2586,0.0,0.0,0.0,0.0,0.0,0.0,0.0,0.0,0.0,0.0,0.0,0.0,0.0,0.0,0.0,0.0,0.0,0.0,0.0,0.0,0.0,0.0,0.0,0.0,0.0,0.0,0.0,0.0,0.0,-3.0717,-3.0823,-3.166,-3.1695,-3.2056,-3.2795,-3.2795,-3.2717,-3.2542,-3.1981,-3.1872,-3.2162,-3.1125,-3.0346,-2.9748,-2.9014,-2.8706,-2.8749,-2.8839,-2.894,-2.9005,-2.9005,-2.9005,-2.9005,-2.9005,-2.9005,-2.9005,-2.9005,-2.9005,-2.9005,-2.9005,-2.9005,-2.9005,-2.9005,-2.9005,-2.9005,-2.9005,-2.9005,-2.9005,-2.9005,-2.9005,-2.9005,-2.9005,-2.9005,-2.8932,-2.8693,-2.8822,-2.8455,-2.6594,-2.6447,-2.6098,-2.4483,-2.419,-2.419,-2.419,-2.419,-2.4199,-2.419,-2.4201,-2.421,-2.422,-2.4284,-2.433,-2.433,-2.4348,-2.4375,-2.443,-2.443,-2.4447,-2.45,-2.45,-2.4525,-2.4557,-2.4557,-2.4582,-2.4621,-2.4704,-2.4757,-2.4764,-2.4902,-2.4968,-2.2727,-2.3782,0.0,0.0,0.0,0.0,0.0,0.0,0.0,0.0,0.0,0.0,0.0,0.0,0.0,0.0,0.0,0.0,0.0,0.0,0.0,0.0,0.0,0.0,0.0,0.0,0.0,0.0,0.0,0.0,0.0,-3.0176,-3.0389,-3.1042,-3.1352,-3.1703,-3.2125,-3.2107,-3.2005,-3.1709,-3.122,-3.1089,-3.1234,-3.0405,-2.9771,-2.93,-2.8912,-2.8749,-2.8749,-2.8858,-2.894,-2.8994,-2.8964,-2.8982,-2.9005,-2.9005,-2.9005,-2.9005,-2.9005,-2.9005,-2.9005,-2.9005,-2.9005,-2.9005,-2.9005,-2.9005,-2.9005,-2.9005,-2.9005,-2.9005,-2.9005,-2.9005,-2.9005,-2.9005,-2.9005,-2.9005,-2.9005,-2.9005,-2.862,-2.7328,-2.709,-2.6576,-2.4952,-2.4677,-2.4566,-2.4245,-2.419,-2.4318,-2.464,-2.4678,-2.4798,-2.5129,-2.5205,-2.5114,-2.4801,-2.4783,-2.4654,-2.4367,-2.4394,-2.4421,-2.4456,-2.4491,-2.45,-2.45,-2.45,-2.45,-2.45,-2.4582,-2.4631,-2.4613,-2.4757,-2.4811,-2.432,0.0,0.0,0.0,0.0,0.0,0.0,0.0,0.0,0.0,0.0,0.0,0.0,0.0,0.0,0.0,0.0,0.0,0.0,0.0,0.0,0.0,0.0,0.0,0.0,0.0,0.0,0.0,0.0,0.0,0.0,-2.9567,-2.9937,-3.0108,-3.0683,-3.1026,-3.1093,-3.1022,-3.0953,-3.0889,-3.0862,-3.0414,-2.9618,-2.8998,-2.8672,-2.86,-2.87,-2.8761,-2.8785,-2.8815,-2.8905,-2.8975,-2.8917,-2.894,-2.9005,-2.8994,-2.8994,-2.9005,-2.9005,-2.9005,-2.9005,-2.9005,-2.9005,-2.9005,-2.9005,-2.9005,-2.9005,-2.9005,-2.9005,-2.9005,-2.9005,-2.9005,-2.9005,-2.9005,-2.9005,-2.9005,-2.9005,-2.9005,-2.8767,-2.7952,-2.7798,-2.7321,-2.576,-2.5503,-2.5264,-2.452,-2.4355,-2.4603,-2.5411,-2.5503,-2.5797,-2.6521,-2.6644,-2.6381,-2.5665,-2.5538,-2.517,-2.445,-2.4385,-2.4394,-2.4403,-2.4465,-2.45,-2.45,-2.45,-2.45,-2.45,-2.45,-2.45,-2.45,-2.4631,-2.4684,0.0,-2.3252,0.0,0.0,0.0,0.0,0.0,0.0,0.0,0.0,0.0,0.0,0.0,0.0,0.0,0.0,0.0,0.0,0.0,0.0,0.0,0.0,0.0,0.0,0.0,0.0,0.0,0.0,0.0,0.0,-2.8976,-2.8552,-2.8838,-3.0055,-2.9685,-3.0,-3.1092,-3.0529,-3.0168,0.0,-2.979,-2.9249,-2.8479,-2.9209,-2.9192,-2.8587,-2.8352,-2.843,-2.8694,-2.8456,-2.857,-2.8917,-2.8846,-2.8881,-2.8994,-2.894,-2.8952,-2.9005,-2.9005,-2.9005,-2.9005,-2.9005,-2.9005,-2.9005,-2.9005,-2.9005,-2.9005,-2.9005,-2.9005,-2.9005,-2.9005,-2.9005,-2.9005,-2.9005,-2.9005,-2.9005,-2.9005,-2.9005,-2.8767,-2.7952,-2.7798,-2.7493,-2.6502,-2.6337,-2.6282,-2.6117,-2.5558,-2.5429,-2.6245,-2.6337,-2.641,-2.6583,-2.6612,-2.6549,-2.6384,-2.578,-2.5369,-2.5242,-2.4616,-2.4284,-2.4394,-2.4465,-2.45,-2.45,-2.45,-2.45,-2.45,-2.45,-2.45,-2.45,-2.4534,-2.4532,0.0,0.0,0.0,0.0,0.0,0.0,0.0,0.0,0.0,0.0,0.0,0.0,0.0,0.0,0.0,0.0,0.0,0.0,0.0,0.0,0.0,0.0,0.0,0.0,0.0,0.0,0.0,0.0,0.0,-2.7469,-2.7893,-2.7841,-2.8179,-2.8973,-2.8991,-2.9245,-2.9759,-2.9375,-2.9051,-2.8804,-2.8617,-2.8301,-2.7929,-2.8524,-2.8576,-2.8156,-2.8024,-2.8079,-2.8259,-2.8093,-2.8255,-2.862,-2.8533,-2.8688,-2.894,-2.8917,-2.894,-2.9005,-2.9005,-2.9005,-2.9005,-2.9005,-2.9005,-2.9005,-2.9005,-2.9005,-2.9005,-2.9005,-2.9005,-2.9005,-2.9005,-2.9005,-2.9005,-2.9005,-2.9005,-2.9005,-2.9005,-2.9005,-2.8877,-2.8466,-2.8374,-2.8117,-2.731,-2.6869,-2.6602,-2.6602,-2.6245,-2.6264,-2.7071,-2.7163,-2.7328,-2.7703,-2.7758,-2.7592,-2.7218,-2.6429,-2.5825,-2.5469,-2.4652,-2.422,-2.4294,-2.4393,-2.4465,-2.45,-2.45,-2.45,-2.45,-2.45,-2.45,-2.45,-2.45,-2.45,0.0,0.0,0.0,0.0,0.0,0.0,0.0,0.0,0.0,0.0,0.0,0.0,0.0,0.0,0.0,0.0,0.0,0.0,0.0,0.0,0.0,0.0,0.0,0.0,0.0,0.0,0.0,0.0,0.0,-2.6691,-2.6691,-2.7266,-2.7672,-2.7807,-2.8315,-2.8509,-2.8301,-2.8179,-2.7976,-2.7701,-2.7642,-2.758,-2.7519,-2.7519,-2.758,-2.7701,-2.7713,-2.7725,-2.7783,-2.7725,-2.7908,-2.8206,-2.8143,-2.8386,-2.8803,-2.8803,-2.8893,-2.8975,-2.8994,-2.9005,-2.9005,-2.9005,-2.9005,-2.9005,-2.9005,-2.9005,-2.9005,-2.9005,-2.9005,-2.9005,-2.9005,-2.9005,-2.9005,-2.9005,-2.9005,-2.9005,-2.9005,-2.9005,-2.9005,-2.9005,-2.9005,-2.8785,-2.8117,-2.7346,-2.6851,-2.6987,-2.6906,-2.7108,-2.7897,-2.8007,-2.8264,-2.8932,-2.9005,-2.873,-2.8062,-2.7145,-2.6319,-2.565,-2.4724,-2.4192,-2.4201,-2.4312,-2.4403,-2.4455,-2.4491,-2.45,-2.45,-2.45,-2.45,-2.45,-2.45,-2.45,0.0,0.0,0.0,0.0,0.0,0.0,0.0,0.0,0.0,0.0,0.0,0.0,0.0,0.0,0.0,0.0,0.0,0.0,0.0,0.0,0.0,0.0,0.0,0.0,0.0,0.0,0.0,0.0,-2.6691,-2.6691,-2.6691,-2.6793,-2.7148,-2.779,-2.7283,-2.7419,-2.83,-2.7662,-2.7473,-2.7701,-2.7415,-2.71,-2.6841,-2.6841,-2.7148,-2.7669,-2.7398,-2.7444,-2.7683,-2.7398,-2.7502,-2.7851,-2.78,-2.8024,-2.8376,-2.8376,-2.862,-2.8917,-2.8982,-2.9005,-2.9005,-2.9005,-2.9005,-2.9005,-2.9005,-2.9005,-2.9005,-2.9005,-2.9005,-2.9005,-2.9005,-2.9005,-2.9005,-2.9005,-2.9005,-2.9005,-2.9005,-2.9005,-2.9005,-2.9005,-2.9005,-2.8968,-2.8858,-2.8172,-2.7879,-2.8565,-2.8099,-2.7934,-2.873,-2.884,-2.8877,-2.8987,-2.9005,-2.8968,-2.8858,-2.7464,-2.6547,-2.6447,-2.5026,-2.42,-2.4201,-2.421,-2.4266,-2.433,-2.4429,-2.45,-2.45,-2.45,-2.45,-2.45,-2.45,-2.45,-2.1434,0.0,0.0,0.0,0.0,0.0,0.0,0.0,0.0,0.0,0.0,0.0,0.0,0.0,0.0,0.0,0.0,0.0,0.0,0.0,0.0,0.0,0.0,0.0,0.0,0.0,0.0,0.0,-2.6691,-2.6691,-2.6691,-2.6691,-2.6843,-2.7182,-2.686,-2.6927,-2.7401,-2.7077,-2.6988,-2.7132,-2.6988,-2.6841,-2.6691,-2.6691,-2.6857,-2.7132,-2.6989,-2.6988,-2.7132,-2.6989,-2.7132,-2.7459,-2.7428,-2.7666,-2.8047,-2.8197,-2.8394,-2.8658,-2.8863,-2.8964,-2.9005,-2.9005,-2.9005,-2.9005,-2.9005,-2.9005,-2.9005,-2.9005,-2.9005,-2.9005,-2.9005,-2.9005,-2.9005,-2.9005,-2.9005,-2.9005,-2.9005,-2.9005,-2.9005,-2.9005,-2.9005,-2.9005,-2.9005,-2.8712,-2.8583,-2.895,-2.8693,-2.8601,-2.895,-2.9005,-2.9005,-2.9005,-2.9005,-2.9005,-2.9005,-2.7952,-2.709,-2.662,-2.5511,-2.4668,-2.4218,-2.467,-2.4717,-2.4247,-2.4375,-2.4447,-2.4447,-2.4482,-2.45,-2.45,-2.45,-2.45,0.0,0.0,0.0,0.0,0.0,0.0,0.0,0.0,0.0,0.0,0.0,0.0,0.0,0.0,0.0,0.0,0.0,0.0,0.0,0.0,0.0,0.0,0.0,0.0,0.0,0.0,0.0,0.0,-2.6522,-2.6488,-2.6691,-2.6691,-2.6691,-2.6691,-2.6691,-2.6691,-2.6691,-2.6691,-2.6691,-2.6691,-2.6691,-2.6691,-2.6691,-2.6691,-2.6691,-2.6691,-2.6691,-2.6691,-2.6691,-2.6691,-2.6858,-2.7069,-2.7069,-2.7305,-2.7681,-2.7908,-2.817,-2.842,-2.8725,-2.8905,-2.9005,-2.9005,-2.9005,-2.9005,-2.9005,-2.894,-2.8893,-2.8893,-2.8893,-2.8893,-2.8893,-2.894,-2.9005,-2.9005,-2.9005,-2.9005,-2.9005,-2.9005,-2.9005,-2.9005,-2.9005,-2.9005,-2.9005,-2.9005,-2.9005,-2.9005,-2.9005,-2.9005,-2.9005,-2.9005,-2.9005,-2.9005,-2.9005,-2.9005,-2.9005,-2.8264,-2.753,-2.6943,-2.6153,-2.5448,-2.4832,-2.5423,-2.5479,-2.4826,-2.493,-2.4774,-2.4367,-2.4447,-2.4474,-2.4474,-2.4491,-2.4611,0.0,0.0,0.0,0.0,0.0,0.0,0.0,0.0,0.0,0.0,0.0,0.0,0.0,0.0,0.0,0.0,0.0,0.0,0.0,0.0,0.0,0.0,0.0,0.0,0.0,0.0,0.0,0.0,-2.6048,-2.5964,-2.6657,-2.6691,-2.6691,-2.6691,-2.6691,-2.6691,-2.6691,-2.6691,-2.6691,-2.6691,-2.6691,-2.6691,-2.6691,-2.6691,-2.6691,-2.6691,-2.6691,-2.6691,-2.6691,-2.6691,-2.6708,-2.6725,-2.6725,-2.694,-2.726,-2.7396,-2.7805,-2.8324,-2.8533,-2.8779,-2.9005,-2.9005,-2.9005,-2.9005,-2.9005,-2.8815,-2.8614,-2.8614,-2.8614,-2.8614,-2.8614,-2.8803,-2.9005,-2.9005,-2.9005,-2.9005,-2.9005,-2.9005,-2.9005,-2.9005,-2.9005,-2.9005,-2.9005,-2.9005,-2.9005,-2.9005,-2.9005,-2.9005,-2.9005,-2.9005,-2.9005,-2.9005,-2.9005,-2.9005,-2.9005,-2.8264,-2.778,-2.7732,-2.6979,-2.6521,-2.6484,-2.6521,-2.6521,-2.6484,-2.6536,-2.5832,-2.4312,-2.4367,-2.4403,-2.4412,-2.4474,-2.4908,0.0,0.0,0.0,0.0,0.0,0.0,0.0,0.0,0.0,0.0,0.0,0.0,0.0,0.0,0.0,0.0,0.0,0.0,0.0,0.0,0.0,0.0,0.0,0.0,0.0,0.0,0.0,0.0,0.0,-2.642,-2.6691,-2.6691,-2.6691,-2.6691,-2.6691,-2.6691,-2.6691,-2.6691,-2.6691,-2.6691,-2.6691,-2.6691,-2.6691,-2.6691,-2.6691,-2.6691,-2.6691,-2.6691,-2.6691,-2.6691,-2.6691,-2.6691,-2.6691,-2.6775,-2.6907,-2.7164,-2.7441,-2.7704,-2.8051,-2.8242,-2.8365,-2.8399,-2.8425,-2.8425,-2.8425,-2.836,-2.8281,-2.8281,-2.8443,-2.8601,-2.8601,-2.8791,-2.9005,-2.9005,-2.9005,-2.9005,-2.9005,-2.9005,-2.9005,-2.9005,-2.9005,-2.9005,-2.9005,-2.9005,-2.9005,-2.9005,-2.9005,-2.9005,-2.9005,-2.9005,-2.9005,-2.9005,-2.9005,-2.9005,-2.9005,-2.873,-2.8356,-2.7835,-2.753,-2.7145,-2.662,-2.7108,-2.7126,-2.6602,-2.7129,-2.6885,-2.584,-2.592,-2.594,-2.594,-2.6005,-2.6182,-1.9947,0.0,0.0,0.0,0.0,0.0,0.0,0.0,0.0,0.0,0.0,0.0,0.0,0.0,0.0,0.0,0.0,0.0,0.0,0.0,0.0,0.0,0.0,0.0,0.0,0.0,0.0,0.0,0.0,0.0,-2.5963,-2.5963,-2.5963,-2.5963,-2.6201,-2.6336,-2.6336,-2.6573,-2.6691,-2.6691,-2.6437,-2.6336,-2.6336,-2.6336,-2.6336,-2.6336,-2.659,-2.6691,-2.6691,-2.6691,-2.6691,-2.6691,-2.6691,-2.6691,-2.6725,-2.7006,-2.7181,-2.7332,-2.7619,-2.7855,-2.801,-2.8047,-2.8075,-2.8102,-2.8102,-2.8034,-2.7968,-2.7968,-2.8188,-2.843,-2.843,-2.87,-2.9005,-2.9005,-2.9005,-2.9005,-2.9005,-2.9005,-2.9005,-2.9005,-2.9005,-2.9005,-2.9005,-2.9005,-2.9005,-2.9005,-2.9005,-2.9005,-2.9005,-2.9005,-2.9005,-2.9005,-2.9005,-2.9005,-2.9005,-2.9005,-2.8767,-2.8246,-2.8209,-2.797,-2.7427,-2.7915,-2.7952,-2.7427,-2.7934,-2.7963,-2.7463,-2.7007,-2.6772,-2.6772,-2.685,-2.7037,0.0,0.0,0.0,0.0,0.0,0.0,0.0,0.0,0.0,0.0,0.0,0.0,0.0,0.0,0.0,0.0,0.0,0.0,0.0,0.0,0.0,0.0,0.0,0.0,0.0,0.0,0.0,0.0,-2.3848,-2.378,-2.4457,-2.4491,-2.4491,-2.4491,-2.5186,-2.5575,-2.5575,-2.6285,-2.664,-2.6657,-2.593,-2.5592,-2.5626,-2.5609,-2.5609,-2.566,-2.6387,-2.6691,-2.6691,-2.6691,-2.6691,-2.6691,-2.6691,-2.6691,-2.6725,-2.6842,-2.7054,-2.7303,-2.7348,-2.7634,-2.7968,-2.7968,-2.8024,-2.8057,-2.8075,-2.7897,-2.7686,-2.7686,-2.7883,-2.8102,-2.8116,-2.8558,-2.9005,-2.9005,-2.9005,-2.9005,-2.9005,-2.9005,-2.9005,-2.9005,-2.9005,-2.9005,-2.9005,-2.9005,-2.9005,-2.9005,-2.9005,-2.9005,-2.9005,-2.9005,-2.9005,-2.9005,-2.8994,-2.8994,-2.8994,-2.8982,-2.8964,-2.8964,-2.8964,-2.8982,-2.8994,-2.8994,-2.8994,-2.8994,-2.8994,-2.8994,-2.8975,-2.7498,-2.6777,-2.6777,-2.6914,-2.739,-1.9297,0.0,0.0,0.0,0.0,0.0,0.0,0.0,0.0,0.0,0.0,0.0,0.0,0.0,0.0,0.0,0.0,0.0,0.0,0.0,0.0,0.0,0.0,0.0,0.0,0.0,0.0,0.0,-2.4509,-2.4847,-2.4508,-2.4491,-2.4491,-2.4491,-2.4694,-2.4795,-2.4795,-2.5015,-2.5388,-2.5896,-2.5152,-2.5371,-2.637,-2.5845,-2.5896,-2.6404,-2.6607,-2.6691,-2.6691,-2.6691,-2.6691,-2.6691,-2.6691,-2.6691,-2.6691,-2.6742,-2.6858,-2.7006,-2.7039,-2.7135,-2.7293,-2.7321,-2.7367,-2.7398,-2.7494,-2.7465,-2.7405,-2.7405,-2.7615,-2.7897,-2.8352,-2.8743,-2.9005,-2.9005,-2.9005,-2.9005,-2.9005,-2.9005,-2.9005,-2.9005,-2.9005,-2.9005,-2.9005,-2.9005,-2.9005,-2.9005,-2.9005,-2.9005,-2.9005,-2.9005,-2.9005,-2.9005,-2.8834,-2.8718,-2.8718,-2.8495,-2.836,-2.836,-2.836,-2.8469,-2.8706,-2.8718,-2.8718,-2.8718,-2.8905,-2.8905,-2.8718,-2.8528,-2.8463,-2.8505,-2.8639,-2.882,0.0,0.0,0.0,0.0,0.0,0.0,0.0,-2.1067,0.0,0.0,0.0,0.0,0.0,0.0,0.0,0.0,0.0,0.0,0.0,0.0,0.0,0.0,0.0,0.0,0.0,-2.3071,-2.3393,-2.297,-2.3748,-2.4052,-2.3611,-2.3579,-2.3579,-2.3579,-2.3881,-2.4051,-2.4051,-2.4355,-2.4728,-2.5118,-2.4389,-2.4491,-2.5321,-2.5203,-2.5372,-2.5828,-2.6437,-2.6691,-2.6691,-2.6691,-2.6691,-2.6691,-2.6691,-2.6691,-2.6691,-2.6691,-2.6742,-2.6809,-2.6809,-2.6876,-2.6958,-2.7039,-2.7055,-2.7087,-2.725,-2.7266,-2.7233,-2.7282,-2.7496,-2.7829,-2.843,-2.8718,-2.887,-2.8964,-2.9005,-2.9005,-2.9005,-2.9005,-2.9005,-2.9005,-2.9005,-2.9005,-2.9005,-2.9005,-2.9005,-2.9005,-2.8905,-2.8881,-2.8994,-2.8791,-2.8676,-2.8822,-2.8576,-2.8386,-2.8386,-2.821,-2.8102,-2.8102,-2.8102,-2.8183,-2.8373,-2.8386,-2.8386,-2.8386,-2.8545,-2.8545,-2.8386,-2.8875,-2.9152,-2.924,-2.9294,-2.9326,-2.0639,-2.0639,0.0,0.0,0.0,0.0,-2.1312,-2.0947,0.0,0.0,0.0,0.0,0.0,0.0,0.0,0.0,0.0,0.0,0.0,0.0,0.0,0.0,0.0,0.0,-2.2324,-2.2364,-2.2381,-2.2296,-2.2296,-2.2296,-2.2296,-2.2296,-2.2296,-2.2296,-2.2936,-2.3274,-2.3274,-2.3932,-2.4305,-2.4372,-2.363,-2.3359,-2.3528,-2.4118,-2.4474,-2.4694,-2.5998,-2.6623,-2.6691,-2.6691,-2.6691,-2.6691,-2.6691,-2.6691,-2.6691,-2.6691,-2.6708,-2.6725,-2.6708,-2.6792,-2.6909,-2.6975,-2.6975,-2.7007,-2.7202,-2.7201,-2.7135,-2.7266,-2.7496,-2.7829,-2.8391,-2.8576,-2.8669,-2.8929,-2.9005,-2.9005,-2.9005,-2.9005,-2.9005,-2.9005,-2.9005,-2.9005,-2.9005,-2.9005,-2.9005,-2.9005,-2.881,-2.8718,-2.8929,-2.8495,-2.8268,-2.8525,-2.8255,-2.8061,-2.8061,-2.8034,-2.8006,-2.8006,-2.8006,-2.802,-2.8061,-2.8061,-2.8061,-2.8061,-2.8061,-2.8075,-2.8102,-2.8707,-2.9067,-2.9186,-2.9156,-2.9178,-2.1555,-2.1555,-2.1427,-2.0878,0.0,0.0,-2.0034,-2.0154,-2.0586,0.0,0.0,0.0,0.0,0.0,0.0,0.0,0.0,0.0,0.0,0.0,0.0,0.0,0.0,0.0,-2.2338,-2.2835,-2.2936,-2.233,-2.2296,-2.2296,-2.2296,-2.2296,-2.2296,-2.2296,-2.2431,-2.2499,-2.2499,-2.2665,-2.3038,-2.3611,-2.2868,-2.3139,-2.4271,-2.3831,-2.4255,-2.5406,-2.5693,-2.615,-2.6691,-2.6691,-2.6691,-2.6691,-2.6691,-2.6691,-2.6691,-2.6691,-2.6758,-2.6842,-2.6742,-2.6792,-2.6893,-2.6926,-2.6926,-2.6942,-2.7041,-2.7071,-2.7135,-2.7266,-2.7496,-2.7771,-2.8102,-2.8404,-2.8669,-2.8929,-2.9005,-2.9005,-2.9005,-2.9005,-2.9005,-2.9005,-2.9005,-2.9005,-2.9005,-2.9005,-2.9005,-2.9005,-2.897,-2.887,-2.8706,-2.8576,-2.843,-2.821,-2.7954,-2.7786,-2.7786,-2.7585,-2.7467,-2.7467,-2.7467,-2.7539,-2.7771,-2.7786,-2.7786,-2.7786,-2.7786,-2.7883,-2.8102,-2.8277,-2.8399,-2.8425,-2.8682,-2.8802,-2.2391,-2.2391,-2.2299,-2.1868,0.0,0.0,0.0,-2.0858,-2.1272,-2.1667,0.0,0.0,0.0,0.0,0.0,0.0,0.0,0.0,0.0,0.0,0.0,0.0,0.0,0.0,-2.2391,-2.2646,-2.2699,-2.233,-2.2296,-2.2296,-2.2296,-2.2296,-2.2296,-2.2296,-2.2296,-2.2296,-2.2296,-2.2296,-2.2496,-2.2852,-2.2482,-2.2699,-2.3393,-2.3393,-2.4002,-2.5067,-2.5439,-2.6031,-2.6691,-2.6691,-2.6691,-2.6691,-2.6691,-2.6691,-2.6691,-2.6691,-2.6742,-2.6792,-2.6725,-2.6742,-2.6809,-2.6893,-2.6842,-2.6825,-2.6958,-2.7039,-2.7135,-2.7266,-2.739,-2.7554,-2.7826,-2.8134,-2.843,-2.8731,-2.8905,-2.9005,-2.9005,-2.8893,-2.8791,-2.8791,-2.8663,-2.8651,-2.894,-2.9005,-2.894,-2.8815,-2.8663,-2.8507,-2.836,-2.811,-2.7947,-2.7897,-2.7657,-2.7496,-2.7496,-2.7392,-2.7299,-2.7299,-2.7299,-2.736,-2.7496,-2.7496,-2.7496,-2.7496,-2.7496,-2.7569,-2.7701,-2.7745,-2.7915,-2.8197,-2.8337,-2.8428,0.0,0.0,0.0,0.0,0.0,-2.2978,0.0,0.0,0.0,-2.2666,0.0,0.0,0.0,0.0,0.0,0.0,0.0,0.0,0.0,0.0,0.0,0.0,0.0,0.0,0.0,-2.2217,-2.2158,-2.2279,-2.2161,-2.2158,-2.2296,-2.2296,-2.2296,-2.2296,-2.2296,-2.2296,-2.2296,-2.2296,-2.2296,-2.2296,-2.2296,-2.2296,-2.2313,-2.2919,-2.3663,-2.4525,-2.5118,-2.5879,-2.6691,-2.6691,-2.6691,-2.6691,-2.6691,-2.6691,-2.6691,-2.6691,-2.6691,-2.6691,-2.6691,-2.6691,-2.6725,-2.6842,-2.6792,-2.6742,-2.6942,-2.7039,-2.7103,-2.7266,-2.7299,-2.736,-2.7627,-2.7855,-2.8102,-2.843,-2.8767,-2.897,-2.8851,-2.8694,-2.8551,-2.8507,-2.8295,-2.8295,-2.8827,-2.8917,-2.8858,-2.8626,-2.836,-2.8156,-2.8034,-2.7642,-2.7452,-2.7615,-2.7436,-2.7299,-2.7299,-2.7299,-2.7299,-2.7299,-2.7299,-2.7299,-2.7299,-2.7299,-2.7299,-2.7299,-2.7299,-2.7299,-2.7299,-2.7299,-2.7557,-2.8024,-2.802,-2.8047,0.0,0.0,0.0,0.0,-2.3547,0.0,0.0,0.0,-2.2685,-2.2069,0.0,0.0,0.0,0.0,0.0,0.0,0.0,0.0,0.0,0.0,0.0,0.0,0.0,0.0,0.0,-2.1756,-2.1597,-2.2245,-2.1684,-2.1613,-2.2262,-2.2296,-2.2296,-2.2296,-2.2296,-2.2296,-2.2296,-2.2296,-2.2296,-2.2296,-2.2296,-2.2296,-2.2296,-2.2381,-2.3173,-2.4491,-2.4592,-2.5405,-2.6691,-2.6691,-2.6691,-2.6691,-2.6691,-2.6691,-2.6691,-2.6691,-2.6691,-2.6691,-2.6691,-2.6691,-2.6691,-2.6725,-2.6708,-2.6742,-2.6942,-2.7007,-2.704,-2.7251,-2.7299,-2.736,-2.7627,-2.7713,-2.7815,-2.8088,-2.8583,-2.8851,-2.8321,-2.8321,-2.836,-2.8183,-2.8129,-2.8228,-2.8576,-2.8657,-2.8644,-2.8601,-2.8576,-2.8352,-2.7815,-2.7701,-2.7569,-2.7376,-2.7313,-2.7299,-2.7299,-2.7299,-2.7299,-2.7299,-2.7299,-2.7299,-2.7299,-2.7299,-2.7299,-2.7299,-2.7299,-2.7299,-2.7299,-2.7299,-2.7329,-2.7405,-2.7644,-2.7742,0.0,0.0,0.0,0.0,0.0,0.0,-2.3355,0.0,-2.3612,0.0,0.0,0.0,0.0,0.0,0.0,0.0,0.0,0.0,0.0,0.0,0.0,0.0,0.0,0.0,0.0,0.0,0.0,0.0,-2.1617,-2.1529,-2.2245,-2.2296,-2.2296,-2.2296,-2.2296,-2.2296,-2.2296,-2.2296,-2.2296,-2.2296,-2.2296,-2.2296,-2.2296,-2.2296,-2.2868,-2.3864,-2.3864,-2.4457,-2.5422,-2.5422,-2.5422,-2.5422,-2.5422,-2.5946,-2.664,-2.6218,-2.6336,-2.664,-2.6201,-2.6336,-2.6691,-2.6691,-2.6691,-2.6725,-2.6892,-2.6942,-2.6992,-2.7153,-2.7184,-2.7231,-2.7419,-2.7585,-2.7745,-2.7826,-2.8188,-2.8412,-2.8156,-2.8034,-2.7971,-2.7883,-2.7742,-2.773,-2.8027,-2.8201,-2.8255,-2.811,-2.8083,-2.7929,-2.7526,-2.7465,-2.7421,-2.7297,-2.7299,-2.7299,-2.7299,-2.7299,-2.7299,-2.7299,-2.7299,-2.7299,-2.7299,-2.7299,-2.7299,-2.7299,-2.7299,-2.7299,-2.7299,-2.7299,-2.7299,-2.7297,-2.7421,-2.7465,-2.419,0.0,0.0,0.0,0.0,0.0,0.0,0.0,0.0,0.0,0.0,0.0,0.0,0.0,0.0,0.0,0.0,0.0,0.0,0.0,0.0,0.0,0.0,0.0,0.0,0.0,0.0,0.0,0.0,-2.1295,-2.2245,-2.2296,-2.2296,-2.2296,-2.2296,-2.2296,-2.2296,-2.2296,-2.2296,-2.2296,-2.2296,-2.2296,-2.2296,-2.2296,-2.2699,-2.3393,-2.3393,-2.3831,-2.4491,-2.4491,-2.4491,-2.4491,-2.4491,-2.5151,-2.6015,-2.5507,-2.5761,-2.6319,-2.5795,-2.6082,-2.6691,-2.6691,-2.6691,-2.6742,-2.6859,-2.6893,-2.6909,-2.7039,-2.7086,-2.7119,-2.7217,-2.7419,-2.76,-2.76,-2.78,-2.7964,-2.7897,-2.7786,-2.7686,-2.7615,-2.7436,-2.736,-2.7554,-2.7815,-2.7926,-2.7745,-2.7701,-2.7615,-2.7329,-2.7299,-2.7299,-2.7299,-2.7299,-2.7299,-2.7299,-2.7299,-2.7299,-2.7299,-2.7299,-2.7299,-2.7299,-2.7299,-2.7299,-2.7299,-2.7299,-2.7299,-2.7299,-2.7299,-2.7299,-2.7299,-2.7299,-2.7299,0.0,0.0,0.0,-2.419,0.0,0.0,0.0,0.0,-2.4201,0.0,0.0,0.0,0.0,0.0,0.0,0.0,0.0,0.0,0.0,0.0,0.0,0.0,0.0,0.0,0.0,0.0,0.0,0.0,0.0,0.0,-2.2212,-2.2296,-2.2296,-2.2296,-2.2296,-2.2296,-2.2296,-2.2296,-2.2296,-2.2296,-2.2296,-2.2296,-2.2296,-2.2296,-2.2699,-2.3393,-2.3393,-2.3831,-2.4491,-2.4491,-2.4491,-2.4491,-2.4491,-2.4525,-2.4558,-2.4541,-2.5,-2.5626,-2.5609,-2.6082,-2.6691,-2.6691,-2.6691,-2.6742,-2.6859,-2.6893,-2.6909,-2.6975,-2.7055,-2.7103,-2.7119,-2.7217,-2.7297,-2.7297,-2.7526,-2.7627,-2.7392,-2.7509,-2.7612,-2.736,-2.7315,-2.7297,-2.7297,-2.7542,-2.7716,-2.7701,-2.7701,-2.7615,-2.7329,-2.7299,-2.7299,-2.7299,-2.7299,-2.7299,-2.7299,-2.7299,-2.7299,-2.7299,-2.7299,-2.7299,-2.7299,-2.7299,-2.7299,-2.7299,-2.7299,-2.7299,-2.7299,-2.7299,-2.7299,-2.7299,-2.7299,-2.7299,0.0,0.0,-2.3896,-2.3714,0.0,0.0,0.0,0.0,0.0,0.0,0.0,0.0,0.0,0.0,0.0,0.0,0.0,0.0,0.0,0.0,0.0,0.0,0.0,0.0,0.0,0.0,0.0,0.0,-2.0615,0.0,0.0,-2.2296,-2.2296,-2.2296,-2.2296,-2.2296,-2.2296,-2.2296,-2.2296,-2.2296,-2.2296,-2.2296,-2.2296,-2.2296,-2.2446,-2.2682,-2.2682,-2.2818,-2.3038,-2.3038,-2.3038,-2.3038,-2.3038,-2.3038,-2.3105,-2.3594,-2.4237,-2.4948,-2.5439,-2.6082,-2.6691,-2.6691,-2.6691,-2.6708,-2.6742,-2.6758,-2.6792,-2.6892,-2.6975,-2.7023,-2.7023,-2.7104,-2.7168,-2.7168,-2.7246,-2.7308,-2.7297,-2.7376,-2.7405,-2.733,-2.7299,-2.7299,-2.7299,-2.7392,-2.7436,-2.7436,-2.7436,-2.7405,-2.7297,-2.7299,-2.7299,-2.7299,-2.7299,-2.7299,-2.7299,-2.7299,-2.7299,-2.7299,-2.7299,-2.7299,-2.7299,-2.7299,-2.7299,-2.7299,-2.7299,-2.7299,-2.7299,-2.7299,-2.7299,-2.7299,-2.7299,-2.7299,-2.3703,-2.366,0.0,-2.3437,-2.3533,0.0,-2.366,0.0,0.0,0.0,0.0,0.0,0.0,0.0,0.0,0.0,0.0,0.0,0.0,0.0,0.0,0.0,0.0,0.0,0.0,0.0,-2.0611,-2.1562,0.0,0.0,0.0,0.0,-2.2296,-2.2296,-2.2296,-2.2296,-2.2296,-2.2296,-2.2296,-2.2296,-2.2296,-2.2296,-2.2296,-2.2296,-2.2296,-2.2296,-2.2296,-2.2296,-2.2296,-2.2296,-2.2296,-2.2296,-2.2296,-2.2296,-2.2347,-2.2835,-2.3644,-2.4643,-2.5642,-2.6302,-2.6691,-2.6691,-2.6691,-2.6691,-2.6691,-2.6691,-2.6725,-2.6792,-2.6909,-2.6991,-2.6975,-2.7023,-2.7103,-2.7103,-2.7103,-2.7135,-2.7266,-2.7299,-2.7299,-2.7299,-2.7299,-2.7299,-2.7299,-2.7299,-2.7299,-2.7299,-2.7299,-2.7299,-2.7299,-2.7299,-2.7299,-2.7299,-2.7299,-2.7299,-2.7299,-2.7299,-2.7299,-2.7299,-2.7299,-2.7299,-2.7299,-2.7299,-2.7299,-2.7299,-2.7299,-2.7299,-2.7299,-2.7299,-2.7299,-2.7299,-2.7299,-2.7299]},{"header":{"parameterUnit":"m.s-1","parameterCategory":1,"la1":30.6,"la2":29.2853,"lo1":-89.7004,"lo2":-87.6739,"dy":0.0162,"dx":0.0183,"nx":112,"ny":82,"refTime":"2024-07-24T12:00:00:Z","depth":0,"parameterNumber":3,"parameterNumberName":"V-component_of_WINDS"},"data":[0.0,0.0,0.0,0.0,0.0,0.0,0.0,0.0,0.0,0.0,0.0,0.0,0.0,0.0,0.0,0.0,0.0,0.0,0.0,0.0,0.0,0.0,0.0,0.0,0.0,0.0,0.0,0.0,0.0,0.0,0.0,0.0,0.0,0.0,0.0,0.0,0.0,0.0,0.0,0.0,0.0,0.0,0.0,0.0,0.0,0.0,0.0,0.0,0.0,0.0,0.0,0.0,0.0,0.0,0.0,0.0,0.0,0.0,0.0,0.0,0.0,0.0,0.0,0.0,0.0,0.0,0.0,0.0,0.0,0.0,0.0,0.0,0.0,0.0,0.0,0.0,0.0,0.0,0.0,0.0,0.0,0.0,0.0,0.0,0.0,0.0,0.0,0.0,0.0,0.0,0.0,0.0,0.0,0.0,0.0,0.0,-0.0118,-0.0375,0.0,0.0,0.0,0.0,0.0,0.0,0.0,0.0,0.0,0.0,0.0,0.0,0.0,0.0,0.0,0.0,0.0,0.0,0.0,0.0,0.0,0.0,0.0,0.0,0.0,0.0,0.0,0.0,0.0,0.0,0.0,0.0,0.0,0.0,0.0,0.0,0.0,0.0,0.0,0.0,0.0,0.0,0.0,0.0,0.0,0.0,0.0,0.0,0.0,0.0,0.0,0.0,0.0,0.0,0.0,0.0,0.0,0.0,0.0,0.0,0.0,0.0,0.0,0.0,0.0,0.0,0.0,0.0,0.0,0.0,0.0,0.0,0.0,0.0,0.0,0.0,0.0,0.0,0.0,0.0,0.0,0.0,0.0,0.0,0.0,0.0,0.0,0.0,0.0,0.0,0.0,0.0,0.0,0.0,0.0,0.0,0.0,0.0,0.0,0.0,0.0,0.0,0.0,0.0,0.0,0.0,0.0,0.0,0.0,0.0,-0.0115,-0.0375,0.0,0.0,0.0,0.0,0.0,0.0,0.0,0.0,0.0,0.0,0.0,0.0,0.0,0.0,0.0,0.0,0.0,0.0,0.0,0.0,0.0,0.0,0.0,0.0,0.0,0.0,0.0,0.0,0.0,0.0,0.0,0.0,0.0,0.0,0.0,0.0,0.0,0.0,0.0,0.0,0.0,0.0,0.0,0.0,0.0,0.0,0.0,0.0,0.0,0.0,0.0,0.0,0.0,0.0,0.0,0.0,0.0,0.0,0.0,0.0,0.0,0.0,0.0,0.0,0.0,0.0,0.0,0.0,0.0,0.0,0.0,0.0,0.0,0.0,0.0,0.0,0.0,0.0,0.0,0.0,0.0,0.0,0.0,0.0,0.0,0.0,0.0,0.0,0.0,0.0,0.0,0.0,0.0,0.0,0.0,0.0,0.0,0.0,0.0,0.0,0.0,0.0,0.0,0.0,0.0,0.0,0.0,0.0,0.0,-0.009,-0.0227,-0.039,-0.0466,0.0,0.0,0.0,0.0,0.0,0.0,0.0,0.0,0.0,0.0,0.0,0.0,0.0,0.0,0.0,0.0,0.0,0.0,0.0,0.0,0.0,0.0,0.0,0.0,0.0,0.0,0.0,0.0,0.0,0.0,0.0,0.0,0.0,0.0,0.0,0.0,0.0,0.0,0.0,0.0,0.0,0.0,0.0,0.0,0.0,0.0,0.0,0.0,0.0,0.0,0.0,0.0,0.0,0.0,0.0,0.0,0.0,0.0,0.0,0.0,0.0,0.0,0.0,0.0,0.0,0.0,0.0,0.0,0.0,0.0,0.0,0.0,0.0,0.0,0.0,0.0,0.0,0.0,0.0,0.0,0.0,0.0,0.0,0.0,0.0,0.0,0.0,0.0,0.0,0.0,0.0,0.0,0.0,0.0,0.0,0.0,0.0,0.0,0.0,0.0,0.0,0.0,0.0,0.0,0.0,0.0,0.0,0.0,-0.0145,-0.0278,-0.038,-0.0492,0.0,0.0,0.0,0.0,0.0,0.0,0.0,0.0,0.0,0.0,0.0,0.0,0.0,0.0,0.0,0.0,0.0,0.0,0.0,0.0,0.0,0.0,0.0,0.0,0.0,0.0,0.0,0.0,0.0,0.0,0.0,0.0,0.0,0.0,0.0,0.0,0.0,0.0,0.0,0.0,0.0,0.0,0.0,0.0,0.0,0.0,0.0,0.0,0.0,0.0,0.0,0.0,0.0,0.0,0.0,0.0,0.0,0.0,0.0,0.0,0.0,0.0,0.0,0.0,0.0,0.0,0.0,0.0,0.0,0.0,0.0,0.0,0.0,0.0,0.0,0.0,0.0,0.0,0.0,0.0,0.0,0.0,0.0,0.0,0.0,0.0,0.0,0.0,0.0,0.0,0.0,0.0,0.0,0.0,0.0,0.0,0.0,0.0,0.0,0.0,0.0,0.0,0.0,0.0,0.0,0.0,0.0,0.0,0.0,-0.0132,-0.0379,-0.0342,0.0,0.0,0.0,0.0,0.0,0.0,0.0,0.0,0.0,0.0,0.0,0.0,0.0,0.0,0.0,0.0,0.0,0.0,0.0,0.0,0.0,0.0,0.0,0.0,0.0,0.0,0.0,0.0,0.0,0.0,0.0,0.0,0.0,0.0,0.0,0.0,0.0,0.0,0.0,0.0,0.0,0.0,0.0,0.0,0.0,0.0,0.0,0.0,0.0,0.0,0.0,0.0,0.0,0.0,0.0,0.0,0.0,0.0,0.0,0.0,0.0,0.0,0.0,0.0,0.0,0.0,0.0,0.0,0.0,0.0,0.0,0.0,0.0,0.0,0.0,0.0,0.0,0.0,0.0,0.0,0.0,0.0,0.0,0.0,0.0,0.0,0.0,0.0,0.0,0.0,0.0,0.0,0.0,0.0,0.0,0.0,0.0,0.0,0.0,0.0,0.0,0.0,0.0,0.0,0.0,0.0,0.0,0.0,-0.0114,-0.0218,-0.0319,0.0,0.0,0.0,0.0,0.0,0.0,0.0,0.0,0.0,0.0,0.0,0.0,0.0,0.0,0.0,0.0,0.0,0.0,0.0,0.0,0.0,0.0,0.0,0.0,0.0,0.0,0.0,0.0,0.0,0.0,0.0,0.0,0.0,0.0,0.0,0.0,0.0,0.0,0.0,0.0,0.0,0.0,0.0,0.0,0.0,0.0,0.0,0.0,0.0,0.0,0.0,0.0,0.0,0.0,0.0,0.0,0.0,0.0,0.0,0.0,0.0,0.0,0.0,0.0,0.0,0.0,0.0,0.0,0.0,0.0,0.0,0.0,0.0,0.0,0.0,0.0,0.0,0.0,0.0,0.0,0.0,0.0,0.0,0.0,0.0,0.0,0.0,0.0,0.0,0.0,0.0,0.0,0.0,0.0,0.0,0.0,0.0,0.0,0.0,0.0,0.0,0.0,0.0,0.0,0.0,0.0,0.0,0.0,0.0,-0.0112,-0.0242,-0.0289,0.0,0.0,0.0,0.0,0.0,0.0,0.0,0.0,0.0,0.0,0.0,0.0,0.0,0.0,0.0,0.0,0.0,0.0,0.0,0.0,0.0,0.0,0.0,0.0,0.0,0.0,0.0,0.0,0.0,0.0,0.0,0.0,0.0,0.0,0.0,0.0,0.0,0.0,0.0,0.0,0.0,0.0,0.0,0.0,0.0,0.0,0.0,0.0,0.0,0.0,0.0,0.0,0.0,0.0,0.0,0.0,0.0,0.0,0.0,0.0,0.0,0.0,0.0,0.0,0.0,0.0,0.0,0.0,0.0,0.0,0.0,0.0,0.0,0.0,0.0,0.0,0.0,0.0,0.0,0.0,0.0,0.0,0.0,0.0,0.0,0.0,0.0,0.0,0.0,0.0,0.0,0.0,0.0,0.0,0.0,0.0,0.0,0.0,0.0,0.0,0.0,0.0,0.0,0.0,0.0,0.0,0.0,0.0,0.0,0.0,-0.0074,0.0,0.0,0.0,0.0,0.0,0.0,0.0,0.0,0.0,0.0,0.0,0.0,0.0,0.0,0.0,0.0,0.0,0.0,0.0,0.0,0.0,0.0,0.0,0.0,0.0,0.0,0.0,0.0,0.0,0.0,0.0,0.0,0.0,0.0,0.0,0.0,0.0,0.0,0.0,0.0,0.0,0.0,0.0,0.0,0.0,0.0,0.0,0.0,0.0,0.0,0.0,0.0,0.0,0.0,0.0,0.0,0.0,0.0,0.0,0.0,0.0,0.0,0.0,0.0,0.0,0.0,0.0,0.0,0.0,0.0,0.0,0.0,0.0,0.0,0.0,0.0,0.0,0.0,0.0,0.0,0.0,0.0,0.0,0.0,0.0,0.0,0.0,0.0,0.0,0.0,0.0,0.0,0.0,0.0,0.0,0.0,0.0,0.0,0.0,0.0,0.0,0.0,0.0,0.0,0.0,0.0,0.0,0.0,0.0,0.0,0.0,-0.005,-0.0161,0.0,0.0,0.0,0.0,0.0,0.0,0.0,0.0,0.0,0.0,0.0,0.0,0.0,0.0,0.0,0.0,0.0,0.0,0.0,0.0,0.0,0.0,0.0,0.0,0.0,0.0,0.0,0.0,0.0,0.0,0.0,0.0,0.0,0.0,0.0,0.0,0.0,0.0,0.0,0.0,0.0,0.0,0.0,0.0,0.0,0.0,0.0,0.0,0.0,0.0,0.0,0.0,0.0,0.0,0.0,0.0,0.0,0.0,0.0,0.0,0.0,0.0,0.0,0.0,0.0,0.0,0.0,0.0,0.0,0.0,0.0,0.0,0.0,0.0,0.0,0.0,0.0,0.0,0.0,0.0,0.0,0.0,0.0,0.0,0.0,0.0,0.0,0.0,0.0,0.0,0.0,0.0,0.0,0.0,0.0,0.0,0.0,0.0,0.0,0.0,0.0,0.0,0.0047,0.0156,0.022,0.0027,0.0,0.0,0.0,0.0,-0.0025,-0.0091,0.0,0.0,0.0,0.0,0.0,0.0,0.0,0.0,0.0,0.0,0.0,0.0,0.0,0.0,0.0,0.0,0.0,0.0,0.0,0.0,0.0,0.0,0.0,0.0,0.0,0.0,0.0,0.0,0.0,0.0,0.0,0.0,0.0,0.0,0.0,0.0,0.0,0.0,0.0,0.0,0.0,0.0,0.0,0.0,0.0,0.0,0.0,0.0,0.0,0.0,0.0,0.0,0.0,0.0,0.0,0.0,0.0,0.0,0.0,0.0,0.0,0.0,0.0,0.0,0.0,0.0,0.0,0.0,0.0,0.0,0.0,0.0,0.0,0.0,0.0,0.0,0.0,0.0,0.0,0.0,0.0,0.0,0.0,0.0,0.0,0.0,0.0,0.0,0.0,0.0,0.0,0.0,0.0,0.0,0.0,0.0,0.0,0.0,0.0,0.0,0.0,0.0,0.0236,0.0459,0.0533,0.0134,0.0027,0.0,0.0,0.0,-0.0024,-0.009,0.0,0.0,0.0,0.0,0.0,0.0,0.0,0.0,0.0,0.0,0.0,0.0,0.0,0.0,0.0,0.0,0.0,0.0,0.0,0.0,0.0,0.0,0.0,0.0,0.0,0.0,0.0,0.0,0.0,0.0,0.0,0.0,0.0,0.0,0.0,0.0,0.0,0.0,0.0,0.0,0.0,0.0,0.0,0.0,0.0,0.0,0.0,0.0,0.0,0.0,0.0,0.0,0.0,0.0,0.0,0.0,0.0,0.0,0.0,0.0,0.4499,0.0,0.0,0.0,0.0,0.0,0.0,0.0,0.0,0.0,0.0,0.0,0.0,0.0,0.0,0.0,0.0,0.0,0.0,0.0,0.0,0.0,0.0,0.0,0.0,0.0,0.0,0.0,0.0,0.0,0.0,0.0,0.0,0.0,0.0,0.0,0.0,0.0,0.0,0.0,0.0,0.0,0.125,0.0942,0.07,0.0719,0.0272,0.0,0.0,0.0,0.0,-0.0023,-0.0064,0.0,0.0,0.0,0.0,0.0,0.0,0.0,0.0,0.0,0.0,0.0,0.0,0.0,0.0,0.0,0.0,0.0,0.0,0.0,0.0,0.0,0.0,0.0,0.0,0.0,0.0,0.0,0.0,0.0,0.0,0.0,0.0,0.0,0.0,0.0,0.0,0.0,0.0,0.0,0.0,0.0,0.0,0.0,0.0,0.0,0.0,0.0,0.0,0.0,0.0,0.0,0.0,0.0,0.0,0.0,0.0,0.0,0.0,0.0,0.0,0.4979,0.0,0.0,0.0,0.0,0.0,0.0,0.0,0.0,0.0,0.0,0.0,0.0,0.0,0.0,0.0,0.0,0.0,0.0,0.0,0.0,0.0,0.0,0.0,0.0,0.0,0.0,0.0,0.0,0.0,0.0,0.0,0.0,0.0,0.0,0.0,0.0,0.0,0.0,0.0,0.0,0.1643,0.1519,0.141,0.1249,0.0746,0.0417,0.0346,0.0121,0.0,0.0,-0.0043,0.0,0.0,0.0,0.0,0.0,0.0,0.0,0.0,0.0,0.0,0.0,0.0,0.0,0.0,0.0,0.0,0.0,0.0,0.0,0.0,0.0,0.0,0.0,0.0,0.0,0.0,0.0,0.0,0.0,0.0,0.0,0.0,0.0,0.0,0.0,0.0,0.0,0.0,0.0,0.0,0.0,0.0,0.0,0.0,0.0,0.0,0.0,0.0,0.0,0.0,0.0,0.0,0.0,0.9569,0.9426,0.9233,0.872,0.8399,0.8138,0.7528,0.6606,0.5502,0.5307,0.0,0.0,0.0,0.0,0.0,0.0,0.0,0.0,0.0,0.0,0.0,0.0,0.0,0.0,0.0,0.0,0.0,0.0,0.0,0.0,0.0,0.0,0.0,0.0,0.349,0.3378,0.0,0.0,0.0,0.0,0.0,0.0,0.0,0.0,0.0,0.0,0.0,0.0,0.1958,0.215,0.2186,0.1803,0.1247,0.0837,0.0708,0.0279,0.0,0.0,0.0,0.0,0.0,0.0,0.0,0.0,0.0,0.0,0.0,0.0,0.0,0.0,0.0,0.0,0.0,0.0,0.0,0.0,0.0,0.0,0.0,0.0,0.0,0.0,0.0,0.0,0.0,0.0,0.0,0.0,0.0,0.0,0.0,0.0,0.7781,0.8024,0.0,0.0,0.0,0.0,0.0,0.0,0.0,0.0,0.0,0.0,0.0,0.0,0.0,1.0494,1.0771,1.081,1.0727,1.0517,1.024,0.9997,0.9793,0.9467,0.9311,0.9275,0.9182,0.0,0.6384,0.5898,0.0,0.0,0.0,0.0,0.0,0.0,0.0,0.0,0.0,0.0,0.0,0.0,0.0,0.0,0.0,0.0,0.0,0.0,0.0,0.0,0.0,0.0,0.3747,0.3887,0.3844,0.3707,0.0,0.3246,0.2973,0.2957,0.2808,0.0,0.0,0.0,0.0,0.0,0.0,0.0,0.2985,0.2691,0.2457,0.2376,0.1495,0.0847,0.0711,0.0276,0.0,0.0,0.0,0.0,0.0,0.0,0.0,0.0,0.0,0.0,0.0,0.0,0.0,0.0,0.0,0.0,0.0,0.0,0.0,0.0,0.0,0.0,0.0,0.0,0.0,0.0,0.0,0.0,0.0,0.0,0.0,0.0,0.0,0.0,0.0,0.7856,0.8445,0.8513,0.8758,0.877,0.0,0.0,0.0,0.0,0.0,0.0,0.0,0.0,0.0,1.0984,1.1155,1.1314,1.1508,1.1508,1.1403,1.1185,1.0801,1.0498,1.0282,0.9886,0.9654,0.9504,0.9348,0.8795,0.7944,0.732,0.6522,0.5713,0.0,0.0,0.0,0.0,0.4495,0.4174,0.4416,0.427,0.0,0.3872,0.0,0.0,0.0,0.0,0.0,0.0,0.0,0.0,0.0,0.0,0.3747,0.3941,0.383,0.3663,0.361,0.346,0.3304,0.0,0.3161,0.3023,0.2843,0.0,0.0,0.0,0.0,0.3007,0.3172,0.3092,0.3004,0.3004,0.2357,0.1824,0.1624,0.1171,0.0874,0.0786,0.0784,0.0784,0.0784,0.0529,0.0517,0.0,0.0,0.0,0.0,0.0,0.0,0.0,0.0,0.0,0.0,0.0,0.0,0.0,0.0,0.0,0.0,0.0,0.0,0.0,0.0,0.0,0.0,0.0,0.0,0.0,0.0,0.0,0.0,0.8496,0.9058,0.9132,0.9566,0.9682,0.0,0.0,0.0,0.0,0.0,0.0,1.0906,1.0997,1.1333,1.1976,1.1989,1.2065,1.2248,1.2174,1.2025,1.1807,1.1336,1.0953,1.0766,1.0221,0.9865,0.9665,0.9355,0.9203,0.9148,0.8454,0.7586,0.6677,0.654,0.6157,0.5703,0.5824,0.5515,0.507,0.5306,0.5089,0.4666,0.4468,0.0,0.3682,0.348,0.0,0.0,0.0,0.0,0.3522,0.3859,0.3774,0.3666,0.3885,0.3774,0.3613,0.3613,0.3613,0.3558,0.0,0.3422,0.3316,0.3074,0.0,0.0,0.0,0.0,0.3145,0.3228,0.3371,0.3436,0.3403,0.2971,0.2611,0.2378,0.1891,0.1552,0.1459,0.1419,0.1411,0.1411,0.1074,0.1036,0.1388,0.0,0.0,0.0,0.0,0.0,0.0,0.0,0.0,0.0,0.0,0.0,0.0,0.0,0.0,0.0,0.0,0.0,0.0,0.0,0.0,0.0,0.0,0.0,0.0,0.0,0.0,0.0,0.0,0.0,0.999,1.0568,0.0,0.0,0.0,0.0,1.0902,1.145,1.179,1.1824,1.2084,1.2378,1.273,1.2737,1.2884,1.314,1.2884,1.2636,1.2452,1.1833,1.1452,1.1255,1.0511,1.0195,1.0137,0.9671,0.9492,0.9424,0.8896,0.8172,0.7429,0.7295,0.6726,0.5991,0.5977,0.5973,0.5968,0.6095,0.6127,0.6014,0.5433,0.4586,0.3781,0.3772,0.3588,0.0,0.0,0.3485,0.363,0.3769,0.3719,0.3638,0.3771,0.3691,0.3613,0.3613,0.3613,0.361,0.0,0.3482,0.3395,0.3376,0.0,0.318,0.3169,0.33,0.3387,0.3392,0.3498,0.3531,0.3414,0.2971,0.2639,0.2495,0.1946,0.1594,0.1592,0.1466,0.1411,0.1411,0.1366,0.1387,0.1407,0.1372,0.0,0.0,0.0,0.0,0.0,0.0,0.0,0.0,0.0,0.0,0.0,0.0,0.0,0.0,0.0,0.0,0.0,0.0,0.0,0.0,0.0,0.0,0.0,0.0,0.0,0.0,0.0,0.0,1.0648,1.1363,0.0,1.1162,1.155,1.1757,1.1605,1.1924,1.2231,1.2462,1.2569,1.2764,1.3033,1.2891,1.2837,1.2951,1.265,1.2428,1.2353,1.2031,1.1719,1.1465,1.109,1.0638,1.0201,1.0036,0.977,0.9498,0.9306,0.8943,0.8497,0.8276,0.7909,0.745,0.7296,0.675,0.6122,0.6182,0.5937,0.5632,0.571,0.5256,0.4615,0.4537,0.4165,0.3787,0.3787,0.3767,0.3771,0.3996,0.3885,0.3771,0.391,0.3827,0.3719,0.361,0.3613,0.3613,0.3613,0.355,0.3493,0.3414,0.3365,0.3311,0.3204,0.3322,0.34,0.34,0.3509,0.3594,0.3523,0.3381,0.3223,0.3086,0.2798,0.2589,0.2504,0.2406,0.2375,0.2375,0.2036,0.2014,0.235,0.2027,0.1687,0.0,0.0,0.0,0.0,0.0,0.0,0.0,0.0,0.0,0.0,0.0,0.0,0.0,0.0,0.0,0.0,0.0,0.0,0.0,0.0,0.0,0.0,0.0,0.0,0.0,0.0,1.1208,1.1364,1.2013,1.2218,1.163,1.2104,1.2409,1.2214,1.2438,1.2699,1.2931,1.2844,1.2878,1.3046,1.2797,1.2636,1.2636,1.2405,1.2305,1.2305,1.2157,1.2015,1.1831,1.1517,1.1045,1.0438,1.0278,0.9921,0.9516,0.9516,0.9408,0.9215,0.8945,0.8626,0.8267,0.8093,0.7508,0.675,0.6561,0.5964,0.5359,0.5655,0.5328,0.4787,0.468,0.4353,0.3996,0.3996,0.3938,0.391,0.4079,0.3996,0.3882,0.3965,0.3938,0.3855,0.3749,0.3722,0.3722,0.3722,0.3666,0.3558,0.3477,0.3463,0.3436,0.3354,0.3411,0.3463,0.3463,0.3534,0.3613,0.3613,0.3613,0.3553,0.3471,0.3314,0.3161,0.3061,0.2955,0.289,0.289,0.2551,0.2529,0.289,0.2515,0.2082,0.1642,0.0,0.0,0.0,0.0,0.0,0.0,0.0,0.0,0.0,0.0,0.0,0.0,0.0,0.0,0.0,0.0,0.0,0.0,0.0,0.0,0.0,0.0,0.0,1.1133,1.1784,1.2211,1.2218,1.2584,1.2563,1.2,1.2476,1.2811,1.2811,1.3053,1.322,1.3213,1.2951,1.2784,1.2784,1.2458,1.2305,1.2305,1.2305,1.2305,1.2305,1.2305,1.2305,1.2291,1.1831,1.1365,1.0867,1.0432,0.996,0.9516,0.9516,0.9516,0.9486,0.9203,0.8788,0.8315,0.8303,0.8141,0.7818,0.729,0.6327,0.534,0.5363,0.4846,0.4221,0.4221,0.4135,0.4024,0.4024,0.4024,0.3996,0.4024,0.4024,0.3996,0.3996,0.3996,0.3996,0.3996,0.3996,0.3996,0.3996,0.3802,0.3613,0.3613,0.3613,0.3613,0.3613,0.3613,0.0,0.3613,0.3613,0.3613,0.3613,0.3613,0.3613,0.3613,0.336,0.3193,0.3193,0.3021,0.289,0.289,0.2895,0.2895,0.2895,0.2751,0.25,0.2122,0.0,0.0,0.0,0.0,0.0,0.0,0.0,0.0,0.0,0.0,0.0,0.0,0.0,0.0,0.0,0.0,0.0,0.0,0.0,0.0,0.0,0.0,1.2409,1.2135,1.2473,1.2741,1.2858,1.291,1.2919,1.2832,1.318,1.3394,1.3394,1.3433,1.3393,1.322,1.2951,1.2784,1.2784,1.2458,1.2305,1.2305,1.2305,1.2305,1.2305,1.2305,1.2305,1.2298,1.2181,1.1768,1.1086,1.0838,1.0332,0.9708,0.9548,0.9516,0.9486,0.9203,0.9011,0.886,0.8674,0.8288,0.7857,0.7509,0.688,0.629,0.6529,0.5882,0.5007,0.5007,0.4708,0.4353,0.4353,0.4245,0.419,0.4325,0.4245,0.4138,0.4138,0.4138,0.4107,0.4024,0.3996,0.3996,0.3996,0.3941,0.3858,0.3771,0.3744,0.3716,0.361,0.3613,0.0,0.3613,0.3613,0.3613,0.3613,0.3613,0.3613,0.3613,0.336,0.3193,0.3193,0.3021,0.289,0.289,0.2952,0.2975,0.2975,0.2608,0.2408,0.0,0.0,0.0,0.0,0.0,0.0,0.0,0.0,0.0,0.0,0.0,0.0,0.0,0.0,0.0,0.0,0.0,0.0,0.0,0.0,0.0,0.0,1.2516,1.3346,1.3165,1.3282,1.3381,1.3362,1.3127,1.3036,1.3109,1.3206,1.332,1.3413,1.342,1.3347,1.322,1.3039,1.2918,1.279,1.2616,1.2425,1.2305,1.2305,1.2305,1.2305,1.2305,1.2305,1.2305,1.2305,1.1979,0.0,1.1041,1.0537,0.9927,0.9623,0.9516,0.0,0.0,0.0,0.0,0.0,0.8346,0.7881,0.771,0.7195,0.6634,0.6824,0.6165,0.5304,0.5304,0.4924,0.4491,0.4491,0.4408,0.4356,0.4463,0.4408,0.4328,0.4328,0.4328,0.4301,0.4215,0.4215,0.4215,0.4215,0.4215,0.0,0.3993,0.3882,0.3769,0.3691,0.3638,0.3613,0.3613,0.3613,0.3613,0.3613,0.3613,0.3613,0.3613,0.3406,0.0,0.0,0.0,0.3015,0.3015,0.3059,0.0,0.0,0.0,0.0,0.0,0.0,0.0,0.0,0.2453,0.2258,0.0,0.0,0.0,0.0,0.0,0.0,0.0,0.0,0.0,0.0,0.0,0.0,0.0,0.0,0.0,0.0,1.3051,1.3982,1.3982,1.407,1.398,1.3739,1.3289,1.3023,1.3092,1.2946,1.3017,1.332,1.3307,1.3307,1.3307,0.0,0.0,0.0,0.0,1.271,1.2405,1.2365,1.2351,1.2351,1.2318,1.2305,1.2305,1.2305,1.2072,1.1601,1.1137,1.0684,1.0188,0.9752,0.9572,0.9548,0.9516,0.9366,0.9113,0.8884,0.8497,0.8069,0.8041,0.0,0.0,0.673,0.6136,0.5443,0.5422,0.5034,0.4598,0.4598,0.4546,0.4491,0.4491,0.4491,0.4491,0.4491,0.4491,0.4491,0.4491,0.4491,0.4491,0.4491,0.4491,0.4436,0.4276,0.4021,0.3852,0.3824,0.3719,0.361,0.361,0.3613,0.3613,0.3613,0.0,0.0,0.3613,0.3471,0.34,0.34,0.3286,0.3199,0.3212,0.3215,0.3215,0.3215,0.3215,0.322,0.3234,0.3466,0.352,0.3409,0.2474,0.2034,0.0,0.0,0.0,0.0,0.0,0.0,0.0,0.0,0.0,0.0,0.0,0.0,0.0,0.0,0.0,1.3067,1.3609,1.3982,1.3982,1.3995,1.3934,1.3717,1.3369,1.3292,1.3599,1.3491,1.3599,1.4145,1.4033,1.3921,1.3921,1.3687,1.3493,1.3433,1.3247,1.3093,1.3039,1.2824,1.2697,1.2697,0.0,0.0,1.2305,1.2305,1.2144,1.1828,1.1414,1.0931,1.0433,1.0178,0.9931,0.974,0.9548,0.9486,0.9426,0.9378,0.9297,0.9166,0.8942,0.8459,0.79,0.7467,0.6884,0.6309,0.6092,0.5605,0.0,0.5144,0.4846,0.4491,0.4491,0.4491,0.4491,0.4491,0.4491,0.4491,0.4491,0.4491,0.4491,0.4491,0.4491,0.4491,0.4436,0.4273,0.4079,0.3965,0.3855,0.3771,0.3771,0.3666,0.3613,0.3613,0.3613,0.3613,0.3613,0.3471,0.34,0.34,0.3286,0.3237,0.3362,0.3365,0.3365,0.3365,0.3365,0.3414,0.3515,0.346,0.355,0.3715,0.3563,0.3407,0.0,0.0,0.0,0.0,0.0,0.0,0.0,0.0,0.0,0.0,0.0,1.2035,1.2011,0.0,1.306,1.3221,1.366,1.3923,1.3762,1.374,1.3696,1.3622,1.3366,1.3406,1.3917,1.3777,1.3869,1.435,1.4321,1.4201,1.413,1.3948,1.376,1.3606,1.346,1.336,1.3213,1.2945,1.2784,1.2784,1.2445,1.2305,1.2305,1.2305,1.2225,1.2078,1.1644,1.1317,1.0998,1.0547,1.0144,0.9804,0.9676,0.958,0.9516,0.9516,0.9516,0.9498,0.9354,0.9023,0.8627,0.8224,0.7723,0.7163,0.6776,0.6115,0.5473,0.5329,0.4928,0.4491,0.4491,0.4491,0.4491,0.4491,0.4491,0.4491,0.4491,0.4491,0.4491,0.4491,0.4491,0.4491,0.4491,0.4408,0.4301,0.4135,0.3938,0.3796,0.3796,0.3691,0.3613,0.3613,0.3613,0.3613,0.3613,0.3528,0.3493,0.3493,0.3436,0.343,0.349,0.3493,0.3493,0.3493,0.3493,0.3523,0.3613,0.3523,0.358,0.3698,0.3732,0.3697,0.0,0.0,0.0,0.0,0.0,0.0,0.0,0.0,1.2932,1.2357,1.2646,1.3014,1.3026,1.3054,1.3148,1.3272,1.3682,1.3916,1.3711,1.3631,1.3587,1.3587,1.3382,1.348,1.4119,1.3974,1.4036,1.4483,1.444,1.4321,1.4166,1.413,1.3975,1.3693,1.3686,1.3573,1.338,1.3058,1.2878,1.2871,1.2478,1.2305,1.2305,1.2305,1.2305,1.2285,1.1752,1.1501,1.1455,1.072,1.0192,0.983,0.9804,0.9676,0.9516,0.9516,0.9516,0.9516,0.9516,0.9366,0.9125,0.8812,0.8404,0.7956,0.7422,0.6653,0.591,0.5565,0.5089,0.4625,0.4515,0.4491,0.4491,0.4491,0.4491,0.4491,0.4491,0.4491,0.4491,0.4491,0.4491,0.4491,0.4491,0.4491,0.4436,0.4273,0.4049,0.3882,0.3882,0.3747,0.3638,0.3638,0.361,0.3613,0.3613,0.3613,0.3613,0.3613,0.3613,0.3613,0.3613,0.3613,0.3613,0.3613,0.3613,0.3613,0.3613,0.3613,0.3613,0.3613,0.3613,0.3613,1.2444,1.1801,1.1299,1.2308,1.2386,1.2348,0.0,0.0,1.3305,1.2836,1.2859,1.3092,1.3387,1.3425,1.3631,1.4247,1.4166,1.407,1.4364,1.4114,1.3931,1.3931,1.3667,1.3711,1.4406,1.4223,1.4315,1.4956,1.4657,1.4398,1.4356,1.4208,1.4075,1.4041,1.4041,1.4021,1.3988,1.344,1.316,1.3153,1.2572,1.2305,1.2305,1.2305,1.2305,1.2271,1.1541,1.1201,1.108,1.0359,1.0015,0.9958,0.9836,0.9676,0.9516,0.9516,0.9516,0.9516,0.9516,0.9466,0.9384,0.8872,0.8645,0.8521,0.7975,0.7403,0.6814,0.6268,0.5664,0.5089,0.4625,0.4491,0.4491,0.4491,0.4491,0.4491,0.4491,0.4491,0.4491,0.4491,0.4491,0.4491,0.4491,0.4491,0.4491,0.4463,0.4301,0.4166,0.4166,0.3938,0.3769,0.3769,0.3663,0.3613,0.3613,0.3613,0.3613,0.3613,0.3613,0.3613,0.3613,0.3613,0.3613,0.3613,0.3613,0.3613,0.3613,0.3613,0.3613,0.3613,0.3613,0.3613,1.2521,1.2521,0.0,0.0,1.2811,1.3181,1.3079,1.3308,1.3473,1.3153,1.3208,1.3331,1.347,1.3492,1.3645,0.0,1.407,1.4137,1.446,1.4225,1.3982,1.3982,1.3697,1.3748,1.4445,1.4387,1.4529,1.5039,1.4915,1.4699,1.4398,1.4321,1.4201,1.4088,1.4088,1.4088,1.4088,1.3674,1.3333,1.3206,1.2811,1.2509,1.2305,1.2305,1.2305,1.2285,1.1972,1.1737,1.1545,1.1034,1.0666,1.0373,1.0053,0.983,0.9644,0.9548,0.9516,0.9516,0.9516,0.9516,0.945,0.9059,0.8933,0.8836,0.8285,0.7759,0.7257,0.6846,0.629,0.5687,0.5117,0.4979,0.4897,0.457,0.4491,0.4491,0.4491,0.4491,0.4491,0.4491,0.4491,0.4491,0.4491,0.4491,0.4491,0.4491,0.4328,0.4193,0.4193,0.4024,0.3882,0.3796,0.3691,0.3613,0.3613,0.3613,0.3613,0.3613,0.3613,0.3613,0.3613,0.3613,0.3613,0.3613,0.3613,0.3613,0.3613,0.3613,0.3613,0.3613,0.3613,0.3613,1.2868,0.0,0.0,1.2429,1.294,1.3453,1.3127,1.3411,1.371,1.3625,1.3582,1.3572,1.3572,1.3535,1.3631,1.4086,1.4152,1.4269,1.4553,1.4318,1.4084,1.3996,1.3777,1.385,1.4452,1.4511,1.4696,1.5171,1.5131,1.4915,1.4482,1.444,1.4321,1.413,1.4088,1.4088,1.4088,1.3753,1.35,1.3327,1.2971,1.267,1.2418,1.2338,1.2305,1.2298,1.2218,1.2017,1.1724,1.143,1.0995,1.0562,1.0226,0.9958,0.9772,0.9644,0.9548,0.9516,0.9516,0.9516,0.9468,0.9185,0.9095,0.8999,0.8475,0.8032,0.7639,0.7204,0.6783,0.6317,0.5714,0.555,0.5418,0.4842,0.4736,0.468,0.4543,0.4491,0.4491,0.4491,0.4491,0.4491,0.4491,0.4491,0.4491,0.4491,0.4384,0.4273,0.4273,0.4162,0.3993,0.3824,0.3716,0.3638,0.3613,0.3613,0.3613,0.3613,0.3613,0.3613,0.3613,0.3613,0.3613,0.3613,0.3613,0.3613,0.3613,0.3613,0.3613,0.3613,0.3613,0.3613,0.0,0.0,1.1807,1.2438,1.2612,1.2775,1.3281,1.377,1.4142,1.4338,1.4072,1.379,1.379,1.3645,1.3704,1.4394,1.4489,1.4567,1.4842,1.4655,1.4372,1.4056,1.3975,1.4137,0.0,1.4511,1.4735,1.5338,1.5215,1.4999,1.4692,1.4524,1.4321,1.413,1.4088,1.4088,1.4088,1.3753,1.36,1.358,1.3065,1.2777,1.2764,1.2438,1.2305,1.2285,1.204,1.171,1.1382,1.1129,1.0738,1.0314,1.0308,1.0085,0.9804,0.9804,0.9676,0.9516,0.9516,0.9516,0.9468,0.9185,0.9095,0.8999,0.8475,0.8291,0.812,0.7312,0.7085,0.6945,0.6317,0.6182,0.6018,0.5414,0.5281,0.5144,0.4598,0.4491,0.4491,0.4491,0.4491,0.4491,0.4491,0.4491,0.4491,0.4491,0.4491,0.4491,0.4491,0.4328,0.4079,0.3824,0.3796,0.3744,0.361,0.3613,0.3613,0.3613,0.3613,0.3613,0.3613,0.3613,0.3613,0.3613,0.3613,0.3613,0.3613,0.3613,0.3613,0.3613,0.3613,0.3613,0.0,0.0,1.2764,1.2915,1.3283,1.363,1.3816,1.3874,1.3933,1.4003,1.3623,1.3271,1.3271,1.3312,1.357,1.4192,1.4403,1.4655,1.5148,1.4944,1.4703,1.4594,1.4435,0.0,0.0,0.0,0.0,1.5338,1.5143,1.4991,1.4985,1.4741,1.4524,1.4321,1.4166,1.4088,1.4088,1.3988,1.3841,1.3593,1.3072,1.2683,1.2445,1.2345,1.2305,1.2291,1.2198,1.2098,1.1984,1.169,1.1362,1.1016,1.0692,1.0374,1.0085,0.9868,0.9772,0.9676,0.9548,0.9516,0.9498,0.9408,0.9245,0.9029,0.868,0.8578,0.843,0.7804,0.7749,0.7726,0.6987,0.681,0.6534,0.5527,0.5304,0.5144,0.4625,0.4491,0.4491,0.4491,0.4491,0.4491,0.4491,0.4491,0.4491,0.4491,0.4491,0.4491,0.4491,0.4328,0.4166,0.4079,0.3993,0.3882,0.3744,0.3744,0.3691,0.3613,0.3613,0.3613,0.3613,0.3613,0.3613,0.3613,0.3613,0.3613,0.3613,0.3613,0.3613,0.3613,0.3613,0.3613,1.2586,1.2777,1.303,1.294,1.333,1.3751,1.3751,1.3737,1.3674,1.3564,1.3235,1.2923,1.2923,1.2931,1.3229,1.4201,1.4341,1.4562,1.5283,1.5113,1.4856,1.4787,1.4692,1.4721,0.0,0.0,0.0,1.5345,1.5192,1.508,1.5117,1.4866,1.4608,1.4398,1.4201,1.4088,1.4088,1.4088,1.3888,1.3447,1.31,1.2737,1.2305,1.2305,1.2305,1.2305,1.2305,1.2245,1.2131,1.198,1.1637,1.1216,1.0929,1.0588,1.0269,1.0053,0.99,0.9772,0.958,0.9516,0.9516,0.9516,0.9396,0.9179,0.8818,0.871,0.8596,0.8045,0.8021,0.8029,0.7534,0.7386,0.7085,0.5905,0.5632,0.5418,0.4653,0.4491,0.4491,0.4491,0.4491,0.4491,0.4491,0.4491,0.4491,0.4491,0.4491,0.4491,0.4491,0.4384,0.4273,0.4221,0.4138,0.4024,0.3882,0.3824,0.3771,0.3663,0.3638,0.3613,0.3613,0.3613,0.3613,0.3613,0.3613,0.3613,0.3613,0.3613,0.3613,0.3613,0.3613,0.3613,1.2724,1.2726,1.2622,1.2646,1.2901,1.3116,1.3116,1.3346,1.3498,1.3132,1.2916,1.2765,1.2749,0.0,1.2811,1.4301,1.4246,1.4322,1.5188,1.5098,1.4842,0.0,0.0,0.0,0.0,0.0,0.0,1.5411,0.0,1.5284,1.5131,1.4866,1.4608,1.4433,1.4201,1.413,1.4088,1.4088,1.3801,1.3233,1.322,1.2899,1.2325,1.2311,1.2305,1.2305,1.2305,1.2144,1.1926,1.1913,1.153,1.1015,1.1002,1.0718,1.0308,1.0301,1.0085,0.9772,0.958,0.9516,0.9516,0.9516,0.9516,0.9414,0.889,0.8728,0.862,0.8069,0.7919,0.7919,0.7907,0.7901,0.7628,0.6507,0.6209,0.5909,0.4791,0.4519,0.4491,0.4491,0.4491,0.4491,0.4491,0.4491,0.4491,0.4491,0.4491,0.4491,0.4491,0.4491,0.4436,0.4249,0.4221,0.4166,0.4024,0.3882,0.3824,0.3796,0.3691,0.3613,0.3613,0.3613,0.3613,0.3613,0.3613,0.3613,0.3613,0.3613,0.3613,0.3613,0.3613,0.3613,1.2652,1.2811,1.302,1.3291,1.3426,1.3457,1.3457,1.3363,1.3116,1.2805,1.245,1.212,1.1881,0.0,0.0,1.3694,1.4297,0.0,1.533,1.5511,0.0,1.5555,0.0,1.6009,1.6009,1.6009,0.0,0.0,1.5467,1.5092,1.5333,1.5131,1.4873,1.465,1.4447,1.4243,1.4088,1.4088,1.3901,1.3493,1.3313,1.3006,1.2663,1.2405,1.2305,1.2305,1.2305,1.2258,1.2178,1.1993,1.165,1.1289,1.1076,1.0815,1.0498,1.0371,1.0142,0.9926,0.9766,0.9612,0.9516,0.9516,0.9516,0.945,0.9101,0.8999,0.889,0.8339,0.8189,0.8147,0.7955,0.7901,0.7735,0.7025,0.6534,0.5991,0.525,0.4791,0.4491,0.4491,0.4491,0.4491,0.4491,0.4491,0.4491,0.4491,0.4491,0.4491,0.4491,0.4491,0.4491,0.4436,0.4439,0.4356,0.4166,0.4107,0.4024,0.3824,0.3771,0.3691,0.3613,0.3613,0.3613,0.3613,0.3613,0.3613,0.3613,0.3613,0.3613,0.3613,0.3613,0.3613,1.2626,1.2853,1.31,1.3164,1.3164,1.3124,1.2933,1.275,1.248,1.2009,1.171,0.0,1.1312,1.1747,0.0,0.0,0.0,0.0,1.5246,1.5656,1.5913,0.0,1.6184,0.0,1.6411,1.6411,1.6411,0.0,1.5745,1.5411,1.5593,1.5294,1.4999,1.4692,1.4482,1.4321,1.4088,1.4088,1.3941,1.36,1.3347,1.3046,1.277,1.2438,1.2305,1.2305,0.0,1.2231,1.2098,1.1973,1.1617,1.1223,1.1056,1.0847,1.0593,1.0466,1.0301,1.011,1.0053,0.9836,0.9612,0.9516,0.9516,0.9462,0.9179,0.9095,0.9011,0.8602,0.8375,0.8255,0.8111,0.7985,0.7762,0.7219,0.6837,0.6344,0.5496,0.5062,0.4791,0.4546,0.4491,0.4491,0.4491,0.4491,0.4491,0.4491,0.4491,0.4491,0.4491,0.4491,0.4491,0.4491,0.4491,0.4463,0.4328,0.4249,0.4138,0.3993,0.391,0.3855,0.3774,0.3777,0.3777,0.3777,0.3719,0.3691,0.3691,0.3638,0.3613,0.3613,0.3613,0.3613,1.259,1.2821,1.2949,1.267,1.259,1.2495,1.2099,1.2051,1.1884,1.1146,0.0,1.1034,1.0947,1.1011,1.1546,1.2962,0.0,1.394,1.5073,1.5622,1.5935,1.5972,1.6287,1.6543,1.6543,1.6543,1.6543,1.6543,1.6177,1.5957,1.5921,1.543,1.4999,1.4692,1.4482,1.4321,1.4088,1.4124,1.3996,1.366,1.3367,1.3066,1.2837,1.2458,1.2305,1.2305,1.2305,0.0,1.1899,1.1859,1.149,1.0989,1.0949,1.0814,1.0593,1.0593,1.0466,1.0301,1.0301,1.0085,0.9804,0.9612,0.9516,0.9468,0.9227,0.9125,0.9041,0.8782,0.8518,0.8285,0.8249,0.8069,0.7794,0.7333,0.7139,0.681,0.5773,0.5414,0.5144,0.4598,0.4491,0.4491,0.4491,0.4491,0.4515,0.4601,0.4546,0.4515,0.4601,0.4546,0.4491,0.4491,0.4491,0.4491,0.4491,0.4328,0.4221,0.4193,0.4079,0.4024,0.3996,0.3996,0.3996,0.3996,0.3882,0.3824,0.3824,0.3719,0.3638,0.3638,0.3638,0.3638,1.259,1.2638,1.267,1.2606,1.259,1.2495,1.2099,1.225,0.0,0.0,1.1209,1.1233,1.0687,1.1126,1.1797,1.2516,0.0,0.0,0.0,0.0,1.6009,0.0,0.0,0.0,0.0,0.0,0.0,0.0,0.0,1.6177,1.5928,1.5564,1.5166,1.4692,1.4482,1.4321,1.4088,1.4237,1.4258,1.4001,1.3467,1.318,1.3113,1.2559,1.2305,1.2305,1.2305,0.0,1.1886,1.1603,1.1303,1.0969,1.076,1.0633,1.0593,1.0593,1.0466,1.0301,1.0301,1.0142,0.9958,0.9804,0.9644,0.9504,0.9456,0.9281,0.9041,0.8782,0.8518,0.8243,0.8027,0.7931,0.7875,0.7794,0.7413,0.7058,0.6837,0.6014,0.5144,0.4598,0.4491,0.4491,0.4491,0.4491,0.4653,0.5089,0.4791,0.4653,0.5117,0.4763,0.4491,0.4491,0.4491,0.4491,0.4491,0.4463,0.4384,0.4221,0.4166,0.4107,0.3996,0.3996,0.3996,0.3996,0.3965,0.3965,0.3965,0.3941,0.3941,0.3941,0.3941,0.3885,1.259,1.259,1.259,1.259,1.259,1.2447,1.1868,0.0,0.0,0.0,1.1091,1.1269,1.0836,0.0,0.0,0.0,0.0,0.0,0.0,0.0,0.0,0.0,0.0,0.0,0.0,0.0,0.0,0.0,0.0,1.6353,1.6162,1.5567,1.5131,1.4915,1.4692,1.4447,1.4237,1.4356,1.4279,1.4082,1.3494,1.3213,1.3186,1.2579,1.2305,1.2305,1.2305,0.0,1.1893,1.1717,1.1396,1.0982,1.0874,1.0727,1.0593,1.0593,1.053,1.0466,1.0466,1.0333,1.0142,1.0085,0.9862,0.9644,0.9548,0.942,0.9287,0.9161,0.8933,0.8662,0.8375,0.8207,0.8069,0.7931,0.7494,0.7112,0.7112,0.6399,0.5609,0.5034,0.4928,0.4818,0.4546,0.4491,0.468,0.5226,0.4842,0.4818,0.566,0.5034,0.4491,0.4491,0.4491,0.4491,0.4491,0.4491,0.4463,0.4356,0.4356,0.4328,0.427,0.427,0.427,0.427,0.4162,0.4107,0.4107,0.4024,0.3996,0.3996,0.3996,0.3965,1.2574,1.256,1.256,1.259,1.2504,1.2282,1.1638,1.1707,0.0,0.0,1.0954,1.1249,1.0993,0.0,1.125,0.0,0.0,0.0,0.0,0.0,0.0,0.0,0.0,0.0,0.0,0.0,0.0,0.0,0.0,0.0,1.617,1.5482,1.509,1.509,1.4915,1.4692,1.4482,1.4482,1.4363,1.4159,1.3494,1.3213,1.3186,1.2579,1.2305,1.2305,1.2305,0.0,0.0,1.1906,1.1558,1.0995,1.0995,1.0847,1.0593,1.0593,1.0593,1.0593,1.0593,1.0498,1.0371,1.0308,1.0085,0.9798,0.9612,0.958,0.9536,0.9444,0.9269,0.9023,0.871,0.8469,0.8225,0.7961,0.7574,0.7246,0.7139,0.6729,0.6209,0.5605,0.55,0.5308,0.4763,0.468,0.4818,0.5226,0.4842,0.4901,0.6046,0.5199,0.4546,0.4653,0.457,0.4491,0.4491,0.4491,0.4491,0.4491,0.4491,0.4491,0.4491,0.4491,0.4491,0.4491,0.4356,0.4276,0.4276,0.4162,0.4104,0.4104,0.4104,0.4079,1.2442,1.2467,1.2367,1.256,1.2223,1.1795,1.1546,0.0,0.0,1.0659,1.1016,1.1331,1.0833,1.1039,0.0,0.0,0.0,1.248,0.0,0.0,0.0,0.0,0.0,0.0,0.0,0.0,0.0,0.0,0.0,0.0,1.5506,1.5244,1.509,1.509,1.509,1.4957,1.465,1.465,1.4566,1.4349,1.3561,1.3213,1.3186,1.2579,1.2305,1.2305,1.2305,0.0,0.0,1.1906,1.1558,1.0995,1.0995,1.0847,1.0593,1.0593,1.0593,1.0593,1.0593,1.0593,1.053,1.0371,1.0149,0.9958,0.9804,0.9772,0.9685,0.9271,0.9119,0.8981,0.8481,0.8309,0.8225,0.7961,0.7875,0.7681,0.7192,0.7058,0.6837,0.6236,0.6127,0.5932,0.5336,0.5226,0.525,0.5304,0.4842,0.4901,0.6046,0.5199,0.468,0.5171,0.4791,0.4491,0.4491,0.4491,0.4491,0.4491,0.4491,0.4491,0.4491,0.4491,0.4491,0.4491,0.4491,0.4463,0.4463,0.4463,0.4463,0.4463,0.4463,0.4353,1.2075,1.2302,1.2467,1.2436,1.2109,1.1727,1.1448,0.0,1.1358,1.0554,1.09,1.1284,1.0992,1.0959,1.1156,0.0,1.1668,1.1944,1.2963,0.0,0.0,0.0,0.0,0.0,0.0,0.0,0.0,0.0,0.0,0.0,1.5418,1.5305,1.5257,1.5257,1.5257,1.5173,1.4957,1.4783,1.4608,1.4384,1.3561,1.3213,1.3186,1.2579,1.2305,1.2305,1.2305,0.0,0.0,1.198,1.163,1.1236,1.1062,1.0847,1.0593,1.0593,1.0593,1.0593,1.0593,1.0593,1.0593,1.0498,1.0434,1.0308,1.0021,0.9926,0.9869,0.9687,0.9599,0.9414,0.8868,0.8403,0.8033,0.7925,0.7901,0.7848,0.7628,0.7574,0.7408,0.6864,0.6756,0.6561,0.5937,0.5555,0.5414,0.5796,0.5062,0.4901,0.6046,0.5496,0.5062,0.5281,0.4818,0.4491,0.4491,0.4491,0.4491,0.4491,0.4491,0.4491,0.4491,0.4491,0.4491,0.4491,0.4491,0.4491,0.4491,0.4491,0.4491,0.4491,0.4491,0.4463,1.173,1.2109,1.2406,1.2274,1.1872,1.1457,0.0,1.127,1.1092,1.0347,1.0844,1.1294,1.1062,1.1059,1.1197,1.1539,1.151,1.174,1.2526,0.0,0.0,0.0,0.0,0.0,0.0,0.0,0.0,0.0,0.0,0.0,1.5418,1.5389,1.5389,1.5389,1.5389,1.534,1.5173,1.4866,1.465,1.4475,1.3602,1.3213,1.3186,1.2579,1.2305,1.2305,1.2305,0.0,0.0,1.2027,1.1697,1.1362,1.1102,1.0847,1.0593,1.0593,1.0593,1.0593,1.0593,1.0593,1.0593,1.0593,1.0593,1.0561,1.0269,1.0142,1.0079,1.0015,0.9831,0.9581,0.9221,0.8575,0.8015,0.8015,0.7955,0.7901,0.7901,0.7901,0.7794,0.7408,0.7327,0.7166,0.6566,0.6127,0.5905,0.6154,0.5363,0.5089,0.6073,0.5523,0.5199,0.5523,0.5062,0.468,0.4519,0.4491,0.4491,0.4491,0.4491,0.4491,0.4491,0.4491,0.4491,0.4491,0.4491,0.4491,0.4491,0.4491,0.4491,0.4491,0.4491,0.4491,1.1462,1.1867,1.2096,1.2096,1.1457,1.0872,0.0,1.0851,1.0496,1.0083,1.0861,1.1417,1.0906,1.1346,1.1628,1.1188,1.1501,1.2082,1.287,0.0,0.0,0.0,0.0,0.0,0.0,0.0,0.0,0.0,0.0,0.0,1.5403,1.5389,1.5389,1.5389,1.5389,1.5389,1.5389,1.495,1.4692,1.4685,1.3682,1.3213,1.3186,1.2579,1.2305,0.0,0.0,0.0,0.0,1.2027,1.1697,1.1362,1.1102,1.0847,1.0593,1.0593,1.0593,1.0593,1.0593,1.0593,1.0593,1.0593,1.0593,1.0593,1.0593,1.0466,1.0269,1.0047,0.9718,0.9407,0.9401,0.8851,0.8285,0.8285,0.8087,0.7901,0.7901,0.7901,0.7901,0.7901,0.7901,0.7708,0.7192,0.7085,0.6891,0.629,0.5691,0.5523,0.6127,0.5199,0.4928,0.6073,0.566,0.5089,0.4546,0.4491,0.4491,0.4491,0.4491,0.4491,0.4491,0.4491,0.4491,0.4491,0.4491,0.4491,0.4491,0.4491,0.4491,0.4491,0.4491,0.4491,1.1029,1.1396,1.1768,1.1873,1.1331,1.0868,1.1158,1.0922,1.0585,1.0546,1.093,1.1195,1.1049,1.1174,1.1585,1.2399,1.2198,0.0,0.0,0.0,0.0,0.0,0.0,0.0,0.0,0.0,0.0,0.0,0.0,0.0,1.5403,1.5389,1.5389,1.5389,1.5389,1.5389,1.5389,1.5131,1.4809,1.4419,1.3734,1.3243,1.2918,1.2478,1.2305,0.0,0.0,0.0,0.0,1.177,1.163,1.1657,1.1002,1.0794,1.0861,1.0667,1.0593,1.0593,1.0593,1.0593,1.0593,1.0593,1.0593,1.0593,1.0593,1.0561,1.0466,1.0269,0.9974,0.9674,0.9349,0.8889,0.8466,0.8281,0.8069,0.7901,0.7901,0.7901,0.7901,0.7901,0.7901,0.7848,0.7681,0.7354,0.7025,0.6837,0.5964,0.5359,0.555,0.5281,0.5199,0.5555,0.5769,0.5691,0.5089,0.5034,0.4897,0.4515,0.4491,0.4491,0.4491,0.4491,0.4491,0.4491,0.4491,0.4491,0.4491,0.4491,0.4491,0.4491,0.4491,0.4491,0.0,1.1308,1.1669,1.1726,1.1308,1.0967,1.1175,1.1005,1.0791,1.0723,1.1034,1.1254,1.1129,1.1202,1.1623,1.2592,1.2322,0.0,0.0,0.0,0.0,0.0,0.0,0.0,0.0,0.0,0.0,0.0,0.0,0.0,1.5396,1.5272,1.5206,1.5206,1.5206,1.5265,1.5389,1.5099,1.4728,1.4279,1.3765,1.326,1.277,1.2438,1.2305,0.0,0.0,0.0,0.0,1.179,1.1637,1.1637,1.1015,1.0801,1.0841,1.066,1.0593,1.0593,1.0593,1.0593,1.0593,1.0593,1.0593,1.0593,1.0593,1.0593,1.0561,1.0466,1.024,1.0001,0.9685,0.9233,0.8761,0.8564,0.8263,0.7981,0.7928,0.7901,0.7901,0.7901,0.7901,0.7901,0.7901,0.7628,0.7408,0.7408,0.6399,0.5632,0.5632,0.5441,0.5386,0.5605,0.6182,0.6399,0.6014,0.555,0.5144,0.4818,0.4598,0.4491,0.4491,0.4491,0.4491,0.4491,0.4491,0.4491,0.4491,0.4491,0.4491,0.4491,0.4491,0.4491,0.0,1.1419,1.171,1.1586,1.1313,1.107,1.107,1.1048,0.0,1.0675,1.1136,1.1481,1.1224,1.1401,1.1727,1.209,0.0,0.0,0.0,0.0,0.0,0.0,0.0,0.0,0.0,0.0,0.0,0.0,0.0,0.0,1.5352,1.5068,1.4893,1.4871,1.4849,1.4995,1.5316,1.4854,1.4486,1.4216,1.3763,1.3272,1.2782,1.2462,1.2335,0.0,0.0,0.0,0.0,1.2027,1.171,1.143,1.1116,1.0861,1.062,1.06,1.0593,1.0593,1.0593,1.0593,1.0593,1.0593,1.0593,1.0593,1.0593,1.0593,1.0593,1.0593,1.0466,1.0333,1.0275,0.976,0.9195,0.9036,0.8602,0.8141,0.7955,0.7901,0.7901,0.7901,0.7901,0.7901,0.7901,0.7901,0.7901,0.7901,0.6972,0.6236,0.6209,0.5714,0.5578,0.6154,0.6729,0.7112,0.7166,0.61,0.5418,0.5363,0.4842,0.4546,0.4546,0.4515,0.4491,0.4491,0.4491,0.4491,0.4491,0.4491,0.4491,0.4491,0.4491,0.4491,1.1107,0.0,1.1247,1.1217,1.0975,1.0733,0.0,1.0514,1.0448,1.0902,0.0,1.1319,1.1728,1.1677,1.2058,1.3382,0.0,0.0,0.0,0.0,0.0,0.0,0.0,0.0,0.0,0.0,0.0,0.0,0.0,1.5279,1.5024,1.4944,1.4791,1.4589,1.434,1.4362,1.4692,1.4579,1.4216,1.3617,1.3624,1.3306,1.2628,1.256,1.2526,0.0,0.0,0.0,1.2278,1.2027,1.1866,1.1717,1.1196,1.0949,1.0894,1.0673,1.0593,1.0593,1.0593,1.0593,1.0593,1.0593,1.0593,1.0593,1.0593,1.0593,1.0593,1.0593,1.0561,1.0476,1.0219,0.9774,0.9366,0.906,0.858,0.8195,0.8141,0.8008,0.7901,0.7901,0.7901,0.7901,0.7901,0.7901,0.7901,0.7901,0.7327,0.6729,0.6263,0.6073,0.6041,0.6182,0.6729,0.7273,0.7681,0.7085,0.648,0.6018,0.5441,0.5117,0.5117,0.4708,0.4491,0.4491,0.4491,0.4491,0.4491,0.4491,0.4491,0.4491,0.4491,0.4491,1.0843,1.11,1.1327,1.1327,1.1085,1.0843,1.0843,0.0,0.0,0.0,0.0,1.121,1.1531,1.1699,0.0,0.0,0.0,0.0,0.0,0.0,0.0,0.0,0.0,0.0,0.0,0.0,0.0,0.0,0.0,1.509,1.4907,1.4623,1.4421,1.4291,1.3968,1.4027,1.4504,1.4357,1.4035,1.3551,1.3634,1.3351,1.2746,1.2746,1.2634,0.0,0.0,0.0,1.1891,1.173,1.159,1.1436,1.1116,1.0909,1.0807,1.0646,1.0593,1.0593,1.0593,1.0593,1.0593,1.0593,1.0593,1.0593,1.0593,1.0593,1.0593,1.0593,1.0593,1.0519,1.0194,0.9847,0.9497,0.9095,0.8639,0.8268,0.8221,0.8035,0.7901,0.7901,0.7901,0.7901,0.7901,0.7901,0.7901,0.7901,0.7434,0.6977,0.6647,0.662,0.662,0.662,0.7139,0.7574,0.7875,0.7628,0.7219,0.6647,0.6041,0.5582,0.5308,0.5034,0.4763,0.4519,0.4491,0.4491,0.4491,0.4491,0.4491,0.4491,0.4491,0.4491,1.0411,1.0982,1.1452,1.1503,1.1269,1.1012,1.0968,0.0,0.0,0.0,0.0,0.0,0.0,1.1699,0.0,0.0,0.0,0.0,0.0,0.0,0.0,0.0,0.0,0.0,0.0,0.0,0.0,0.0,0.0,1.5158,1.5105,1.4613,1.4253,1.4089,1.3814,1.3903,1.435,1.4086,1.3826,1.3638,1.3638,1.342,1.2936,1.2936,1.2696,1.2232,0.0,0.0,1.1389,1.1389,1.1256,1.0995,1.0995,1.0847,1.0593,1.0593,1.0593,1.0593,1.0593,1.0593,1.0593,1.0593,1.0593,1.0593,1.0593,1.0593,1.0593,1.0593,1.0593,1.0533,1.0247,0.9967,0.9644,0.9217,0.8785,0.8452,0.8281,0.8109,0.7981,0.7981,0.7981,0.7981,0.7955,0.7955,0.7928,0.7901,0.7521,0.7192,0.7112,0.7166,0.7192,0.7112,0.7574,0.7901,0.7901,0.7901,0.7708,0.7246,0.6588,0.5882,0.5195,0.5171,0.4952,0.4519,0.4491,0.4491,0.4491,0.4491,0.4491,0.4491,0.4491,0.4491,1.0016,1.0448,1.0828,1.1107,1.0931,1.0594,1.0309,0.0,0.0,0.0,0.0,0.0,0.0,0.0,0.0,0.0,0.0,0.0,0.0,0.0,0.0,0.0,0.0,0.0,0.0,0.0,0.0,0.0,0.0,1.6304,1.6026,1.5901,1.5438,1.456,1.4461,1.4168,1.3645,1.3594,1.3499,1.3271,1.3455,1.3396,1.3163,1.3163,1.2913,1.2445,0.0,1.1914,1.1389,1.1389,1.1256,1.0995,1.0995,1.0847,1.0593,1.0593,1.0593,1.0593,1.0593,1.0593,1.0593,1.0593,1.0593,1.0593,1.0593,1.0593,1.0593,1.0593,1.0593,1.0579,1.0539,1.0274,0.995,0.9657,0.9251,0.8832,0.8579,0.8421,0.8321,0.8321,0.8321,0.8295,0.8168,0.8141,0.8088,0.7928,0.7821,0.7601,0.7166,0.7494,0.7601,0.7139,0.7574,0.7901,0.7901,0.7901,0.7875,0.7794,0.6777,0.5719,0.4653,0.4625,0.457,0.4491,0.4491,0.4491,0.4491,0.4491,0.4491,0.4491,0.4491,0.4491,0.961,0.9931,1.0249,1.1019,1.1049,1.0843,1.0689,0.0,0.0,0.0,0.0,0.0,0.0,0.0,0.0,0.0,0.0,0.0,0.0,0.0,0.0,0.0,0.0,0.0,0.0,0.0,0.0,0.0,0.0,0.0,1.6209,1.605,1.5532,1.4645,1.4601,1.4258,1.3499,1.3492,1.3455,1.3346,1.3455,1.3455,1.3346,1.3346,1.3064,1.2473,0.0,1.1744,1.1182,1.1022,1.0914,1.0787,1.0787,1.0713,1.0593,1.0593,1.0593,1.0593,1.0593,1.0593,1.0593,1.0593,1.0593,1.0593,1.0593,1.0593,1.0593,1.0593,1.0593,1.0553,1.0392,1.0221,1.0047,0.9753,0.9471,0.918,0.888,0.8706,0.8573,0.8426,0.8395,0.8374,0.8321,0.8295,0.8242,0.8088,0.8062,0.7928,0.7574,0.7741,0.7821,0.7547,0.7768,0.7901,0.7901,0.7901,0.7901,0.7901,0.7133,0.6453,0.5937,0.5281,0.4924,0.4924,0.4653,0.4491,0.4491,0.4491,0.4491,0.4491,0.4491,0.4491,0.9157,0.9468,0.9802,1.0795,0.0,1.0968,1.1196,0.0,0.0,0.0,0.0,0.0,0.0,0.0,0.0,0.0,0.0,0.0,0.0,0.0,0.0,0.0,0.0,0.0,0.0,0.0,0.0,0.0,0.0,0.0,1.6615,1.6369,1.5807,1.4887,1.4851,1.4438,1.3499,1.3492,1.3492,1.3492,1.3492,1.3492,1.3492,1.3411,1.3021,1.2424,1.2038,1.153,1.094,1.0687,1.0593,1.0593,1.0593,1.0593,1.0593,1.0593,1.0593,1.0593,1.0593,1.0593,1.0593,1.0593,1.0593,1.0593,1.0593,1.0593,1.0593,1.0593,1.0593,1.0539,1.0281,1.0221,1.0147,0.9853,0.9698,0.9518,0.9129,0.9041,0.892,0.8572,0.8532,0.8558,0.846,0.8448,0.8395,0.8275,0.8248,0.8195,0.7981,0.7981,0.7955,0.7901,0.7901,0.7901,0.7901,0.7901,0.7901,0.7901,0.7386,0.7025,0.6891,0.6014,0.5441,0.5304,0.4897,0.4625,0.4491,0.4491,0.4491,0.4491,0.4491,0.4491,0.8575,0.9074,0.9567,1.022,1.0364,0.0,1.1532,1.1242,0.0,1.1743,0.0,0.0,0.0,0.0,0.0,0.0,0.0,0.0,0.0,0.0,0.0,0.0,0.0,0.0,0.0,0.0,0.0,0.0,0.0,0.0,1.7876,1.7847,1.7157,1.5675,1.5604,1.4939,1.3492,1.3492,1.3492,1.3492,1.3492,1.3492,1.3484,1.3184,1.2765,1.231,1.1748,1.1277,1.0803,1.0663,1.0593,1.0593,1.0593,1.0593,1.0593,1.0593,1.0593,1.0593,1.0593,1.0593,1.0593,1.0593,1.0593,1.0593,1.0593,1.0593,1.0593,1.0593,1.0593,1.0586,1.0566,1.0559,1.0486,1.0154,1.0057,0.9903,0.9303,0.9424,0.9457,0.8891,0.8971,0.9036,0.8652,0.8573,0.8547,0.8395,0.8401,0.8348,0.8195,0.8168,0.8115,0.7928,0.7901,0.7901,0.7901,0.7901,0.7901,0.7901,0.7386,0.6837,0.629,0.6182,0.5878,0.5308,0.5254,0.5007,0.4491,0.4491,0.4491,0.4491,0.4491,0.4491,0.8509,0.9047,0.9572,1.0299,1.0562,0.0,0.0,1.1798,1.1813,0.0,0.0,0.0,0.0,0.0,0.0,0.0,0.0,0.0,0.0,0.0,0.0,0.0,0.0,0.0,0.0,0.0,0.0,0.0,0.0,0.0,1.8008,1.8008,1.7304,1.5745,1.571,1.5002,1.3492,1.3492,1.3492,1.3492,1.3492,1.3492,1.3484,1.3155,1.2838,1.252,1.1798,1.1321,1.1035,1.073,1.0593,1.0593,1.0593,1.0593,1.0593,1.0593,1.0593,1.0593,1.0593,1.0593,1.0593,1.0593,1.0593,1.0593,1.0593,1.0593,1.0593,1.0593,1.0593,1.0593,1.0593,1.0593,1.0566,1.0452,1.0425,1.0281,0.9844,0.9873,0.978,0.9164,0.9138,0.909,0.8771,0.8718,0.8692,0.8547,0.8527,0.8474,0.8348,0.8321,0.8268,0.8115,0.7981,0.7901,0.7901,0.7901,0.7901,0.7901,0.7708,0.7494,0.7273,0.6945,0.6647,0.6426,0.6041,0.5773,0.5555,0.5171,0.5007,0.4979,0.4653,0.4491,0.8568,0.9089,0.9675,1.0329,0.0,0.0,1.189,1.212,1.235,0.0,0.0,0.0,0.0,0.0,0.0,0.0,0.0,0.0,0.0,0.0,0.0,0.0,0.0,0.0,0.0,0.0,0.0,0.0,0.0,0.0,0.0,1.8008,1.7407,1.6132,1.6097,1.5357,1.3876,1.384,1.3739,1.3492,1.3492,1.344,1.3331,1.2899,1.2599,1.2425,1.173,1.1335,1.1127,1.0801,1.0656,1.0593,1.0593,1.0593,1.0593,1.0593,1.0593,1.0593,1.0593,1.0593,1.0593,1.0593,1.0593,1.0593,1.0593,1.0593,1.0593,1.0593,1.0593,1.0593,1.0593,1.0593,1.0593,1.0593,1.0593,1.0512,1.018,1.0187,1.0053,0.9344,0.9291,0.9231,0.8871,0.8804,0.8778,0.8685,0.8659,0.8606,0.8474,0.8474,0.8421,0.8268,0.8115,0.7981,0.7981,0.7928,0.7901,0.7901,0.7901,0.7901,0.7901,0.7547,0.7273,0.7112,0.6701,0.6399,0.6209,0.5796,0.5582,0.5578,0.5007,0.4763,0.8692,0.9227,0.9874,0.0,0.0,0.0,1.1859,1.2212,0.0,0.0,0.0,0.0,0.0,0.0,0.0,0.0,0.0,0.0,0.0,0.0,0.0,0.0,0.0,0.0,0.0,0.0,0.0,0.0,0.0,0.0,0.0,1.8008,1.7647,1.6932,1.6897,1.6158,1.4601,1.4601,1.4222,1.3492,1.3484,1.3316,1.2987,1.2302,1.2003,1.1981,1.1502,1.1216,1.109,1.087,1.0713,1.0593,1.0593,1.0593,1.0593,1.0593,1.0593,1.0593,1.0593,1.0593,1.0593,1.0593,1.0593,1.0593,1.0593,1.0593,1.0593,1.0593,1.0593,1.0593,1.0593,1.0593,1.0593,1.0593,1.0593,1.0512,1.018,1.0385,1.0332,0.9391,0.9479,0.9499,0.8911,0.8804,0.8804,0.8804,0.8804,0.8752,0.8626,0.86,0.8553,0.8421,0.8268,0.8195,0.8195,0.8008,0.7901,0.7901,0.7901,0.7901,0.7901,0.7901,0.7655,0.7112,0.7112,0.681,0.6209,0.6209,0.6209,0.6209,0.5582,0.5308,0.8692,0.9269,0.0,0.0,0.0,0.0,0.0,0.0,0.0,0.0,0.0,0.0,0.0,0.0,0.0,0.0,0.0,0.0,0.0,0.0,0.0,0.0,0.0,0.0,0.0,0.0,0.0,0.0,0.0,0.0,0.0,1.7734,1.735,1.6922,1.6897,1.6158,1.4601,1.4601,1.4098,1.3148,1.2921,1.2877,1.2994,1.2536,1.2222,1.1981,1.1502,1.1272,1.1216,1.0926,1.0713,1.0593,1.0593,1.0593,1.0593,1.0593,1.0593,1.0593,1.0593,1.0593,1.0593,1.0593,1.0593,1.0593,1.0593,1.0593,1.0593,1.0593,1.0593,1.0593,1.0593,1.0593,1.0593,1.0593,1.0593,1.0566,1.0479,1.0526,1.0392,0.9679,0.9626,0.9499,0.8911,0.8804,0.8804,0.8804,0.8804,0.8778,0.8745,0.8659,0.8573,0.8547,0.8421,0.8348,0.8348,0.8295,0.8215,0.8115,0.8115,0.8062,0.7901,0.7901,0.7821,0.7655,0.7655,0.7574,0.7381,0.7025,0.6837,0.681,0.6209,0.5937,0.9182,0.9699,0.0,0.0,0.0,0.0,0.0,0.0,0.0,0.0,0.0,0.0,0.0,0.0,0.0,0.0,0.0,0.0,0.0,0.0,0.0,0.0,0.0,0.0,0.0,0.0,0.0,0.0,0.0,0.0,0.0,1.7422,1.7325,1.7118,1.7245,1.6547,1.4895,1.4887,1.4166,1.2811,1.2614,1.2521,1.258,1.2284,1.2028,1.1838,1.1389,1.1216,1.1216,1.0933,1.0713,1.0624,1.0649,1.0656,1.0593,1.0593,1.0593,1.0593,1.0593,1.0593,1.0593,1.0593,1.0593,1.0593,1.0593,1.0593,1.0593,1.0593,1.0593,1.0593,1.0593,1.0593,1.0593,1.0593,1.0593,1.0593,1.0593,1.0593,1.0452,0.9947,0.986,0.9673,0.9051,0.8951,0.8911,0.8824,0.8804,0.8851,0.8938,0.8891,0.8903,0.9022,0.8925,0.877,0.8661,0.8594,0.8489,0.8301,0.8221,0.8141,0.8035,0.7928,0.7901,0.7901,0.7901,0.7901,0.7901,0.7574,0.7413,0.7408,0.6837,0.6561,0.9826,0.0,0.0,0.0,0.0,0.0,0.0,0.0,0.0,0.0,0.0,0.0,0.0,0.0,0.0,0.0,0.0,0.0,0.0,0.0,0.0,0.0,0.0,0.0,0.0,0.0,0.0,0.0,0.0,0.0,0.0,1.707,1.7328,1.7383,1.7715,1.7066,1.5333,1.5256,1.4311,1.2441,1.2508,1.2365,1.2042,1.1753,1.1621,1.1591,1.1341,1.1185,1.1122,1.0989,1.0807,1.0618,1.0776,1.0713,1.0593,1.0624,1.0624,1.0593,1.0593,1.0593,1.0593,1.0593,1.0593,1.0593,1.0593,1.0593,1.0593,1.0593,1.0593,1.0593,1.0593,1.0593,1.0593,1.0593,1.0593,1.0593,1.0593,1.0593,1.0506,1.0174,1.0083,0.991,0.9344,0.9251,0.9164,0.8925,0.8864,0.8924,0.9217,0.9251,0.9357,0.9653,0.9599,0.9407,0.9088,0.8918,0.8728,0.8479,0.8307,0.8221,0.8195,0.8008,0.7901,0.7901,0.7901,0.7901,0.7901,0.7901,0.7901,0.7901,0.7413,0.7166,0.0,0.9394,0.0,0.0,0.0,0.0,0.0,0.0,0.0,0.0,0.0,0.0,0.0,0.0,0.0,0.0,0.0,0.0,0.0,0.0,0.0,0.0,0.0,0.0,0.0,0.0,0.0,0.0,0.0,0.0,1.6687,1.6484,1.6692,1.7396,1.7139,1.6459,1.5291,1.4931,1.3868,0.0,1.2645,1.2718,1.2383,1.2062,1.1794,1.1622,1.2035,1.1849,1.1303,1.1787,1.1507,1.0776,1.0965,1.087,1.0624,1.0713,1.0681,1.0593,1.0593,1.0593,1.0593,1.0593,1.0593,1.0593,1.0593,1.0593,1.0593,1.0593,1.0593,1.0593,1.0593,1.0593,1.0593,1.0593,1.0593,1.0593,1.0593,1.0593,1.0506,1.0174,1.0083,1.0007,0.9646,0.9586,0.9566,0.9506,0.9271,0.9224,0.9552,0.9586,0.9613,0.9708,0.9686,0.963,0.957,0.9288,0.9046,0.8877,0.8657,0.8421,0.8221,0.8008,0.7901,0.7901,0.7901,0.7901,0.7901,0.7901,0.7901,0.7901,0.7794,0.7735,0.0,0.0,0.0,0.0,0.0,0.0,0.0,0.0,0.0,0.0,0.0,0.0,0.0,0.0,0.0,0.0,0.0,0.0,0.0,0.0,0.0,0.0,0.0,0.0,0.0,0.0,0.0,0.0,0.0,1.5859,1.6063,1.6074,1.631,1.677,1.6738,1.6211,1.5204,1.4967,1.413,1.2712,1.3079,1.3159,1.2986,1.2812,1.2648,1.2536,1.2734,1.2612,1.2251,1.2581,1.2212,1.1382,1.16,1.1264,1.0713,1.0776,1.0713,1.0593,1.0593,1.0593,1.0593,1.0593,1.0593,1.0593,1.0593,1.0593,1.0593,1.0593,1.0593,1.0593,1.0593,1.0593,1.0593,1.0593,1.0593,1.0593,1.0593,1.0593,1.0546,1.0361,1.0327,1.0234,0.994,0.978,0.9715,0.9715,0.9552,0.9559,0.9853,0.9886,0.9947,1.0117,1.0137,1.0077,0.9907,0.9619,0.9336,0.9113,0.879,0.8547,0.8395,0.8162,0.8008,0.7901,0.7901,0.7901,0.7901,0.7901,0.7901,0.7901,0.7901,0.7901,0.0,0.0,0.0,0.0,0.0,0.0,0.0,0.0,0.0,0.0,0.0,0.0,0.0,0.0,0.0,0.0,0.0,0.0,0.0,0.0,0.0,0.0,0.0,0.0,0.0,0.0,0.0,0.0,0.0,1.541,1.541,1.5782,1.6016,1.6095,1.6348,1.6047,1.5127,1.5023,1.4486,1.3511,1.3631,1.3713,1.3833,1.3833,1.3713,1.3511,1.3442,1.3373,1.3252,1.3373,1.294,1.2228,1.242,1.1903,1.1021,1.1021,1.0839,1.0618,1.0624,1.0593,1.0593,1.0593,1.0593,1.0593,1.0593,1.0593,1.0593,1.0593,1.0593,1.0593,1.0593,1.0593,1.0593,1.0593,1.0593,1.0593,1.0593,1.0593,1.0593,1.0593,1.0593,1.0512,1.0234,0.9953,0.9773,0.9856,0.9793,0.9866,1.0154,1.0194,1.0287,1.0566,1.0593,1.0492,1.0214,0.988,0.9579,0.9304,0.8877,0.8626,0.86,0.8401,0.8195,0.7975,0.7928,0.7901,0.7901,0.7901,0.7901,0.7901,0.7901,0.7901,0.0,0.0,0.0,0.0,0.0,0.0,0.0,0.0,0.0,0.0,0.0,0.0,0.0,0.0,0.0,0.0,0.0,0.0,0.0,0.0,0.0,0.0,0.0,0.0,0.0,0.0,0.0,0.0,1.541,1.541,1.541,1.5469,1.5674,1.6085,1.5752,1.5434,1.5087,1.4747,1.4225,1.3511,1.4082,1.4638,1.5147,1.5147,1.4549,1.3532,1.4073,1.3983,1.3502,1.4073,1.3825,1.3061,1.326,1.2734,1.1826,1.1826,1.1382,1.0776,1.0656,1.0593,1.0593,1.0593,1.0593,1.0593,1.0593,1.0593,1.0593,1.0593,1.0593,1.0593,1.0593,1.0593,1.0593,1.0593,1.0593,1.0593,1.0593,1.0593,1.0593,1.0593,1.0593,1.0579,1.0539,1.0254,1.0147,1.0432,1.0227,1.0167,1.0492,1.0533,1.0546,1.0586,1.0593,1.0579,1.0539,1.003,0.9695,0.9626,0.9078,0.8718,0.86,0.8573,0.8474,0.8348,0.8055,0.7901,0.7901,0.7901,0.7901,0.7901,0.7901,0.7901,0.8416,0.0,0.0,0.0,0.0,0.0,0.0,0.0,0.0,0.0,0.0,0.0,0.0,0.0,0.0,0.0,0.0,0.0,0.0,0.0,0.0,0.0,0.0,0.0,0.0,0.0,0.0,0.0,1.541,1.541,1.541,1.541,1.5498,1.5693,1.5508,1.5351,1.5267,1.5086,1.4844,1.4579,1.4844,1.5147,1.541,1.541,1.5079,1.4579,1.4883,1.4844,1.4579,1.4883,1.4579,1.3953,1.4013,1.3494,1.2634,1.2297,1.1834,1.1288,1.0863,1.0649,1.0593,1.0593,1.0593,1.0593,1.0593,1.0593,1.0593,1.0593,1.0593,1.0593,1.0593,1.0593,1.0593,1.0593,1.0593,1.0593,1.0593,1.0593,1.0593,1.0593,1.0593,1.0593,1.0593,1.0486,1.0439,1.0573,1.0479,1.0445,1.0573,1.0593,1.0593,1.0593,1.0593,1.0593,1.0593,1.0174,0.986,0.9722,0.9285,0.8918,0.8725,0.8797,0.8722,0.8527,0.8215,0.8062,0.8062,0.7955,0.7901,0.7901,0.7901,0.7901,0.0,0.0,0.0,0.0,0.0,0.0,0.0,0.0,0.0,0.0,0.0,0.0,0.0,0.0,0.0,0.0,0.0,0.0,0.0,0.0,0.0,0.0,0.0,0.0,0.0,0.0,0.0,0.0,1.5312,1.5293,1.5371,1.541,1.541,1.541,1.541,1.541,1.541,1.541,1.541,1.541,1.541,1.541,1.541,1.541,1.541,1.541,1.541,1.541,1.541,1.541,1.5118,1.4736,1.4736,1.4252,1.3463,1.294,1.2358,1.1772,1.117,1.0807,1.0593,1.0593,1.0593,1.0593,1.0593,1.0713,1.0839,1.0839,1.0839,1.0839,1.0839,1.0713,1.0593,1.0593,1.0593,1.0593,1.0593,1.0593,1.0593,1.0593,1.0593,1.0593,1.0593,1.0593,1.0593,1.0593,1.0593,1.0593,1.0593,1.0593,1.0593,1.0593,1.0593,1.0593,1.0593,1.0287,1.002,0.9806,0.9519,0.9231,0.9038,0.9128,0.9085,0.8883,0.8645,0.844,0.8242,0.8062,0.7981,0.7981,0.7928,0.7937,0.0,0.0,0.0,0.0,0.0,0.0,0.0,0.0,0.0,0.0,0.0,0.0,0.0,0.0,0.0,0.0,0.0,0.0,0.0,0.0,0.0,0.0,0.0,0.0,0.0,0.0,0.0,0.0,1.5039,1.499,1.5391,1.541,1.541,1.541,1.541,1.541,1.541,1.541,1.541,1.541,1.541,1.541,1.541,1.541,1.541,1.541,1.541,1.541,1.541,1.541,1.5381,1.5352,1.5352,1.4971,1.438,1.4034,1.3114,1.195,1.16,1.1083,1.0593,1.0593,1.0593,1.0593,1.0593,1.0989,1.1452,1.1452,1.1452,1.1452,1.1452,1.1021,1.0593,1.0593,1.0593,1.0593,1.0593,1.0593,1.0593,1.0593,1.0593,1.0593,1.0593,1.0593,1.0593,1.0593,1.0593,1.0593,1.0593,1.0593,1.0593,1.0593,1.0593,1.0593,1.0593,1.0287,1.0077,1.0094,0.982,0.9653,0.9639,0.9653,0.9653,0.9639,0.9495,0.9084,0.8401,0.8242,0.8195,0.8168,0.7981,0.8033,0.0,0.0,0.0,0.0,0.0,0.0,0.0,0.0,0.0,0.0,0.0,0.0,0.0,0.0,0.0,0.0,0.0,0.0,0.0,0.0,0.0,0.0,0.0,0.0,0.0,0.0,0.0,0.0,0.0,1.5254,1.5371,1.541,1.541,1.541,1.541,1.541,1.541,1.541,1.541,1.541,1.541,1.541,1.541,1.541,1.541,1.541,1.541,1.541,1.541,1.541,1.541,1.541,1.541,1.5264,1.503,1.4519,1.3944,1.3326,1.2673,1.2243,1.2004,1.1872,1.181,1.181,1.181,1.1965,1.2151,1.2151,1.1818,1.1483,1.1483,1.1052,1.0593,1.0593,1.0593,1.0593,1.0593,1.0593,1.0593,1.0593,1.0593,1.0593,1.0593,1.0593,1.0593,1.0593,1.0593,1.0593,1.0593,1.0593,1.0593,1.0593,1.0593,1.0593,1.0593,1.0492,1.0321,1.0097,1.002,0.988,0.9722,0.9866,0.9873,0.9715,0.9807,0.962,0.9119,0.883,0.8711,0.8711,0.8512,0.8475,0.7383,0.0,0.0,0.0,0.0,0.0,0.0,0.0,0.0,0.0,0.0,0.0,0.0,0.0,0.0,0.0,0.0,0.0,0.0,0.0,0.0,0.0,0.0,0.0,0.0,0.0,0.0,0.0,0.0,0.0,1.4952,1.4952,1.4952,1.4952,1.5127,1.5205,1.5205,1.5342,1.541,1.541,1.5264,1.5205,1.5205,1.5205,1.5205,1.5205,1.5352,1.541,1.541,1.541,1.541,1.541,1.541,1.541,1.5352,1.4893,1.4529,1.4115,1.3545,1.31,1.2765,1.2634,1.2573,1.2512,1.2512,1.2665,1.2856,1.2856,1.2366,1.1849,1.1849,1.1233,1.0593,1.0593,1.0593,1.0593,1.0593,1.0593,1.0593,1.0593,1.0593,1.0593,1.0593,1.0593,1.0593,1.0593,1.0593,1.0593,1.0593,1.0593,1.0593,1.0593,1.0593,1.0593,1.0593,1.0593,1.0506,1.0281,1.0267,1.018,1.0017,1.016,1.0174,1.0017,1.0167,1.0143,0.986,0.9332,0.9055,0.9055,0.8821,0.8752,0.0,0.0,0.0,0.0,0.0,0.0,0.0,0.0,0.0,0.0,0.0,0.0,0.0,0.0,0.0,0.0,0.0,0.0,0.0,0.0,0.0,0.0,0.0,0.0,0.0,0.0,0.0,0.0,1.3734,1.3695,1.4085,1.4104,1.4104,1.4104,1.4541,1.4766,1.4766,1.5176,1.5381,1.5391,1.4971,1.4775,1.4833,1.4823,1.4823,1.4852,1.5234,1.541,1.541,1.541,1.541,1.541,1.541,1.541,1.5391,1.5264,1.4804,1.4213,1.4085,1.3515,1.2856,1.2856,1.2734,1.2565,1.2573,1.3009,1.3541,1.3541,1.3039,1.2512,1.2481,1.1538,1.0593,1.0593,1.0593,1.0593,1.0593,1.0593,1.0593,1.0593,1.0593,1.0593,1.0593,1.0593,1.0593,1.0593,1.0593,1.0593,1.0593,1.0593,1.0593,1.0593,1.0624,1.0624,1.0624,1.0656,1.0649,1.0649,1.0649,1.0656,1.0624,1.0624,1.0624,1.0624,1.0624,1.0624,1.0618,0.9704,0.922,0.922,0.8875,0.8866,0.7,0.0,0.0,0.0,0.0,0.0,0.0,0.0,0.0,0.0,0.0,0.0,0.0,0.0,0.0,0.0,0.0,0.0,0.0,0.0,0.0,0.0,0.0,0.0,0.0,0.0,0.0,0.0,1.415,1.4346,1.4114,1.4104,1.4104,1.4104,1.4221,1.428,1.428,1.4406,1.4621,1.4951,1.4521,1.4611,1.5225,1.4922,1.4951,1.5244,1.5361,1.541,1.541,1.541,1.541,1.541,1.541,1.541,1.541,1.5362,1.5157,1.4931,1.4872,1.4656,1.4359,1.4222,1.4133,1.4073,1.3971,1.407,1.4228,1.4228,1.3731,1.3009,1.2035,1.1178,1.0593,1.0593,1.0593,1.0593,1.0593,1.0593,1.0593,1.0593,1.0593,1.0593,1.0593,1.0593,1.0593,1.0593,1.0593,1.0593,1.0593,1.0593,1.0593,1.0593,1.0996,1.124,1.124,1.1694,1.1965,1.1965,1.1965,1.1756,1.1272,1.124,1.124,1.124,1.0807,1.0807,1.124,1.0419,0.9905,0.978,0.9444,0.933,0.0,0.0,0.0,0.0,0.0,0.0,0.0,0.7955,0.0,0.0,0.0,0.0,0.0,0.0,0.0,0.0,0.0,0.0,0.0,0.0,0.0,0.0,0.0,0.0,0.0,1.332,1.3506,1.3262,1.3711,1.3887,1.3597,1.3613,1.3613,1.3613,1.3753,1.3851,1.3851,1.4026,1.4241,1.4502,1.4046,1.4104,1.4619,1.4551,1.4648,1.4874,1.5225,1.541,1.541,1.541,1.541,1.541,1.541,1.541,1.541,1.541,1.5362,1.5284,1.5284,1.5205,1.5059,1.4872,1.4843,1.4784,1.4565,1.4536,1.4556,1.4506,1.401,1.3199,1.1849,1.124,1.0902,1.0649,1.0593,1.0593,1.0593,1.0593,1.0593,1.0593,1.0593,1.0593,1.0593,1.0593,1.0593,1.0593,1.0807,1.087,1.0624,1.1052,1.1296,1.1028,1.1545,1.1903,1.1903,1.2266,1.2512,1.2512,1.2512,1.2328,1.1934,1.1903,1.1903,1.1903,1.1569,1.1569,1.1903,1.0832,1.018,0.9926,0.9766,0.967,0.7538,0.7538,0.0,0.0,0.0,0.0,0.7915,0.7832,0.0,0.0,0.0,0.0,0.0,0.0,0.0,0.0,0.0,0.0,0.0,0.0,0.0,0.0,0.0,0.0,1.2856,1.2944,1.2954,1.2905,1.2905,1.2905,1.2905,1.2905,1.2905,1.2905,1.3242,1.3437,1.3437,1.3782,1.3997,1.4036,1.3643,1.3486,1.3584,1.389,1.4094,1.4221,1.501,1.5371,1.541,1.541,1.541,1.541,1.541,1.541,1.541,1.541,1.5381,1.5391,1.5381,1.5313,1.5186,1.5068,1.5029,1.497,1.4654,1.4616,1.4656,1.4536,1.401,1.3199,1.1942,1.1545,1.1365,1.0744,1.0593,1.0593,1.0593,1.0593,1.0593,1.0593,1.0593,1.0593,1.0593,1.0593,1.0593,1.0593,1.1059,1.124,1.0744,1.1694,1.2182,1.167,1.2212,1.2604,1.2604,1.2665,1.2726,1.2726,1.2726,1.2696,1.2604,1.2604,1.2604,1.2604,1.2604,1.2573,1.2512,1.1163,1.0364,1.0085,1.011,1.0047,0.7819,0.7819,0.7772,0.7625,0.0,0.0,0.7316,0.7385,0.7569,0.0,0.0,0.0,0.0,0.0,0.0,0.0,0.0,0.0,0.0,0.0,0.0,0.0,0.0,0.0,1.2832,1.3184,1.3242,1.2925,1.2905,1.2905,1.2905,1.2905,1.2905,1.2905,1.2983,1.3023,1.3023,1.3086,1.3301,1.3597,1.3203,1.3359,1.3977,1.3724,1.4004,1.4668,1.4834,1.5098,1.541,1.541,1.541,1.541,1.541,1.541,1.541,1.541,1.5332,1.5264,1.5362,1.5313,1.5215,1.5156,1.5156,1.5127,1.495,1.4813,1.4656,1.4536,1.401,1.3321,1.2512,1.1911,1.1365,1.0744,1.0593,1.0593,1.0593,1.0593,1.0593,1.0593,1.0593,1.0593,1.0593,1.0593,1.0593,1.0593,1.0688,1.0902,1.1272,1.1545,1.1849,1.2266,1.2887,1.329,1.329,1.3791,1.4109,1.4109,1.4109,1.3881,1.3321,1.329,1.329,1.329,1.329,1.3039,1.2512,1.2112,1.1872,1.181,1.1118,1.0804,0.815,0.815,0.8116,0.7986,0.0,0.0,0.0,0.7566,0.7742,0.7913,0.0,0.0,0.0,0.0,0.0,0.0,0.0,0.0,0.0,0.0,0.0,0.0,0.0,0.0,1.27,1.3042,1.3105,1.2925,1.2905,1.2905,1.2905,1.2905,1.2905,1.2905,1.2905,1.2905,1.2905,1.2905,1.2988,1.3193,1.3013,1.3105,1.3506,1.3506,1.3857,1.4473,1.4687,1.5029,1.541,1.541,1.541,1.541,1.541,1.541,1.541,1.541,1.5362,1.5313,1.5391,1.5362,1.5284,1.5215,1.5264,1.5254,1.5059,1.4872,1.4656,1.4536,1.4258,1.3851,1.3161,1.2489,1.1849,1.1209,1.0807,1.0593,1.0593,1.0839,1.1052,1.1052,1.1327,1.1358,1.0713,1.0593,1.0713,1.0989,1.1327,1.1663,1.1965,1.2589,1.2995,1.3009,1.3601,1.401,1.401,1.4297,1.4515,1.4515,1.4515,1.4357,1.401,1.401,1.401,1.401,1.401,1.3821,1.3511,1.342,1.3017,1.2297,1.1919,1.1703,0.0,0.0,0.0,0.0,0.0,0.8363,0.0,0.0,0.0,0.825,0.0,0.0,0.0,0.0,0.0,0.0,0.0,0.0,0.0,0.0,0.0,0.0,0.0,0.0,0.0,1.273,1.2793,1.2895,1.2827,1.2793,1.2905,1.2905,1.2905,1.2905,1.2905,1.2905,1.2905,1.2905,1.2905,1.2905,1.2905,1.2905,1.2915,1.3232,1.3662,1.4124,1.4502,1.4941,1.541,1.541,1.541,1.541,1.541,1.541,1.541,1.541,1.541,1.541,1.541,1.541,1.5391,1.5264,1.5313,1.5362,1.5088,1.4872,1.4715,1.4536,1.4515,1.4357,1.3662,1.31,1.2512,1.1849,1.1115,1.0688,1.0895,1.1303,1.1608,1.1663,1.212,1.212,1.0958,1.0776,1.0933,1.1421,1.1965,1.2389,1.2665,1.3631,1.4139,1.3731,1.4169,1.4515,1.4515,1.4515,1.4515,1.4515,1.4515,1.4515,1.4515,1.4515,1.4515,1.4515,1.4515,1.4515,1.4515,1.4515,1.389,1.2734,1.2696,1.2634,0.0,0.0,0.0,0.0,0.8571,0.0,0.0,0.0,0.8257,0.8005,0.0,0.0,0.0,0.0,0.0,0.0,0.0,0.0,0.0,0.0,0.0,0.0,0.0,0.0,0.0,1.2434,1.2437,1.2876,1.252,1.2447,1.2886,1.2905,1.2905,1.2905,1.2905,1.2905,1.2905,1.2905,1.2905,1.2905,1.2905,1.2905,1.2905,1.2954,1.3379,1.4104,1.4163,1.463,1.541,1.541,1.541,1.541,1.541,1.541,1.541,1.541,1.541,1.541,1.541,1.541,1.541,1.5391,1.5381,1.5362,1.5088,1.497,1.4911,1.4604,1.4515,1.4357,1.3662,1.3442,1.323,1.2543,1.1476,1.0895,1.2058,1.2058,1.1965,1.2328,1.2451,1.2274,1.1545,1.1397,1.1428,1.1483,1.1545,1.2035,1.323,1.3511,1.3821,1.4327,1.4446,1.4515,1.4515,1.4515,1.4515,1.4515,1.4515,1.4515,1.4515,1.4515,1.4515,1.4515,1.4515,1.4515,1.4515,1.4515,1.4417,1.4228,1.367,1.3381,0.0,0.0,0.0,0.0,0.0,0.0,0.8472,0.0,0.8565,0.0,0.0,0.0,0.0,0.0,0.0,0.0,0.0,0.0,0.0,0.0,0.0,0.0,0.0,0.0,0.0,0.0,0.0,0.0,1.248,1.2398,1.2876,1.2905,1.2905,1.2905,1.2905,1.2905,1.2905,1.2905,1.2905,1.2905,1.2905,1.2905,1.2905,1.2905,1.3203,1.3743,1.3743,1.4085,1.464,1.464,1.464,1.464,1.464,1.4942,1.5381,1.5137,1.5205,1.5381,1.5127,1.5205,1.541,1.541,1.541,1.5352,1.5176,1.5127,1.5039,1.4704,1.4606,1.4517,1.416,1.3791,1.342,1.3161,1.2366,1.1841,1.2389,1.2665,1.2895,1.3039,1.3381,1.345,1.2773,1.2336,1.2212,1.2589,1.265,1.2986,1.395,1.407,1.4198,1.4476,1.4515,1.4515,1.4515,1.4515,1.4515,1.4515,1.4515,1.4515,1.4515,1.4515,1.4515,1.4515,1.4515,1.4515,1.4515,1.4515,1.4515,1.4476,1.4198,1.407,0.8804,0.0,0.0,0.0,0.0,0.0,0.0,0.0,0.0,0.0,0.0,0.0,0.0,0.0,0.0,0.0,0.0,0.0,0.0,0.0,0.0,0.0,0.0,0.0,0.0,0.0,0.0,0.0,0.0,1.2295,1.2876,1.2905,1.2905,1.2905,1.2905,1.2905,1.2905,1.2905,1.2905,1.2905,1.2905,1.2905,1.2905,1.2905,1.3105,1.3506,1.3506,1.3724,1.4104,1.4104,1.4104,1.4104,1.4104,1.4484,1.5019,1.4727,1.4873,1.5195,1.4893,1.5059,1.541,1.541,1.541,1.5362,1.5235,1.5215,1.5147,1.4872,1.4745,1.4686,1.4586,1.416,1.3761,1.3761,1.326,1.2818,1.3009,1.329,1.3541,1.3731,1.4169,1.4357,1.3851,1.323,1.2948,1.342,1.3511,1.3731,1.4417,1.4515,1.4515,1.4515,1.4515,1.4515,1.4515,1.4515,1.4515,1.4515,1.4515,1.4515,1.4515,1.4515,1.4515,1.4515,1.4515,1.4515,1.4515,1.4515,1.4515,1.4515,1.4515,1.4515,0.0,0.0,0.0,0.8804,0.0,0.0,0.0,0.0,0.86,0.0,0.0,0.0,0.0,0.0,0.0,0.0,0.0,0.0,0.0,0.0,0.0,0.0,0.0,0.0,0.0,0.0,0.0,0.0,0.0,0.0,1.2856,1.2905,1.2905,1.2905,1.2905,1.2905,1.2905,1.2905,1.2905,1.2905,1.2905,1.2905,1.2905,1.2905,1.3105,1.3506,1.3506,1.3724,1.4104,1.4104,1.4104,1.4104,1.4104,1.4124,1.4143,1.4133,1.4434,1.4833,1.4785,1.5059,1.541,1.541,1.541,1.5362,1.5235,1.5215,1.5186,1.5029,1.4843,1.4715,1.4686,1.4586,1.4476,1.4476,1.395,1.3662,1.4297,1.3941,1.3692,1.4357,1.4485,1.4476,1.4476,1.392,1.348,1.3511,1.3511,1.3731,1.4417,1.4515,1.4515,1.4515,1.4515,1.4515,1.4515,1.4515,1.4515,1.4515,1.4515,1.4515,1.4515,1.4515,1.4515,1.4515,1.4515,1.4515,1.4515,1.4515,1.4515,1.4515,1.4515,1.4515,0.0,0.0,0.9413,0.9762,0.0,0.0,0.0,0.0,0.0,0.0,0.0,0.0,0.0,0.0,0.0,0.0,0.0,0.0,0.0,0.0,0.0,0.0,0.0,0.0,0.0,0.0,0.0,0.0,1.1872,0.0,0.0,1.2905,1.2905,1.2905,1.2905,1.2905,1.2905,1.2905,1.2905,1.2905,1.2905,1.2905,1.2905,1.2905,1.2959,1.3096,1.3096,1.3174,1.3301,1.3301,1.3301,1.3301,1.3301,1.3301,1.334,1.3588,1.3958,1.4367,1.4687,1.5059,1.541,1.541,1.541,1.5381,1.5362,1.5332,1.5313,1.5176,1.5029,1.4902,1.4902,1.4754,1.4636,1.4636,1.4449,1.433,1.4476,1.4327,1.4228,1.4455,1.4515,1.4515,1.4515,1.4297,1.4169,1.4169,1.4169,1.4228,1.4476,1.4515,1.4515,1.4515,1.4515,1.4515,1.4515,1.4515,1.4515,1.4515,1.4515,1.4515,1.4515,1.4515,1.4515,1.4515,1.4515,1.4515,1.4515,1.4515,1.4515,1.4515,1.4515,1.4515,0.9788,0.9891,0.0,1.0312,1.0141,0.0,0.9891,0.0,0.0,0.0,0.0,0.0,0.0,0.0,0.0,0.0,0.0,0.0,0.0,0.0,0.0,0.0,0.0,0.0,0.0,0.0,1.1602,1.2261,0.0,0.0,0.0,0.0,1.2905,1.2905,1.2905,1.2905,1.2905,1.2905,1.2905,1.2905,1.2905,1.2905,1.2905,1.2905,1.2905,1.2905,1.2905,1.2905,1.2905,1.2905,1.2905,1.2905,1.2905,1.2905,1.2935,1.3184,1.3617,1.4192,1.4805,1.5186,1.541,1.541,1.541,1.541,1.541,1.541,1.5391,1.5313,1.5147,1.5,1.5068,1.4902,1.4715,1.4715,1.4715,1.4656,1.4536,1.4515,1.4515,1.4515,1.4515,1.4515,1.4515,1.4515,1.4515,1.4515,1.4515,1.4515,1.4515,1.4515,1.4515,1.4515,1.4515,1.4515,1.4515,1.4515,1.4515,1.4515,1.4515,1.4515,1.4515,1.4515,1.4515,1.4515,1.4515,1.4515,1.4515,1.4515,1.4515,1.4515,1.4515,1.4515]}]]